[[{"header":{"parameterUnit":"m.s-1","parameterCategory":1,"la1":30.6,"la2":28.766,"lo1":-90.7593,"lo2":-88.6598,"dx":0.0162,"dy":0.0183,"nx":116,"ny":114,"refTime":"2022-12-04T06:00:00:Z","depth":0,"parameterNumber":2,"parameterNumberName":"U-component_of_WINDS"},"data":[0.0,0.0,0.0,0.0,0.0,0.0,0.0,0.0,0.0,0.0,0.0,0.0,0.0,0.0,0.0,0.0,0.0,0.0,0.0,0.0,0.0,0.0,0.0,0.0,0.0,0.0,0.0,0.0,0.0,0.0,0.0,0.0,0.0,0.0,0.0,0.0,0.0,0.0,0.0,0.0,0.0,0.0,0.0,0.0,0.0,0.0,0.0,0.0,0.0,0.0,0.0,0.0,0.0,0.0,0.0,0.0,0.0,0.0,0.0,0.0,0.0,0.0,0.0,0.0,0.0,0.0,0.0,0.0,0.0,0.0,0.0,0.0,0.0,0.0,0.0,0.0,0.0,0.0,0.0,0.0,0.0,0.0,0.0,0.0,0.0,0.0,0.0,0.0,0.0,0.0,0.0,0.0,0.0,0.0,0.0,0.0,0.0,0.0,0.0,0.0,0.0,0.0,0.0,0.0,0.0,0.0,0.0,0.0,0.0,0.0,0.0,0.0,0.0,0.0,0.0,0.0,0.0,0.0,0.0,0.0,0.0,0.0,0.0,0.0,0.0,0.0,0.0,0.0,0.0,0.0,0.0,0.0,0.0,0.0,0.0,0.0,0.0,0.0,0.0,0.0,0.0,0.0,0.0,0.0,0.0,0.0,0.0,0.0,0.0,0.0,0.0,0.0,0.0,0.0,0.0,0.0,0.0,0.0,0.0,0.0,0.0,0.0,0.0,0.0,0.0,0.0,0.0,0.0,0.0,0.0,0.0,0.0,0.0,0.0,0.0,0.0,0.0,0.0,0.0,0.0,0.0,0.0,0.0,0.0,0.0,0.0,0.0,0.0,0.0,0.0,0.0,0.0,0.0,0.0,0.0,0.0,0.0,0.0,0.0,0.0,0.0,0.0,0.0,0.0,0.0,0.0,0.0,0.0,0.0,0.0,0.0,0.0,0.0,0.0,0.0,0.0,0.0,0.0,0.0,0.0,0.0,0.0,0.0,0.0,0.0,0.0,0.0,0.0,0.0,0.0,0.0,0.0,0.0,0.0,0.0,0.0,0.0,0.0,0.0,0.0,0.0,0.0,0.0,0.0,0.0,0.0,0.0,0.0,0.0,0.0,0.0,0.0,0.0,0.0,0.0,0.0,0.0,0.0,0.0,0.0,0.0,0.0,0.0,0.0,0.0,0.0,0.0,0.0,0.0,0.0,0.0,0.0,0.0,0.0,0.0,0.0,0.0,0.0,0.0,0.0,0.0,0.0,0.0,0.0,0.0,0.0,0.0,0.0,0.0,0.0,0.0,0.0,0.0,0.0,0.0,0.0,0.0,0.0,0.0,0.0,0.0,0.0,0.0,0.0,0.0,0.0,0.0,0.0,0.0,0.0,0.0,0.0,0.0,0.0,0.0,0.0,0.0,0.0,0.0,0.0,0.0,0.0,0.0,0.0,0.0,0.0,0.0,0.0,0.0,0.0,0.0,0.0,0.0,0.0,0.0,0.0,0.0,0.0,0.0,0.0,0.0,0.0,0.0,0.0,0.0,0.0,0.0,0.0,0.0,0.0,0.0,0.0,0.0,0.0,0.0,0.0,0.0,0.0,0.0,0.0,0.0,0.0,0.0,0.0,0.0,0.0,0.0,0.0,0.0,0.0,0.0,0.0,0.0,0.0,0.0,0.0,0.0,0.0,0.0,0.0,0.0,0.0,0.0,0.0,0.0,0.0,0.0,0.0,0.0,0.0,0.0,0.0,0.0,0.0,0.0,0.0,0.0,0.0,0.0,0.0,0.0,0.0,0.0,0.0,0.0,0.0,0.0,0.0,0.0,0.0,0.0,0.0,0.0,0.0,0.0,0.0,0.0,0.0,0.0,0.0,0.0,0.0,0.0,0.0,0.0,0.0,0.0,0.0,0.0,0.0,0.0,0.0,0.0,0.0,0.0,0.0,0.0,0.0,0.0,0.0,0.0,0.0,0.0,0.0,0.0,0.0,0.0,0.0,0.0,0.0,0.0,0.0,0.0,0.0,0.0,0.0,0.0,0.0,0.0,0.0,0.0,0.0,0.0,0.0,0.0,0.0,0.0,0.0,0.0,0.0,0.0,0.0,0.0,0.0,0.0,0.0,0.0,0.0,0.0,0.0,0.0,0.0,0.0,0.0,0.0,0.0,0.0,0.0,0.0,0.0,0.0,0.0,0.0,0.0,0.0,0.0,0.0,0.0,0.0,0.0,0.0,0.0,0.0,0.0,0.0,0.0,0.0,0.0,0.0,0.0,0.0,0.0,0.0,0.0,0.0,0.0,0.0,0.0,0.0,0.0,0.0,0.0,0.0,0.0,0.0,0.0,0.0,0.0,0.0,0.0,0.0,0.0,0.0,0.0,0.0,0.0,0.0,0.0,0.0,0.0,0.0,0.0,0.0,0.0,0.0,0.0,0.0,0.0,0.0,0.0,0.0,0.0,0.0,0.0,0.0,0.0,0.0,0.0,0.0,0.0,0.0,0.0,0.0,0.0,0.0,0.0,0.0,0.0,0.0,0.0,0.0,0.0,0.0,0.0,0.0,0.0,0.0,0.0,0.0,0.0,0.0,0.0,0.0,0.0,0.0,0.0,0.0,0.0,0.0,0.0,0.0,0.0,0.0,0.0,0.0,0.0,0.0,0.0,0.0,0.0,0.0,0.0,0.0,0.0,0.0,0.0,0.0,0.0,0.0,0.0,0.0,0.0,0.0,0.0,0.0,0.0,0.0,0.0,0.0,0.0,0.0,0.0,0.0,0.0,0.0,0.0,0.0,0.0,0.0,0.0,0.0,0.0,0.0,0.0,0.0,0.0,0.0,0.0,0.0,0.0,0.0,0.0,0.0,0.0,0.0,0.0,0.0,0.0,0.0,0.0,0.0,0.0,0.0,0.0,0.0,0.0,0.0,0.0,0.0,0.0,0.0,0.0,0.0,0.0,0.0,0.0,0.0,0.0,0.0,0.0,0.0,0.0,0.0,0.0,0.0,0.0,0.0,0.0,0.0,0.0,0.0,0.0,0.0,0.0,0.0,0.0,0.0,0.0,0.0,0.0,0.0,0.0,0.0,0.0,0.0,0.0,0.0,0.0,0.0,0.0,0.0,0.0,0.0,0.0,0.0,0.0,0.0,0.0,0.0,0.0,0.0,0.0,0.0,0.0,0.0,0.0,0.0,0.0,0.0,0.0,0.0,0.0,0.0,0.0,0.0,0.0,0.0,0.0,0.0,0.0,0.0,0.0,0.0,0.0,0.0,0.0,0.0,0.0,0.0,0.0,0.0,0.0,0.0,0.0,0.0,0.0,0.0,0.0,0.0,0.0,0.0,0.0,0.0,0.0,0.0,0.0,0.0,0.0,0.0,0.0,0.0,0.0,0.0,0.0,0.0,0.0,0.0,0.0,0.0,0.0,0.0,0.0,0.0,0.0,0.0,0.0,0.0,0.0,0.0,0.0,0.0,0.0,0.0,0.0,0.0,0.0,0.0,0.0,0.0,0.0,0.0,0.0,0.0,0.0,0.0,0.0,0.0,0.0,0.0,0.0,0.0,0.0,0.0,0.0,0.0,0.0,0.0,0.0,0.0,0.0,0.0,0.0,0.0,0.0,0.0,0.0,0.0,0.0,0.0,0.0,0.0,0.0,0.0,0.0,0.0,0.0,0.0,0.0,0.0,0.0,0.0,0.0,0.0,0.0,0.0,0.0,0.0,0.0,0.0,0.0,0.0,0.0,0.0,0.0,0.0,0.0,0.0,0.0,0.0,0.0,0.0,0.0,0.0,0.0,0.0,0.0,0.0,0.0,0.0,0.0,0.0,0.0,0.0,0.0,0.0,0.0,0.0,0.0,0.0,0.0,0.0,0.0,0.0,0.0,0.0,0.0,0.0,0.0,0.0,0.0,0.0,0.0,0.0,0.0,0.0,0.0,0.0,0.0,0.0,0.0,0.0,0.0,0.0,0.0,0.0,0.0,0.0,0.0,0.0,0.0,0.0,0.0,0.0,0.0,0.0,0.0,0.0,0.0,0.0,0.0,0.0,0.0,0.0,0.0,0.0,0.0,0.0,0.0,0.0,0.0,0.0,0.0,0.0,0.0,0.0,0.0,0.0,0.0,0.0,0.0,0.0,0.0,0.0,0.0,0.0,0.0,0.0,0.0,0.0,0.0,0.0,0.0,0.0,0.0,0.0,0.0,0.0,0.0,0.0,0.0,0.0,0.0,0.0,0.0,0.0,0.0,0.0,0.0,0.0,0.0,0.0,0.0,0.0,0.0,0.0,0.0,0.0,0.0,0.0,0.0,0.0,0.0,0.0,0.0,0.0,0.0,0.0,0.0,0.0,0.0,0.0,0.0,0.0,0.0,0.0,0.0,0.0,0.0,0.0,0.0,0.0,0.0,0.0,0.0,0.0,0.0,0.0,0.0,0.0,0.0,0.0,0.0,0.0,0.0,0.0,0.0,0.0,0.0,0.0,0.0,0.0,0.0,0.0,0.0,0.0,0.0,0.0,0.0,0.0,0.0,0.0,0.0,0.0,0.0,0.0,0.0,0.0,0.0,0.0,0.0,0.0,0.0,0.0,0.0,0.0,0.0,0.0,0.0,0.0,0.0,0.0,0.0,0.0,0.0,0.0,0.0,0.0,0.0,0.0,0.0,0.0,0.0,0.0,0.0,0.0,0.0,0.0,0.0,0.0,0.0,0.0,0.0,0.0,0.0,0.0,0.0,0.0,0.0,0.0,0.0,0.0,0.0,0.0,0.0,0.0,0.0,0.0,0.0,0.0,0.0,0.0,0.0,0.0,0.0,0.0,0.0,0.0,0.0,0.0,0.0,0.0,0.0,0.0,0.0,0.0,0.0,0.0,0.0,0.0,0.0,0.0,0.0,0.0,0.0,0.0,0.0,0.0,0.0,0.0,0.0,0.0,0.0,0.0,0.0,0.0,0.0,0.0,0.0,0.0,0.0,0.0,0.0,0.0,0.0,0.0,0.0,0.0,0.0,0.0,0.0,0.0,0.0,0.0,0.0,0.0,0.0,0.0,0.0,0.0,0.0,0.0,0.0,0.0,0.0,0.0,0.0,0.0,0.0,0.0,0.0,0.0,0.0,0.0,0.0,0.0,0.0,0.0,0.0,0.0,0.0,0.0,0.0,0.0,0.0,0.0,0.0,0.0,0.0,0.0,0.0,0.0,0.0,0.0,0.0,0.0,0.0,0.0,0.0,0.0,0.0,0.0,0.0,0.0,0.0,0.0,0.0,0.0,0.0,0.0,0.0,0.0,0.0,0.0,0.0,0.0,0.0,0.0,0.0,0.0,0.0,0.0,0.0,0.0,0.0,0.0,0.0,0.0,0.0,0.0,0.0,0.0,0.0,0.0,0.0,0.0,0.0,0.0,0.0,0.0,0.0,0.0,0.0,0.0,0.0,0.0,0.0,0.0,0.0,0.0,0.0,0.0,0.0,0.0,0.0,0.0,0.0,0.0,0.0,0.0,0.0,0.0,0.0,0.0,0.0,0.0,0.0,0.0,0.0,0.0,0.0,0.0,0.0,0.0,0.0,0.0,0.0,0.0,0.0,0.0,0.0,0.0,0.0,0.0,0.0,0.0,0.0,0.0,0.0,0.0,0.0,0.0,0.0,0.0,0.0,0.0,0.0,0.0,0.0,0.0,0.0,0.0,0.0,0.0,0.0,0.0,0.0,0.0,0.0,0.0,0.0,0.0,0.0,0.0,0.0,0.0,0.0,0.0,0.0,0.0,0.0,0.0,0.0,0.0,0.0,0.0,0.0,0.0,0.0,0.0,0.0,0.0,0.0,0.0,0.0,0.0,0.0,0.0,0.0,0.0,0.0,0.0,0.0,0.0,0.0,0.0,0.0,0.0,0.0,0.0,0.0,0.0,0.0,0.0,0.0,0.0,0.0,0.0,0.0,0.0,0.0,0.0,0.0,0.0,0.0,0.0,0.0,0.0,0.0,0.0,0.0,0.0,0.0,0.0,0.0,0.0,0.0,0.0,0.0,0.0,0.0,0.0,0.0,0.0,0.0,0.0,0.0,0.0,0.0,0.0,0.0,0.0,0.0,0.0,0.0,0.0,0.0,0.0,0.0,0.0,0.0,-1.1036,-1.0129,0.0,0.0,0.0,0.0,0.0,0.0,0.0,0.0,0.0,0.0,0.0,0.0,0.0,0.0,0.0,0.0,0.0,0.0,0.0,0.0,0.0,0.0,0.0,-0.671,-0.6668,-0.6546,-0.6411,0.0,0.0,0.0,0.0,0.0,0.0,0.0,0.0,0.0,-1.0507,-1.056,-1.095,-1.1961,-1.3463,-1.2939,-1.1777,-1.0094,0.0,0.0,0.0,0.0,0.0,0.0,0.0,0.0,0.0,0.0,0.0,0.0,0.0,0.0,0.0,0.0,0.0,0.0,0.0,0.0,0.0,0.0,0.0,0.0,0.0,0.0,0.0,0.0,0.0,0.0,0.0,0.0,0.0,0.0,0.0,0.0,0.0,0.0,0.0,0.0,0.0,0.0,0.0,0.0,0.0,0.0,0.0,0.0,0.0,0.0,0.0,0.0,0.0,0.0,0.0,0.0,0.0,0.0,0.0,0.0,0.0,0.0,0.0,0.0,0.0,0.0,0.0,0.0,0.0,0.0,-1.1905,-1.1212,0.0,0.0,0.0,0.0,0.0,0.0,0.0,0.0,0.0,0.0,0.0,0.0,0.0,0.0,0.0,0.0,0.0,0.0,0.0,0.0,0.0,-0.6952,-0.7504,-0.7264,-0.7286,-0.7838,-0.8158,-0.8145,-0.7757,-0.8095,0.0,0.0,0.0,0.0,-1.0442,-1.0842,-1.1411,-1.2142,-1.3276,-1.4375,-1.5397,-1.5332,-1.3853,-1.1257,-1.0835,0.0,0.0,0.0,0.0,0.0,0.0,0.0,0.0,0.0,0.0,0.0,0.0,0.0,0.0,0.0,0.0,0.0,0.0,0.0,0.0,0.0,0.0,0.0,0.0,0.0,0.0,0.0,0.0,0.0,0.0,0.0,0.0,0.0,0.0,0.0,0.0,0.0,0.0,0.0,0.0,0.0,0.0,0.0,0.0,0.0,0.0,0.0,0.0,0.0,0.0,0.0,0.0,0.0,0.0,0.0,0.0,0.0,0.0,0.0,0.0,0.0,0.0,0.0,-1.3025,-1.2843,-1.2432,-1.2772,-1.2792,-1.2591,-1.2507,-1.2254,-1.1903,-1.2112,0.0,0.0,0.0,0.0,0.0,0.0,0.0,0.0,0.0,0.0,0.0,0.0,0.0,0.0,0.0,0.0,0.0,0.0,0.0,-0.8789,-0.9381,-0.9852,-1.0354,-1.0949,-1.0123,-0.9747,-1.0191,-0.9814,0.0,0.0,0.0,0.0,-1.107,-1.1758,-1.2566,-1.355,-1.4833,-1.5338,-1.5064,-1.4655,-1.3985,-1.3168,-1.3791,-1.3594,-1.2762,0.0,0.0,0.0,0.0,0.0,0.0,0.0,0.0,0.0,0.0,0.0,0.0,0.0,0.0,0.0,0.0,0.0,0.0,0.0,0.0,0.0,0.0,0.0,0.0,0.0,0.0,0.0,0.0,0.0,0.0,0.0,0.0,0.0,0.0,0.0,0.0,0.0,0.0,0.0,0.0,0.0,-0.9252,-0.9277,0.0,0.0,0.0,0.0,0.0,0.0,0.0,0.0,0.0,0.0,0.0,0.0,0.0,-1.2823,-1.2331,-1.3225,-1.3362,-1.2837,-1.3122,-1.2833,-1.2075,-1.2406,-1.2398,-1.2109,-1.2384,0.0,-1.2579,-1.2621,0.0,0.0,0.0,0.0,0.0,0.0,0.0,0.0,0.0,0.0,0.0,0.0,0.0,0.0,0.0,0.0,0.0,0.0,0.0,0.0,0.0,-1.1619,-1.2044,-1.3863,-1.298,-1.2389,-1.2538,-1.1773,0.0,0.0,0.0,-1.2811,-1.371,-1.3705,-1.3972,-1.4477,-1.5753,-1.6351,-1.6355,-1.6438,-1.6376,-1.616,-1.6502,-1.5314,-1.3083,-1.348,0.0,0.0,0.0,0.0,0.0,0.0,0.0,0.0,0.0,0.0,0.0,0.0,0.0,0.0,0.0,0.0,0.0,0.0,0.0,0.0,0.0,0.0,0.0,0.0,0.0,0.0,0.0,0.0,0.0,0.0,0.0,0.0,0.0,0.0,0.0,0.0,0.0,0.0,0.0,-0.9664,-0.9665,-1.0225,-1.0295,-1.0359,0.0,0.0,0.0,0.0,0.0,0.0,0.0,0.0,0.0,-1.2816,-1.3195,-1.3245,-1.2965,-1.3313,-1.3221,-1.2627,-1.2767,-1.2652,-1.228,-1.2419,-1.2412,-1.228,-1.2426,-1.2519,-1.2605,-1.2803,-1.3179,-1.3739,0.0,0.0,0.0,0.0,-1.5465,-1.5342,0.0,0.0,0.0,0.0,0.0,0.0,0.0,0.0,0.0,0.0,0.0,0.0,-1.3375,-1.2955,-1.3485,-1.5912,-1.5153,-1.4573,-1.4704,-1.3951,-1.3967,-1.5027,-1.4153,-1.4333,-1.5845,-1.5473,-1.5335,-1.5547,-1.6636,-1.7315,-1.7616,-1.7881,-1.7929,-1.7808,-1.8085,-1.6522,-1.3763,-1.4782,-1.4541,-1.3456,0.0,0.0,0.0,0.0,0.0,0.0,0.0,0.0,0.0,0.0,0.0,0.0,0.0,0.0,0.0,0.0,0.0,0.0,0.0,0.0,0.0,0.0,0.0,0.0,0.0,0.0,0.0,0.0,0.0,0.0,0.0,0.0,0.0,0.0,0.0,0.0,0.0,-1.0437,-1.0467,-1.1312,-1.1479,-1.1598,0.0,0.0,0.0,0.0,0.0,0.0,-1.2528,-1.2458,-1.2699,-1.3337,-1.3429,-1.3322,-1.31,-1.3217,-1.3066,-1.2616,-1.2696,-1.2696,-1.2616,-1.2616,-1.2565,-1.2485,-1.2485,-1.2536,-1.2655,-1.2806,-1.3118,-1.3555,-1.4313,-1.4638,-1.4706,-1.5265,-1.5508,-1.5613,0.0,0.0,0.0,0.0,0.0,0.0,0.0,0.0,0.0,0.0,0.0,-1.276,-1.3008,-1.3891,-1.5091,-1.6618,-1.5761,-1.5582,-1.6604,-1.6362,-1.6358,-1.6658,-1.5845,-1.5679,-1.6349,-1.6464,-1.6659,-1.7,-1.7763,-1.8133,-1.8157,-1.7676,-1.7159,-1.6727,-1.776,-1.7544,-1.6379,-1.5936,-1.5708,-1.5574,-1.4594,0.0,0.0,0.0,0.0,0.0,0.0,0.0,0.0,0.0,0.0,0.0,0.0,0.0,0.0,0.0,0.0,0.0,0.0,0.0,0.0,0.0,0.0,0.0,0.0,0.0,0.0,0.0,0.0,0.0,0.0,0.0,0.0,0.0,0.0,0.0,0.0,0.0,0.0,-1.2463,-1.2813,0.0,0.0,0.0,0.0,-1.3645,-1.2796,-1.2543,-1.3204,-1.2874,-1.2806,-1.3029,-1.3227,-1.3071,-1.2548,-1.3071,-1.3177,-1.2987,-1.3294,-1.3287,-1.2987,-1.2987,-1.2811,-1.2485,-1.2485,-1.2694,-1.2958,-1.2662,-1.2526,-1.263,-1.3441,-1.3307,-1.2878,-1.4927,-1.5523,-1.552,0.0,0.0,0.0,-0.7986,-0.7953,-0.8404,-0.9844,-1.039,-1.0731,-1.0987,-1.2204,-1.3629,-1.5147,-1.5773,-1.6877,-1.8872,-1.7683,-1.6848,-1.6923,-1.7534,-1.7716,-1.7333,-1.8045,-1.8235,-1.7747,-1.721,-1.6871,-1.6768,-1.7388,-1.77,-1.7712,-1.8205,-1.8326,-1.8157,-1.8542,-1.8121,-1.7135,-1.7664,-1.7255,-1.6272,-1.5787,-1.4844,0.0,0.0,0.0,0.0,0.0,0.0,0.0,0.0,0.0,0.0,0.0,0.0,0.0,0.0,0.0,0.0,0.0,0.0,0.0,0.0,0.0,0.0,0.0,0.0,0.0,0.0,0.0,0.0,0.0,0.0,0.0,0.0,0.0,0.0,0.0,0.0,0.0,-1.2606,-1.3267,0.0,-1.4093,-1.368,-1.3534,-1.3827,-1.3335,-1.3006,-1.2987,-1.2829,-1.2843,-1.3001,-1.3079,-1.3027,-1.2833,-1.302,-1.2976,-1.2694,-1.2811,-1.2777,-1.2694,-1.2694,-1.2594,-1.2485,-1.2485,-1.2584,-1.2653,-1.2536,-1.2733,-1.3183,-1.3467,-1.3698,-1.3987,-1.5257,-1.5974,-1.6421,0.0,0.0,0.0,-0.9287,-0.8992,-0.9245,-1.0836,-1.1099,-1.1346,-1.203,-1.3128,-1.4598,-1.6582,-1.7245,-1.8238,-1.9977,-1.8934,-1.816,-1.8127,-1.881,-1.9097,-1.8835,-1.9394,-1.9177,-1.8027,-1.7481,-1.7214,-1.7195,-1.7713,-1.7966,-1.8015,-1.8688,-1.8987,-1.8987,-1.8987,-1.8602,-1.7989,-1.8698,-1.8181,-1.6871,-1.6717,-1.59,-1.4669,0.0,0.0,0.0,0.0,0.0,0.0,0.0,0.0,0.0,0.0,0.0,0.0,0.0,0.0,0.0,0.0,0.0,0.0,0.0,0.0,0.0,0.0,0.0,0.0,0.0,0.0,0.0,0.0,0.0,0.0,0.0,0.0,0.0,0.0,-1.3472,-1.3314,-1.2829,-1.3449,-1.3934,-1.3934,-1.3719,-1.366,-1.3843,-1.361,-1.3336,-1.3167,-1.3063,-1.3038,-1.3001,-1.3009,-1.2958,-1.2848,-1.295,-1.2899,-1.2653,-1.2797,-1.2906,-1.3016,-1.3016,-1.3075,-1.3177,-1.3446,-1.358,-1.3615,-1.3897,-1.4268,-1.4605,-1.3869,-1.41,-1.492,-1.5653,-1.6364,-1.6954,0.0,0.0,-0.9515,-0.9861,-0.927,-0.951,-1.1823,-1.1575,-1.1832,-1.3827,-1.47,-1.565,-1.7035,-1.8183,-1.9089,-1.9704,-1.9355,-1.9426,-2.0161,-2.0294,-2.0595,-2.1167,-1.9822,-1.8409,-1.708,-1.7302,-1.7762,-1.8409,-1.8789,-1.9054,-1.9172,-1.904,-1.8987,-1.8987,-1.8987,-1.8987,-1.8963,-1.8987,-1.8386,-1.7411,-1.7411,-1.7003,-1.6138,0.0,0.0,0.0,0.0,0.0,0.0,0.0,0.0,0.0,0.0,0.0,0.0,0.0,0.0,0.0,0.0,0.0,0.0,0.0,0.0,0.0,0.0,0.0,0.0,0.0,0.0,0.0,0.0,0.0,0.0,0.0,0.0,0.0,-1.3972,-1.4065,-1.3929,-1.3204,-1.3394,-1.3584,-1.36,-1.3618,-1.366,-1.3793,-1.3623,-1.3593,-1.3781,-1.3579,-1.3323,-1.3016,-1.3009,-1.2862,-1.2521,-1.2877,-1.3038,-1.3038,-1.3367,-1.3689,-1.4034,-1.4034,-1.4203,-1.4582,-1.535,-1.5718,-1.5795,-1.667,-1.7009,-1.6834,-1.4665,-1.4429,-1.5444,-1.6169,-1.6634,-1.697,-1.0444,-0.986,-0.9664,-1.0473,-1.004,-1.0051,-1.1481,-1.1526,-1.1918,-1.3401,-1.4949,-1.6158,-1.6827,-1.8619,-1.9423,-1.8637,-1.8974,-1.901,-1.8447,-2.0244,-2.1314,-2.1332,-2.0402,-1.9428,-1.8458,-1.824,-1.8213,-1.8409,-1.8504,-1.8538,-1.8485,-1.8845,-1.8987,-1.8987,-1.8987,-1.877,-1.8446,-1.8819,-1.8602,-1.7989,-1.7989,-1.7627,-1.7027,0.0,0.0,0.0,0.0,0.0,0.0,0.0,0.0,0.0,0.0,0.0,0.0,0.0,0.0,0.0,0.0,0.0,0.0,0.0,0.0,0.0,0.0,0.0,0.0,0.0,0.0,0.0,0.0,0.0,0.0,0.0,-1.6806,-1.6999,-1.5414,-1.4581,-1.3962,-1.3506,-1.3529,-1.3688,-1.3942,-1.3735,-1.3694,-1.3877,-1.3587,-1.3392,-1.3313,-1.3107,-1.3071,-1.3219,-1.3079,-1.3075,-1.3228,-1.355,-1.3718,-1.3718,-1.4048,-1.4291,-1.4372,-1.4372,-1.4718,-1.5389,-1.5604,-1.6054,-1.667,-1.6896,-1.7327,-1.7748,-1.656,-1.6274,-1.659,-1.7044,-1.7242,-1.7297,-1.0759,-1.0278,-1.0157,-1.1258,-1.0895,-1.0814,-1.193,-1.1878,-1.242,-1.4436,-1.5652,-1.6663,-1.7534,-1.9113,-1.9712,-1.8723,-1.9171,-1.937,-1.9061,-2.0325,-2.1077,-2.1153,-2.0067,-1.9244,-1.8846,-1.8534,-1.8446,-1.8471,-1.8589,-1.8633,-1.8632,-1.8869,-1.8987,-1.8987,-1.8987,-1.8819,-1.8554,-1.8855,-1.8819,-1.853,-1.853,-1.8217,-1.7676,-1.7038,-1.6139,-1.5176,-1.4982,-1.425,-1.3521,-1.4471,0.0,0.0,0.0,0.0,0.0,0.0,0.0,0.0,0.0,0.0,0.0,0.0,0.0,0.0,0.0,0.0,0.0,0.0,0.0,0.0,0.0,0.0,0.0,0.0,-1.7287,-1.7388,-1.6243,-1.5473,-1.4774,-1.4115,-1.3776,-1.3697,-1.387,-1.3703,-1.3694,-1.3947,-1.3729,-1.3579,-1.3658,-1.345,-1.3402,-1.3499,-1.3533,-1.3579,-1.3697,-1.4026,-1.4225,-1.4225,-1.4416,-1.4577,-1.467,-1.467,-1.5006,-1.5588,-1.5968,-1.6589,-1.7437,-1.7588,-1.8279,0.0,0.0,0.0,0.0,0.0,-1.8241,-1.8154,-1.1194,-1.087,-1.0849,-1.191,-1.1596,-1.1558,-1.2625,-1.2349,-1.3055,-1.5994,-1.651,-1.7144,-1.8573,-1.9614,-1.9958,-1.9371,-1.9766,-2.0337,-2.1028,-2.0615,-2.0448,-2.0633,-1.9435,-1.8736,-1.8697,-1.8696,-1.8683,-1.8682,-1.8967,-1.9131,-1.9249,-1.9131,-1.9093,-1.9119,-1.9093,-1.9066,-1.9066,-1.9013,-1.8987,-1.8987,-1.8987,-1.871,-1.8156,-1.7087,-1.6197,-1.5418,-1.4778,-1.4027,-1.351,-1.4484,0.0,0.0,0.0,0.0,0.0,0.0,0.0,0.0,0.0,0.0,0.0,0.0,0.0,0.0,0.0,0.0,0.0,0.0,0.0,0.0,0.0,0.0,0.0,0.0,-1.713,-1.6733,-1.6733,-1.6508,-1.5915,-1.4732,-1.4073,-1.37,-1.3673,-1.3648,-1.3791,-1.414,-1.3991,-1.4061,-1.441,-1.4276,0.0,0.0,0.0,-1.4268,-1.4109,-1.4401,-1.4562,-1.4562,-1.4599,-1.4721,-1.4958,-1.4958,-1.5234,-1.5748,-1.6501,-1.7366,-1.8223,-1.8602,-1.942,-2.0313,-1.892,-1.8776,-1.9287,-1.9287,-1.9258,-1.916,-1.0665,-1.0917,-1.1244,-1.1377,-1.1296,-1.1424,-1.2062,-1.2067,-1.2889,-1.5374,-1.6642,-1.756,-1.8238,-1.9822,-2.0307,-1.9036,-2.0549,-2.1707,-2.2025,-2.1597,-2.0851,-1.9799,-2.0546,-2.0489,-1.9436,-2.0033,-1.9978,-1.9247,-1.9503,-1.9604,-1.9512,-1.9512,-1.9668,-1.9952,-1.9642,-1.9486,-1.9448,-1.9146,-1.8987,-1.8987,-1.8987,-1.8927,-1.8819,-1.8576,-1.8001,-1.7297,-1.7315,-1.6851,-1.6324,-1.7055,-1.6443,-1.5407,-1.5495,-1.4886,0.0,0.0,0.0,0.0,0.0,0.0,0.0,0.0,0.0,0.0,0.0,0.0,0.0,0.0,0.0,0.0,0.0,0.0,0.0,-1.7311,-1.741,-1.7502,-1.7502,-1.703,-1.6181,-1.4763,-1.4534,-1.4363,-1.4016,-1.4013,-1.4156,-1.4478,-1.4466,-1.4498,-1.4569,-1.4691,-1.4737,-1.4708,-1.4683,-1.4665,-1.4665,-1.4764,-1.4812,-1.4812,0.0,0.0,-1.5294,-1.5294,-1.6093,-1.7521,-1.7674,-1.8422,-1.9526,-1.9601,-1.9616,-1.9551,-1.9577,-1.9469,-1.9287,-1.9287,-1.9062,-1.8763,-1.1526,-1.1431,-1.1507,-1.1794,-1.1847,-1.1943,-1.2205,-1.2257,-1.301,-1.5084,-1.6398,-1.7295,-1.7658,-1.9406,-2.0211,-1.9366,-2.114,-2.2331,-2.244,-2.1403,-2.0751,-2.0662,-2.063,-2.0509,-2.0287,-2.0626,-2.051,-1.9901,-1.9965,-1.9965,-1.9901,-1.9682,-1.972,-1.9888,-1.9486,-1.9408,-1.9552,-1.9172,-1.9225,-1.9565,-1.9172,-1.9119,-1.9277,-1.9066,-1.8567,-1.7954,-1.8047,-1.751,-1.6848,-1.7444,-1.6983,-1.6193,-1.6481,-1.5891,-1.4993,0.0,0.0,0.0,0.0,0.0,0.0,0.0,0.0,0.0,0.0,0.0,0.0,0.0,0.0,-1.6917,-1.7375,0.0,-1.7656,-1.7188,-1.7429,-1.7626,-1.7389,-1.7481,-1.7044,-1.5561,-1.5139,-1.479,-1.4374,-1.4344,-1.4415,-1.4589,-1.4771,-1.5085,-1.5468,-1.5786,-1.5909,-1.5796,-1.5946,-1.574,-1.5206,-1.5378,-1.5509,-1.5509,-1.607,-1.6345,-1.6345,-1.6706,-1.735,-1.8132,-1.784,-1.8278,-1.9288,-1.9501,-1.9228,-1.8691,-1.9075,-1.9277,-1.9287,-1.9287,-1.9287,-1.9277,-1.2505,-1.2015,-1.1794,-1.2394,-1.2505,-1.2505,-1.2505,-1.2505,-1.3104,-1.4772,-1.5846,-1.6622,-1.7027,-1.8695,-1.9836,-2.0013,-2.1642,-2.2581,-2.2443,-2.1135,-2.0759,-2.1546,-2.0605,-2.0366,-2.1011,-2.1097,-2.0919,-2.0498,-2.0422,-2.0372,-2.0296,-1.9991,-1.9862,-1.9939,-1.9526,-1.9526,-1.9811,-1.933,-1.9539,-2.0131,-1.933,-1.9303,-1.9668,-1.9277,-1.8721,-1.8193,-1.8247,-1.7675,-1.6953,-1.7319,-1.7186,-1.6856,-1.7203,-1.6743,-1.612,-1.6265,-1.5796,0.0,0.0,0.0,0.0,0.0,0.0,0.0,0.0,-1.6136,-1.6388,-1.7119,-1.7511,-1.7728,-1.7709,-1.7708,-1.7603,-1.7192,-1.7389,-1.7502,-1.7296,-1.7916,-1.794,-1.6693,-1.6064,-1.548,-1.4754,-1.4814,-1.4912,-1.4912,-1.5198,-1.5746,-1.6557,-1.6907,-1.7041,-1.6951,-1.7252,-1.7019,-1.6119,-1.6434,-1.6607,-1.6599,-1.7155,-1.7428,-1.7428,-1.7831,-1.8154,-1.8263,-1.7846,-1.7993,-1.861,-1.8918,-1.8633,-1.8047,-1.8344,-1.8695,-1.9053,-1.9131,-1.9377,-1.9709,-1.2505,-1.2426,-1.2394,-1.2489,-1.2505,-1.2505,-1.2505,-1.2505,-1.2916,-1.4071,-1.4855,-1.5625,-1.6481,-1.7773,-1.9196,-2.0721,-2.2084,-2.2552,-2.1858,-2.1787,-2.1492,-2.0862,-2.142,-2.1547,-2.1201,-2.1981,-2.1851,-2.0746,-2.0993,-2.0968,-2.0734,-2.0684,-2.0858,-2.1191,-2.0784,-2.0622,-2.0635,-1.9862,-1.9798,-2.0131,-1.933,-1.9448,-2.0105,-1.9694,-1.9107,-1.8587,-1.8801,-1.8647,-1.8267,-1.8081,-1.7977,-1.7834,-1.744,-1.723,-1.7252,-1.7847,-1.6924,-1.5825,-1.631,-1.6254,-1.6297,-1.7066,-1.7544,-1.7941,0.0,-1.7904,-1.7348,-1.8071,-1.7636,-1.7213,-1.7626,-1.7368,-1.7233,-1.7564,-1.7327,-1.7347,-1.8123,-1.8319,-1.8267,-1.7852,-1.7721,-1.6977,-1.5215,-1.5657,-1.6019,-1.6019,-1.6064,-1.6466,-1.7341,-1.737,-1.7524,-1.7924,-1.8087,-1.813,-1.8015,-1.8219,-1.8324,-1.8324,-1.7974,-1.7847,-1.783,-1.7362,-1.7563,-1.8304,-1.8415,-1.853,-1.8563,-1.8251,-1.8096,-1.8018,-1.8057,-1.8105,-1.8203,-1.8539,-1.8802,-1.906,-1.2505,-1.2505,-1.2505,-1.2505,-1.2505,-1.2505,-1.2505,-1.2505,-1.2795,-1.364,-1.4208,-1.4844,-1.5711,-1.7397,-1.8861,-1.9817,-2.1423,-2.2077,-2.1347,-2.1729,-2.183,-2.147,-2.1439,-2.1413,-2.1443,-2.1802,-2.1888,-2.1612,-2.1732,-2.1732,-2.1612,-2.1213,-2.1115,-2.1275,-2.0709,-2.0585,-2.0746,-2.0195,-2.0321,-2.0822,-2.0016,-2.0042,-2.051,-2.0093,-1.963,-1.9235,-1.9711,-1.94,0.0,-1.8669,-1.84,-1.8023,-1.7451,-1.7507,-1.7843,-1.8197,-1.7764,-1.7212,-1.7562,-1.7511,-1.7479,-1.7824,-1.7751,-1.7681,-1.7947,-1.7612,-1.7392,-1.7895,-1.7678,-1.7389,-1.7316,-1.7368,-1.7389,-1.7316,-1.7575,-1.7947,-1.833,-1.8642,-1.8616,-1.8051,-1.8375,-1.7968,-1.6316,-1.6444,-1.6615,-1.6615,-1.6791,-1.7285,-1.8161,-1.8347,-1.8529,-1.8737,-1.8797,-1.8592,-1.8066,-1.8143,-1.8177,-1.8215,-1.8498,-1.8648,-1.8676,-1.8766,-1.8795,-1.8825,-1.8897,-1.875,-1.8424,-1.8315,-1.8245,-1.8178,-1.8245,-1.8279,-1.8299,-1.8375,-1.862,-1.8968,-1.2505,-1.2505,-1.2505,-1.2505,-1.2505,-1.2505,-1.2505,-1.2505,-1.2662,-1.3162,-1.3477,-1.4003,-1.4859,-1.6804,-1.8051,-1.8101,-2.0211,-2.1239,-2.0524,-2.1249,-2.1801,-2.1989,-2.1525,-2.1325,-2.1442,-2.1778,-2.1981,-2.2024,-2.2216,-2.2278,-2.2184,-2.1636,-2.1358,-2.1334,-2.0797,-2.0684,-2.0932,-2.0548,-2.0772,-2.1313,-2.0523,-2.0523,-2.0932,-2.0523,-2.022,-2.0093,-2.0408,-1.9966,-1.9245,-1.9451,-1.9108,-1.8494,-1.8123,-1.8267,-1.8627,-1.8883,-1.8681,-1.8398,-1.8515,-1.8335,-1.8094,-1.8185,-1.7859,-1.7508,-1.7353,-1.7332,-1.7364,-1.7461,-1.7513,-1.7368,-1.6913,-1.7203,-1.7451,-1.7234,-1.7874,-1.8455,-1.8579,-1.8891,-1.8898,-1.8385,-1.8754,-1.8687,-1.7619,-1.7377,-1.7311,-1.7311,-1.7527,-1.8081,-1.8964,-1.9118,-1.9215,-1.937,-1.938,-1.9046,-1.8429,-1.8533,-1.859,-1.859,-1.9104,-1.938,-1.938,-1.9747,-1.9753,-1.9394,-1.9394,-1.9133,-1.8764,-1.8843,-1.8833,-1.8764,-1.8843,-1.8823,-1.8724,-1.8655,-1.8706,-1.8814,-1.2505,-1.2505,-1.2505,-1.2505,-1.2505,-1.2505,-1.2505,-1.2505,-1.2505,-1.252,-1.2542,-1.2942,-1.4024,-1.5758,-1.6518,-1.5684,-1.8588,-2.0088,-1.9222,-2.032,-2.1322,-2.196,-2.1975,-2.167,-2.1032,-2.2221,-2.2457,-2.1611,-2.2269,-2.244,-2.2184,-2.1912,-2.1769,-2.1769,-2.1496,-2.1375,-2.135,-2.0957,-2.1006,-2.1313,-2.0523,-2.0673,-2.1337,-2.0932,-2.0932,-2.1106,-2.0736,-2.0245,-1.9886,-2.0596,-2.0354,-1.9757,-1.9743,-1.9736,-1.9846,-2.0466,-1.9906,-1.9042,-1.9011,-1.8267,-1.7626,-1.8073,-1.827,-1.8226,-1.7781,-1.7678,-1.7564,-1.712,-1.7027,-1.6903,-1.6477,-1.6738,-1.7182,-1.7606,-1.8092,-1.8569,-1.9015,-1.9098,-1.9098,-1.9075,-1.9108,-1.9065,-1.9031,-1.8628,-1.836,-1.836,-1.8348,-1.8773,-1.9717,-1.9344,-1.9313,-1.9768,-1.9779,-1.9779,-1.9744,-2.0143,-2.0313,-2.0303,-1.9951,-1.9779,-1.9779,-1.9616,-1.9666,-1.9863,-1.9863,-1.9853,-1.9843,-1.9843,-1.9843,-1.9843,-1.9843,-1.9603,-1.9298,-1.9507,-1.9132,-1.849,-1.2505,-1.2505,-1.2505,-1.2505,-1.2505,-1.2505,-1.2505,-1.2505,-1.2505,-1.2505,-1.2894,0.0,0.0,0.0,0.0,0.0,-1.6735,-1.7878,-1.803,-1.9118,-2.0219,-2.1278,-2.1336,-2.1438,-2.1656,-2.2091,-2.2366,-2.2457,-2.2696,-2.2752,-2.2661,-2.244,-2.2324,-2.2301,-2.1864,-2.1688,-2.1626,-2.1337,-2.1288,-2.1375,-2.1106,-2.1166,-2.148,-2.2128,-2.1889,-2.1365,0.0,-2.1877,-2.0577,-2.082,-2.0407,-1.9884,-2.0275,-2.0639,-2.0961,-2.1179,-2.0721,-1.9959,-1.9097,-1.8463,-1.8054,-1.8153,-1.8071,-1.7802,-1.7347,-1.7244,-1.712,-1.6694,-1.681,-1.6965,-1.682,-1.7429,-1.7978,-1.8133,-1.8569,-1.8922,-1.9088,-1.9108,-1.9108,-1.9108,-1.9108,-1.9108,-1.9108,-1.8963,-1.887,-1.887,-1.887,-1.9005,-1.9316,-1.9191,-1.917,-1.9326,-1.9336,-1.9336,-1.9336,-1.9482,-1.953,-1.953,-1.972,-1.9948,-2.0203,-2.0133,-2.0144,-2.0242,-2.0242,-2.0181,-2.0129,-2.0216,-2.0181,-2.0083,-1.9986,-1.99,-1.9716,-1.9402,-1.913,-1.8864,-1.2616,-1.2548,-1.2505,-1.2505,-1.2505,0.0,0.0,0.0,0.0,0.0,0.0,0.0,0.0,0.0,0.0,0.0,0.0,-1.6189,-1.6514,-1.778,-1.9111,-2.0376,-2.0593,-2.0933,-2.1445,-2.1693,-2.2111,-2.2732,-2.2732,-2.2921,-2.3258,-2.2807,-2.2615,-2.2578,-2.2137,-2.1902,-2.1793,-2.1616,-2.1741,-2.1995,-2.1345,-2.1209,-2.1412,-2.1586,-2.1215,0.0,-2.2079,-2.1849,-2.102,-2.168,-2.1119,-2.0296,-2.1287,-2.1564,-2.1544,-2.1772,-2.1009,-1.9956,-1.9307,-1.8616,-1.8068,-1.8051,-1.7846,-1.7519,-1.7049,-1.6944,-1.6861,-1.6608,-1.6717,-1.6857,-1.6857,-1.7563,-1.8195,-1.8383,-1.8942,-1.9347,-1.9347,-1.9347,-1.9295,-1.9119,-1.9108,-1.9108,-1.9108,-1.9108,-1.9108,-1.9108,-1.9108,-1.9108,-1.9108,-1.9108,-1.9108,-1.9108,-1.9108,-1.9108,-1.9108,-1.9108,-1.9181,-1.9357,-1.9813,-2.0234,-2.0633,-2.0633,-2.0726,-2.0881,-2.0881,-2.0855,-2.0792,-2.0844,-2.0855,-2.0755,-2.0693,-2.0626,-2.0616,-2.0222,-2.0064,-1.9974,-1.2804,-1.2639,-1.2524,0.0,0.0,0.0,0.0,0.0,0.0,0.0,0.0,0.0,0.0,0.0,0.0,0.0,0.0,0.0,-1.4786,-1.6396,-1.7941,-1.9207,-1.9743,-2.0104,-2.0347,-2.0985,-2.1584,-2.223,-2.2185,-2.2672,-2.3632,-2.2752,-2.238,-2.2437,-2.2121,-2.1881,-2.1726,-2.1651,-2.2144,-2.2833,-2.1084,-2.0745,-2.1111,-1.9491,-1.9233,-1.9714,-1.9795,-2.0314,-2.1221,-2.2951,-2.23,-2.1053,-2.2662,-2.2452,-2.1693,-2.2242,-2.0801,-1.9123,-1.9552,-1.872,-1.773,-1.7741,-1.7605,-1.7342,-1.6885,-1.6828,-1.685,-1.685,-1.6768,-1.6714,-1.6746,-1.7292,-1.7915,-1.8414,-1.9202,-1.9761,-1.9761,-1.9761,-1.9596,-1.915,-1.9088,-1.9077,-1.9108,-1.9088,-1.9077,-1.9108,-1.9108,-1.9108,-1.9108,-1.9108,-1.9108,-1.9108,-1.9108,-1.9108,-1.9108,-1.9129,-1.9388,-1.9865,-2.0255,-2.0664,-2.1155,-2.1155,-2.1393,-2.1807,-2.1807,-2.1807,-2.1807,-2.1807,-2.1807,-2.1807,-2.1807,-2.1807,-2.1807,-2.1807,-2.1799,-2.1565,0.0,0.0,0.0,0.0,0.0,0.0,0.0,0.0,0.0,0.0,0.0,0.0,0.0,0.0,0.0,0.0,0.0,0.0,-1.4221,-1.5083,-1.6129,-1.7397,-1.8065,-1.8408,-1.8412,-1.8591,-1.8994,-1.972,-1.9173,-1.9316,-2.0087,-1.9306,-1.9513,-2.0467,-1.9392,-1.9609,-2.0694,-1.9634,-1.9482,-1.9852,-1.9155,-1.9211,-1.9783,-1.9993,-1.9895,-1.9876,-2.1179,-2.1116,-2.046,-2.0937,-2.1481,-2.2034,-2.248,-2.2675,-2.2725,-2.2483,-2.1085,-1.9523,-1.9246,-1.8541,-1.7757,-1.7307,-1.7091,-1.6967,-1.6839,-1.7073,-1.7307,-1.7307,-1.7761,-1.8301,-1.8733,-1.8762,-1.8944,-1.9569,-1.9448,-1.9285,-1.9285,-1.9285,-1.9233,-1.9119,-1.8797,-1.8725,-1.9077,-1.8787,-1.8735,-1.9077,-1.9108,-1.9108,-1.9108,-1.9108,-1.9108,-1.9108,-1.9108,-1.9108,-1.9108,-1.944,-2.0021,-2.0772,-2.0886,-2.1186,-2.1631,-2.1631,-2.1694,-2.1807,-2.1807,-2.1807,-2.1807,-2.1807,-2.1807,-2.1807,-2.1807,-2.1807,-2.1807,-2.1807,-2.1794,-2.1738,0.0,0.0,0.0,0.0,0.0,0.0,0.0,0.0,0.0,0.0,0.0,0.0,0.0,0.0,0.0,0.0,0.0,0.0,0.0,-1.3878,-1.4595,-1.5562,-1.6472,-1.7151,-1.7515,-1.7804,-1.8305,-1.8988,-1.8882,-1.9103,-1.9629,-1.9569,-1.9963,-2.0677,-1.9601,-1.9427,-1.9914,-1.9099,-1.9103,0.0,0.0,-1.8671,-1.9379,-1.8665,-1.8542,-1.8817,-1.9364,-1.9503,-1.9368,-1.9034,-2.0456,-2.2335,-2.21,-2.2387,-2.2737,-2.2164,-2.0957,-1.9618,-1.8804,-1.8294,-1.7888,-1.7536,-1.7384,-1.7327,-1.7327,-1.7682,-1.8035,-1.8035,-1.8335,-1.8828,-1.9586,-1.9282,-1.9128,-1.9712,-1.9575,-1.9336,-1.9139,-1.9285,-1.9326,-1.9129,-1.8694,-1.859,-1.9056,-1.8683,-1.86,-1.9067,-1.9108,-1.9108,-1.9108,-1.9108,-1.9108,-1.9108,-1.9108,-1.9202,-1.9409,-1.9855,-2.041,-2.1114,-2.1321,-2.1559,-2.1807,-2.1807,-2.1807,-2.1807,0.0,-2.1807,-2.1807,-2.1807,-2.1807,-2.1807,-2.1807,-2.1807,-2.1807,-2.1807,-2.1807,-2.1807,0.0,0.0,0.0,0.0,0.0,0.0,0.0,0.0,0.0,-1.3136,-1.2789,-1.2505,-1.2505,-1.2505,0.0,0.0,0.0,0.0,0.0,0.0,-1.3427,-1.3864,-1.4982,-1.5912,-1.6645,-1.7231,-1.7836,-1.8438,-1.8996,-1.9527,-2.002,-2.0546,-2.0995,-2.1299,-2.0419,-1.9702,-1.9165,-1.8936,-1.9309,-1.9845,-1.8151,-1.8137,-1.8835,0.0,-1.621,-1.7143,-1.6441,-1.7001,-1.798,-1.7463,-1.9517,-2.2179,-2.1577,-2.1917,-2.2369,-2.1697,-2.0799,-1.9783,-1.8643,-1.8282,-1.818,-1.805,-1.806,-1.8144,-1.8144,-1.86,-1.9088,-1.9166,-1.8986,-1.9138,-2.0107,-1.9415,-1.8901,-1.944,-1.9599,-1.9505,-1.9067,-1.9409,-1.9533,-1.9067,-1.8652,-1.859,-1.9056,-1.8683,-1.86,-1.9067,-1.9108,-1.9108,-1.9108,-1.9108,-1.9108,-1.9108,-1.9108,-1.9326,-1.9793,-2.0203,-2.0659,-2.1124,-2.159,-2.1807,-2.1807,-2.1807,-2.1807,-2.1807,-2.1807,-2.1807,-2.1807,-2.1807,-2.1807,-2.1807,-2.1807,-2.1807,-2.1807,-2.1807,-2.1807,-2.1807,0.0,0.0,0.0,0.0,0.0,0.0,0.0,0.0,0.0,0.0,-1.4289,-1.2505,0.0,0.0,0.0,0.0,0.0,0.0,0.0,0.0,0.0,-1.2806,-1.3523,-1.3731,-1.334,-1.345,-1.3827,-1.4491,-1.4052,-1.475,-1.645,-1.5449,-1.62,-1.8357,-1.6733,-1.6719,-1.785,-1.6953,-1.644,-1.6192,-1.5589,-1.5402,-1.5419,-1.4659,-1.4983,0.0,-1.6493,-1.6525,-1.6428,-1.7074,-1.9255,-2.1564,-2.1014,-2.1851,-2.2869,-2.1796,-2.1355,-2.0952,-1.982,-1.9174,-1.8732,-1.8219,-1.8452,-1.8828,-1.8828,-1.9925,-2.1057,-2.1582,-2.1039,-2.0852,-2.1991,-2.038,-1.9158,-1.9984,-1.9407,-1.8729,-1.8548,-1.8932,-1.9056,-1.859,-1.8465,-1.859,-1.9056,-1.8683,-1.86,-1.9067,-1.9108,-1.9108,-1.9108,-1.9108,-1.9108,-1.9108,-1.9108,-1.9326,-1.9793,-2.0203,-2.0659,-2.1124,-2.159,-2.1807,-2.1807,-2.1807,-2.1807,-2.1807,-2.1807,0.0,-2.1807,-2.1807,-2.1807,-2.1807,-2.1807,-2.1807,-2.1807,-2.1807,-2.1807,-2.1807,0.0,0.0,0.0,0.0,0.0,0.0,0.0,-1.5859,-1.6688,-1.9483,-1.8062,-1.6417,-1.5315,-1.3905,-1.302,0.0,0.0,0.0,0.0,0.0,0.0,-1.2505,-1.3146,-1.3352,-1.3036,-1.3399,-1.3557,-1.3494,0.0,-1.4442,-1.5086,-1.5106,-1.5836,-1.707,-1.5858,-1.5577,-1.599,-1.5454,-1.5077,-1.4819,-1.4617,-1.4688,-1.4843,-1.4151,-1.3998,0.0,-1.5021,-1.576,-1.6346,-1.6165,-1.8398,-2.1167,-2.0816,-2.1668,-2.274,-2.2451,-2.1942,-2.1381,-2.0839,-2.0304,-1.988,-1.982,-1.9779,-1.9732,-1.9771,-2.0541,-2.1332,-2.171,-2.1358,-2.1268,-2.2088,-2.0687,-1.9501,-1.9672,-1.9305,-1.8866,-1.8594,-1.8883,-1.9025,-1.8797,-1.8559,-1.859,-1.9056,-1.8683,-1.86,-1.9067,-1.9108,-1.9108,-1.9108,-1.9108,-1.9108,-1.9108,-1.9108,-1.9326,-1.9793,-2.0203,-2.0659,-2.1124,-2.159,-2.1807,-2.1807,-2.1807,-2.1807,-2.1807,-2.1807,-2.1807,-2.1807,-2.1807,-2.1807,-2.1807,-2.1807,-2.1807,-2.1807,-2.1807,-2.1807,-2.1807,0.0,0.0,0.0,0.0,0.0,0.0,0.0,-1.8239,-1.937,-2.2514,-2.209,-2.0731,-1.8788,-1.5931,-1.3937,0.0,0.0,0.0,0.0,0.0,0.0,0.0,0.0,0.0,-1.3289,0.0,0.0,-1.3289,-1.439,0.0,0.0,0.0,0.0,0.0,-1.5675,-1.5102,-1.46,-1.4538,-1.4401,0.0,0.0,-1.4294,-1.4489,0.0,0.0,0.0,0.0,-1.475,-1.604,-1.5269,-1.7364,-2.033,-2.052,-2.1432,-2.2532,-2.3054,-2.2583,-2.1836,-2.1712,-2.1291,-2.0947,-2.1313,-2.1021,-2.0659,-2.0708,-2.0973,-2.1288,-2.163,-2.1308,-2.1125,-2.1603,-2.0598,-1.9573,-1.9252,-1.9041,-1.8912,-1.8733,-1.8876,-1.8986,-1.8953,-1.8714,-1.8704,-1.9067,-1.8776,-1.8714,-1.9077,-1.9108,-1.9108,-1.9108,-1.9108,-1.9108,-1.9108,-1.9108,-1.9285,-1.9647,-2.0151,-2.0607,-2.0979,-2.1538,-2.1807,-2.1807,-2.1807,-2.1807,-2.1807,-2.1807,-2.1807,-2.1807,-2.1807,-2.1807,-2.1807,-2.1807,-2.1807,-2.1807,-2.1807,-2.1807,-2.1807,0.0,0.0,0.0,0.0,0.0,0.0,0.0,-1.9576,-2.1568,-2.6034,-2.4851,-2.3051,-2.1582,-1.8378,-1.5315,0.0,0.0,0.0,0.0,0.0,0.0,0.0,0.0,0.0,0.0,0.0,0.0,-1.2583,-1.271,0.0,0.0,0.0,0.0,0.0,0.0,-1.4648,-1.46,-1.46,0.0,0.0,0.0,0.0,0.0,0.0,0.0,0.0,0.0,-1.3457,-1.4159,-1.4789,-1.6351,-1.8261,-1.9777,-2.1268,-2.2574,-2.3054,-2.3117,-2.2934,-2.2436,-2.1886,-2.1448,-2.1493,-2.145,-2.1409,-2.1428,-2.1442,-2.1753,-2.2819,-2.1726,-2.0723,-2.1331,-2.0053,-1.8958,-1.9174,-1.8446,-1.8038,-1.8628,-1.8658,-1.8615,-1.8476,-1.8808,-1.9056,-1.9098,-1.9067,-1.9056,-1.9098,-1.9108,-1.9108,-1.9108,-1.9108,-1.9108,-1.9108,-1.9108,-1.9119,-1.917,-1.9996,-2.0405,-2.0467,-2.1383,-2.1807,-2.1807,-2.1807,-2.1807,-2.1807,-2.1807,-2.1807,0.0,-2.1807,-2.1807,-2.1807,-2.1807,-2.1807,-2.1807,-2.1807,-2.1807,-2.1807,0.0,0.0,0.0,0.0,0.0,0.0,-2.0418,-2.0931,-2.2747,-2.803,-2.7036,-2.5298,-2.3875,-2.133,-1.7936,-1.3494,0.0,0.0,0.0,0.0,0.0,0.0,0.0,0.0,0.0,0.0,-1.2505,-1.2505,-1.2505,0.0,0.0,0.0,0.0,0.0,0.0,-1.3336,-1.3336,-1.3336,0.0,0.0,0.0,0.0,0.0,0.0,0.0,0.0,0.0,0.0,-1.4212,-1.488,-1.6315,-1.8179,-2.016,-2.1215,-2.194,-2.301,-2.3336,-2.3375,-2.3435,-2.2743,-2.2124,-2.2446,-2.1975,-2.1438,-2.1503,-2.1179,-2.0971,-2.1167,-2.0571,-2.0025,-2.0022,-1.9317,-1.8783,-1.8928,-1.8733,-1.8739,-1.9329,-1.954,-1.9588,-1.9444,-1.9611,-1.9544,-1.9129,-1.9108,-1.9108,-1.9108,-1.9108,-1.9108,-1.9108,-1.9108,-1.9108,-1.9108,-1.9108,-1.9108,-1.9108,-1.9965,-2.0385,-2.0395,-2.1362,-2.1807,-2.1807,-2.1807,-2.1807,-2.1807,-2.1807,-2.1807,0.0,-2.1807,-2.1807,-2.1807,-2.1807,-2.1807,-2.1807,-2.1807,-2.1807,-2.1807,0.0,0.0,0.0,0.0,0.0,-1.7271,-2.1556,-2.2232,-2.385,-2.8269,-2.7768,-2.632,-2.4562,-2.2295,-1.9136,-1.4806,-1.3431,0.0,0.0,0.0,0.0,0.0,0.0,0.0,0.0,0.0,-1.2599,-1.2799,-1.2799,-1.2909,0.0,0.0,-1.312,-1.3104,0.0,0.0,0.0,0.0,0.0,0.0,0.0,0.0,0.0,0.0,0.0,0.0,0.0,0.0,0.0,0.0,0.0,-1.7753,-2.0047,-2.0863,-2.1365,-2.3215,-2.3502,-2.3354,-2.4019,-2.3422,-2.274,-2.3119,-2.2433,-2.1648,-2.1524,-2.0733,-1.994,-1.9673,-1.9382,-1.9133,-1.8866,-1.8782,-1.877,-1.8802,-1.8931,-1.9227,-1.9832,-1.9954,-2.0009,-2.0139,-2.0054,-1.9817,-1.9427,-1.9214,-1.9212,-1.9482,-1.9253,-1.917,-1.9295,-1.9316,-1.9243,-1.9108,-1.9233,-1.9316,-1.9316,-2.0172,-2.0591,-2.0602,-2.1424,-2.1807,-2.1807,-2.1807,-2.1807,-2.1807,-2.1807,-2.1807,0.0,-2.1807,-2.1807,-2.1807,-2.1807,-2.1807,-2.1807,-2.1807,-2.1807,-2.1807,0.0,0.0,0.0,0.0,0.0,0.0,-2.1583,-2.3485,-2.4993,-2.6428,-2.6665,-2.574,-2.3206,-2.0415,-1.8141,-1.6691,-1.4668,0.0,0.0,0.0,0.0,0.0,0.0,0.0,0.0,0.0,-1.283,-1.3478,-1.3478,-1.3858,-1.458,-1.458,-1.458,-1.4537,0.0,0.0,0.0,0.0,0.0,0.0,0.0,0.0,0.0,0.0,0.0,0.0,0.0,0.0,0.0,0.0,0.0,0.0,0.0,-2.0071,-2.1029,-2.3766,-2.3653,-2.288,-2.4085,-2.3811,-2.3182,-2.3182,-2.2779,-2.2231,-2.1642,-2.0154,-1.8914,-1.8901,-1.8493,-1.8106,-1.8102,-1.8533,-1.8883,-1.8799,-1.8806,-1.9073,-1.9904,-1.9555,-1.949,-2.0211,-1.9903,-1.973,-2.0049,-1.9502,-1.9448,-2.0312,-1.9572,-1.9305,-1.9761,-1.9793,-1.9575,-1.9119,-1.9554,-1.9793,-1.9793,-2.0659,-2.1104,-2.1114,-2.158,-2.1807,-2.1807,-2.1807,-2.1807,-2.1807,-2.1807,-2.1807,0.0,-2.1807,-2.1807,-2.1807,-2.1807,-2.1807,-2.1807,-2.1807,-2.1807,-2.1807,0.0,0.0,0.0,0.0,0.0,0.0,0.0,-2.0329,-2.1641,-2.3964,-2.3538,-2.3198,-2.3663,-2.116,-1.9072,-1.8124,-1.5248,0.0,0.0,0.0,0.0,0.0,0.0,0.0,0.0,-1.3178,-1.3763,-1.4944,-1.4944,-1.5055,-1.5276,-1.5276,-1.5039,-1.4584,-1.4359,-1.3968,0.0,0.0,0.0,0.0,0.0,0.0,-1.22,0.0,0.0,0.0,0.0,0.0,0.0,0.0,0.0,0.0,0.0,0.0,0.0,-2.3029,-2.3004,-2.2417,-2.311,-2.2749,-2.2167,-2.2167,-2.1406,-2.057,-2.0388,-1.9316,-1.826,-1.7942,-1.7682,-1.7506,-1.7602,-1.8027,-1.8739,-1.9902,-1.9636,-1.9668,-2.0741,-2.0476,-2.0137,-2.0038,-1.9767,-1.973,-2.0002,-1.9557,-1.9549,-2.0358,-1.9582,-1.944,-2.0172,-1.9958,-1.973,-1.9585,-1.9986,-2.0213,-2.0213,-2.0814,-2.1114,-2.1124,-2.159,-2.1807,-2.1807,-2.1807,-2.1807,-2.1807,-2.1807,-2.1807,-2.1807,-2.1807,-2.1807,-2.1807,-2.1807,-2.1807,-2.1807,-2.1807,-2.1807,-2.1807,0.0,0.0,0.0,0.0,0.0,0.0,0.0,-1.892,-1.9945,-2.1789,-2.1392,-2.1487,-2.2989,-2.0302,-1.842,-1.8456,-1.5419,0.0,0.0,0.0,0.0,0.0,0.0,0.0,-1.3489,-1.3494,-1.4711,-1.7176,-1.7176,-1.7585,-1.8344,-1.8107,-1.7318,-1.6117,-1.5571,-1.4759,0.0,0.0,0.0,0.0,0.0,0.0,-1.22,0.0,0.0,0.0,0.0,0.0,0.0,0.0,0.0,0.0,0.0,0.0,0.0,0.0,-2.1715,-2.1388,-2.2295,-2.2166,-2.1705,-2.1442,-2.0787,-2.0136,-1.9852,-1.8924,-1.7935,-1.7427,-1.7256,-1.7297,-1.7606,-1.8248,-1.9238,-2.077,-2.0539,-2.0493,-2.1475,-2.0904,-2.0312,-2.0009,-1.9963,-2.0096,-2.0472,-1.983,-1.9865,-2.0964,-2.0049,-1.9796,-2.0638,-2.042,-2.0311,-2.0311,-2.0545,-2.0653,-2.0653,-2.1145,-2.1373,-2.1383,-2.1662,-2.1807,-2.1807,-2.1807,-2.1807,-2.1807,-2.1807,-2.1807,0.0,-2.1807,-2.1807,-2.1807,-2.1807,-2.1807,-2.1807,-2.1807,-2.1807,-2.1807,0.0,0.0,0.0,0.0,0.0,0.0,0.0,-1.8835,-1.9452,-1.9762,-1.9889,-2.0285,-2.1132,-1.812,-1.6519,-1.776,0.0,0.0,0.0,0.0,0.0,0.0,0.0,0.0,-1.3685,-1.3769,-1.5826,-1.9956,-1.9941,-2.0969,-2.2918,-2.2313,-2.0921,-1.8852,-1.7344,-1.5797,0.0,0.0,0.0,0.0,-1.22,-1.221,0.0,0.0,0.0,0.0,0.0,0.0,0.0,0.0,0.0,0.0,0.0,0.0,0.0,0.0,0.0,0.0,0.0,-2.1854,-2.1687,-2.0927,-2.0758,-2.0599,-1.9889,-1.8885,0.0,-1.7421,-1.7316,-1.7486,-1.8048,-1.912,-2.0296,-2.1446,-2.1459,-2.1566,-2.2089,-2.0933,-2.0085,-2.0118,-2.0388,-2.0751,-2.1301,-2.0348,-2.0347,-2.1964,-2.082,-2.0418,-2.1224,-2.1161,-2.1161,-2.1266,-2.1192,-2.1166,-2.1166,-2.159,-2.1807,-2.1807,-2.1807,-2.1807,-2.1807,-2.1807,-2.1807,0.0,-2.1807,-2.1807,0.0,-2.1807,-2.1807,-2.1807,-2.1807,-2.1807,-2.1807,-2.1807,-2.1807,-2.1807,0.0,0.0,0.0,0.0,0.0,0.0,0.0,0.0,0.0,0.0,-1.6782,-1.6927,-1.7543,-1.6172,-1.5302,0.0,0.0,0.0,0.0,0.0,0.0,0.0,0.0,0.0,-1.5704,-1.6379,-1.8246,-2.1414,-2.1407,-2.2073,-2.336,-2.3406,-2.2611,-2.1063,-1.9073,-1.6494,0.0,0.0,0.0,0.0,-1.22,-1.2205,0.0,0.0,0.0,0.0,-1.3201,-1.3465,0.0,0.0,0.0,0.0,0.0,0.0,0.0,0.0,-1.9809,-1.9686,-1.9596,0.0,-2.1198,-2.0513,-1.994,-1.944,0.0,-1.8597,-1.8179,-1.8453,-1.8506,-1.8545,-1.8689,-2.0022,-2.1485,-2.2608,-2.2314,-2.2156,-2.2781,-2.0948,-1.9802,-2.0409,-2.0335,-2.0649,-2.1747,-2.1073,-2.1016,-2.2002,-2.1249,-2.1315,-2.2633,-2.1687,-2.1581,-2.2687,-2.1997,-2.1642,-2.1642,-2.1745,-2.1807,-2.1807,-2.1807,-2.1807,-2.1807,-2.1807,-2.1807,-2.1807,-2.1807,-2.1807,-2.1807,-2.1807,-2.1807,-2.1807,-2.1807,-2.1807,-2.1807,-2.1807,-2.1807,-2.1807,0.0,0.0,0.0,0.0,0.0,0.0,0.0,0.0,0.0,0.0,0.0,-1.5879,-1.6136,-1.5332,0.0,0.0,0.0,0.0,0.0,0.0,0.0,0.0,0.0,-1.6466,-1.7926,-1.8762,-2.0613,-2.3539,-2.3892,-2.4575,-2.5602,-2.5445,-2.4302,-2.2216,-1.912,-1.6292,0.0,0.0,0.0,-1.2246,-1.2205,0.0,0.0,0.0,0.0,0.0,-1.2799,-1.3321,0.0,-1.4441,-1.5157,-1.6058,0.0,0.0,0.0,0.0,-1.9288,-1.9288,-1.9233,-1.9859,-2.0324,-1.956,-1.9282,-1.9139,-1.8943,-1.8675,-1.8623,-1.9198,-1.9316,-1.9473,-2.0009,-2.1093,-2.2296,-2.3446,-2.2787,-2.2268,-2.2599,-2.1649,-2.0995,-2.123,-2.0787,-2.0827,-2.1724,-2.125,-2.1462,-2.2763,-2.2313,-2.2391,-2.3275,-2.2522,-2.2253,-2.2686,-2.2128,-2.1807,-2.1807,-2.1807,-2.1807,-2.1807,-2.1807,-2.1807,-2.1807,-2.1807,-2.1807,-2.1807,-2.1807,-2.1807,-2.1807,-2.1807,-2.1807,-2.1807,-2.1807,-2.1807,-2.1807,-2.1807,-2.1807,-2.1807,0.0,0.0,0.0,0.0,0.0,0.0,0.0,0.0,0.0,0.0,0.0,0.0,0.0,0.0,0.0,0.0,0.0,0.0,0.0,0.0,0.0,0.0,-1.6682,-1.8215,-2.003,-2.1052,-2.2871,-2.5599,-2.66,-2.7552,-2.8437,-2.7955,-2.6056,-2.2882,-1.8963,-1.6297,-1.4683,-1.3833,-1.3075,-1.2453,-1.2277,0.0,0.0,0.0,0.0,0.0,0.0,0.0,0.0,-1.4746,-1.5392,-1.6145,-1.7341,0.0,0.0,0.0,0.0,0.0,-1.9388,-1.961,-1.9462,-1.8625,-1.8875,-1.9233,-1.8979,-1.8976,-1.9237,-1.9917,-2.0061,-2.0388,-2.1446,-2.2204,-2.2988,-2.3926,-2.3182,-2.2395,-2.2145,-2.2315,-2.236,-2.2134,-2.1496,-2.1306,-2.1973,-2.1619,-2.2024,-2.3679,-2.334,-2.32,-2.3529,-2.3268,-2.2883,-2.2354,-2.2025,-2.1921,-2.2035,-2.1883,-2.1807,-2.1807,-2.1921,-2.1939,-2.1783,-2.178,-2.179,-2.1794,0.0,0.0,-2.1807,-2.1807,-2.1807,-2.1807,-2.1807,-2.1807,-2.1807,-2.1807,-2.1807,-2.1807,0.0,0.0,0.0,0.0,0.0,0.0,0.0,0.0,0.0,0.0,0.0,0.0,0.0,0.0,0.0,0.0,0.0,0.0,0.0,0.0,0.0,-1.7371,-1.7888,-1.9134,-2.1284,-2.3425,-2.5025,-2.5999,-2.8214,-2.9529,-2.9971,-3.0384,-2.8142,-2.3635,-2.1168,-1.8651,-1.6169,-1.482,-1.3843,-1.3182,-1.2536,0.0,0.0,0.0,0.0,0.0,0.0,0.0,0.0,-1.4385,-1.4936,-1.5431,-1.6477,0.0,0.0,0.0,0.0,0.0,-1.8771,-1.9192,-1.9302,-1.8733,-1.8941,-1.9256,-1.9097,-1.9386,-1.9969,-2.1028,-2.125,-2.1446,-2.2139,-2.3119,-2.3916,-2.4057,-2.3888,-2.3325,-2.2254,-2.1662,-2.1684,-2.257,-2.2197,-2.2404,-2.3823,-2.3546,-2.3429,-2.3775,-2.3315,-2.3212,-2.3722,-2.2968,-2.282,-2.3537,-2.2569,-2.2365,-2.3075,-2.2225,-2.1807,-2.1807,-2.2478,-2.2446,-2.1796,-2.1786,-2.1808,-2.1796,0.0,-2.1809,-2.1807,-2.1807,-2.1807,-2.1807,-2.1807,-2.1807,-2.1807,-2.1807,-2.1807,-2.1807,0.0,0.0,0.0,0.0,0.0,0.0,0.0,0.0,0.0,0.0,0.0,0.0,0.0,0.0,0.0,0.0,0.0,0.0,0.0,0.0,0.0,-1.9602,-1.9653,-2.08,-2.3388,-2.612,-2.7777,-2.8271,-3.0996,-3.2104,-3.162,-3.0086,-2.7538,-2.4168,-2.1812,-1.9436,-1.7103,-1.5619,-1.4397,-1.3382,0.0,0.0,0.0,0.0,0.0,0.0,0.0,0.0,0.0,0.0,-1.4527,-1.5201,-1.5803,0.0,0.0,0.0,0.0,0.0,-1.8147,-1.8681,-1.8995,-1.8696,-1.9604,-2.0567,-2.0434,-2.083,-2.1446,-2.2256,-2.2412,-2.2609,-2.3197,-2.3746,-2.3979,-2.3652,-2.4136,-2.4226,-2.3308,-2.3101,-2.3159,-2.344,-2.3115,-2.3212,-2.3934,-2.4131,-2.448,-2.5133,-2.4977,-2.4941,-2.5181,-2.4684,-2.4397,-2.4469,-2.3806,-2.3672,-2.4047,-2.361,-2.3316,-2.3217,-2.3323,-2.325,-2.2999,-2.2183,-2.2722,-2.4235,0.0,-2.1817,-2.1807,-2.1807,-2.1807,-2.1953,-2.3665,-2.3636,-2.2655,-2.2499,-2.244,-2.2402,0.0,0.0,0.0,0.0,0.0,0.0,0.0,0.0,0.0,0.0,0.0,0.0,0.0,0.0,0.0,0.0,0.0,0.0,0.0,0.0,-1.6595,-2.056,-2.1177,-2.2962,-2.6264,-2.8853,-3.0446,-3.103,-3.4033,-3.4667,-3.294,-2.991,-2.727,-2.4944,-2.2408,-2.0304,-1.8552,-1.657,-1.5058,-1.3905,0.0,0.0,0.0,0.0,0.0,0.0,0.0,0.0,0.0,0.0,0.0,0.0,0.0,0.0,0.0,-1.6661,-1.7082,-1.7543,-1.8174,-1.8832,-1.9439,-1.9759,-2.0593,-2.1336,-2.1328,-2.1773,-2.2388,-2.3067,-2.3182,-2.3326,-2.3796,-2.3874,-2.377,-2.3443,-2.4178,-2.4622,-2.4178,-2.4236,-2.4262,-2.4063,-2.3981,-2.4018,-2.4181,-2.4707,-2.5406,-2.6321,-2.6242,-2.6139,-2.6139,-2.5988,-2.5662,-2.5087,-2.4886,-2.4838,-2.5028,-2.4968,-2.4684,-2.4244,-2.4127,-2.3874,-2.3537,-2.311,-2.3828,-2.5271,-2.2843,-2.178,-2.18,-2.18,-2.2225,-2.3085,-2.5138,-2.4863,-2.3275,-2.2874,-2.2703,-2.2628,0.0,0.0,0.0,0.0,0.0,0.0,0.0,0.0,0.0,0.0,0.0,0.0,0.0,0.0,0.0,0.0,0.0,0.0,0.0,0.0,-1.6788,-1.8985,-2.1973,-2.5685,-3.0196,-3.1534,-3.273,-3.3815,-3.703,-3.6901,-3.3594,-3.1554,-2.9124,-2.6338,-2.3782,-2.2256,-2.1379,-1.7894,-1.605,-1.5323,-1.3968,0.0,0.0,0.0,0.0,0.0,0.0,0.0,0.0,0.0,0.0,0.0,0.0,0.0,-1.61,-1.6141,-1.7339,-1.8799,-1.9402,-2.0286,-2.1444,-2.3111,-2.1894,-2.0385,-2.0771,-2.121,-2.189,-2.296,-2.3182,-2.3195,-2.3276,-2.3248,-2.3417,-2.3939,-2.4125,-2.4164,-2.4096,-2.3578,-2.3424,-2.4031,-2.4447,-2.4969,-2.5591,-2.6036,-2.6308,-2.638,-2.5756,-2.5382,-2.5382,-2.5382,-2.5335,-2.5264,-2.5087,-2.5322,-2.5975,-2.5679,-2.4918,-2.3764,-2.4708,-2.4037,-2.2071,-2.4874,-2.4693,-2.2131,-2.1893,-2.1797,-2.1813,-2.1813,-2.3527,-2.6033,-2.4785,-2.3751,-2.2938,-2.2187,-2.1883,-2.1883,0.0,0.0,0.0,0.0,0.0,0.0,0.0,0.0,0.0,0.0,0.0,0.0,0.0,0.0,0.0,0.0,0.0,0.0,0.0,-1.5495,-1.7494,-2.1109,-2.2204,-2.5451,-3.1265,-3.3201,-3.5263,-3.7577,-3.7882,-3.6841,-3.4572,-3.123,-2.8707,-2.6857,-2.4351,-2.2475,-2.1031,-1.8379,-1.6375,-1.4896,-1.3889,-1.3099,0.0,0.0,0.0,0.0,0.0,0.0,0.0,0.0,-1.357,-1.3643,-1.4369,-1.492,-1.5316,-1.5496,-1.6829,-1.8364,-1.8975,-2.0421,-2.1916,-2.2613,-2.2001,-2.1673,-2.3198,-2.3308,-2.3221,-2.3652,-2.3443,-2.3182,-2.3182,-2.3496,-2.3822,-2.4044,-2.4083,-2.4083,-2.4083,-2.3894,-2.3964,-2.4566,-2.5099,-2.5676,-2.6321,-2.6789,-2.7074,-2.7074,-2.6837,-2.6667,-2.6667,-2.6667,-2.6667,-2.6667,-2.6573,-2.6676,-2.6973,-2.6841,-2.654,-2.6055,-2.6467,-2.6183,-2.5309,-2.412,-2.3204,-2.2531,-2.2026,-2.1801,-2.1938,-2.392,-2.4837,-2.4918,-2.3815,-2.3522,-2.3658,-2.3327,-2.3217,-2.3217,0.0,0.0,0.0,0.0,0.0,0.0,0.0,0.0,0.0,0.0,0.0,0.0,0.0,0.0,0.0,0.0,0.0,0.0,-1.5133,-1.566,-1.7707,-2.1709,-2.2136,-2.488,-3.045,-3.3382,-3.6318,-3.9353,-3.7836,-3.6077,-3.4059,-3.0333,-2.8308,-2.7634,-2.4751,-2.2811,-2.1517,-1.9069,-1.6828,-1.4853,-1.4137,-1.3305,0.0,0.0,0.0,0.0,0.0,0.0,0.0,0.0,-1.3457,-1.3793,-1.4216,-1.4701,-1.5212,-1.5943,-1.7205,-1.8594,-1.9527,-2.1057,-2.2467,-2.2803,-2.2684,-2.2937,-2.4783,-2.4389,-2.371,-2.4047,-2.3757,-2.3469,-2.3469,-2.3809,-2.4083,-2.4083,-2.4083,-2.4083,-2.4083,-2.4083,-2.4321,-2.4926,-2.5471,-2.6046,-2.6654,-2.7196,-2.749,-2.749,-2.749,-2.749,-2.749,-2.749,-2.749,-2.749,-2.749,-2.749,-2.749,-2.749,-2.749,-2.749,-2.7509,-2.7501,-2.7394,-2.4787,-2.3792,-2.4089,-2.3507,-2.2731,-2.197,-2.412,-2.4735,-2.4288,-2.3626,-2.3815,-2.4456,-2.4192,-2.4108,-2.4108,0.0,0.0,0.0,0.0,0.0,0.0,0.0,0.0,0.0,0.0,0.0,0.0,0.0,0.0,0.0,0.0,0.0,0.0,-1.5976,-1.6018,-1.7218,-1.996,-2.1747,-2.431,-2.7793,-3.1943,-3.5563,-3.8599,-3.7042,-3.4749,-3.1731,-2.9,-2.8161,-2.8808,-2.5068,-2.3447,-2.3355,-2.0065,-1.7476,-1.5529,-1.4881,-1.3763,-1.2505,0.0,0.0,0.0,0.0,0.0,0.0,0.0,-1.3418,-1.3804,-1.4488,-1.5153,-1.6013,-1.7687,-1.8761,-1.9768,-2.1444,-2.2442,-2.3272,-2.4326,-2.4151,-2.3975,-2.4955,-2.387,-2.2905,-2.3906,-2.4112,-2.4083,-2.4083,-2.4083,-2.4083,-2.4083,-2.4083,-2.4083,-2.4083,-2.4083,-2.4334,-2.494,-2.5484,-2.6059,-2.6654,-2.7196,-2.749,-2.749,-2.749,-2.749,-2.749,-2.749,-2.749,-2.749,-2.749,-2.749,-2.749,-2.749,-2.749,-2.749,-2.749,-2.7517,-2.7502,-2.7496,-2.714,-2.6515,-2.6492,-2.474,-2.1854,-2.1818,-2.3033,-2.485,-2.4302,-2.46,-2.5194,-2.4409,-2.4108,-2.4108,0.0,0.0,0.0,0.0,0.0,0.0,0.0,0.0,0.0,0.0,0.0,0.0,0.0,0.0,0.0,0.0,0.0,0.0,-1.5124,-1.5696,-1.6837,-1.8672,-2.0785,-2.29,-2.4962,-2.992,-3.4251,-3.784,-3.6801,-3.449,-3.0972,-2.9076,-2.7606,-2.6438,-2.413,-2.2422,-2.1032,-1.836,-1.6323,-1.4869,-1.4679,-1.3763,-1.2552,0.0,0.0,0.0,0.0,0.0,0.0,0.0,0.0,0.0,-1.4405,-1.4965,-1.5487,-1.6548,-1.8436,-2.0338,-2.1125,-2.2704,-2.4207,-2.4641,-2.411,-2.3568,-2.3938,-2.414,-2.4249,-2.4125,-2.3744,-2.3456,-2.3456,-2.3796,-2.4083,-2.4083,-2.4083,-2.4083,-2.4083,-2.4465,-2.4922,-2.5511,-2.6073,-2.6648,-2.7223,-2.7398,-2.749,-2.749,-2.749,-2.749,-2.749,-2.749,-2.749,-2.749,-2.749,-2.749,-2.749,-2.749,-2.749,-2.749,-2.749,-2.7514,-2.7488,-2.7511,-2.7143,-2.6511,-2.6479,-2.5957,-2.5035,-2.4296,-2.446,-2.5122,-2.4361,-2.4264,-2.4492,-2.4826,-2.4933,-2.5052,0.0,0.0,0.0,0.0,0.0,0.0,0.0,0.0,0.0,0.0,-1.3891,-1.3791,0.0,0.0,0.0,0.0,0.0,0.0,-1.4785,-1.5566,-1.6677,-1.8166,-1.9814,-2.1802,-2.4215,-2.8334,-3.1714,-3.4318,-3.4731,-3.3179,-2.9765,-2.9127,-2.7979,-2.6353,-2.4912,-2.3258,-2.1372,-1.8615,-1.6815,-1.5773,-1.5216,-1.4485,-1.3747,0.0,0.0,0.0,0.0,0.0,0.0,0.0,0.0,0.0,-1.4225,-1.4702,-1.533,-1.734,-1.899,-2.0511,-2.2068,-2.347,-2.452,-2.4664,-2.4254,-2.3749,-2.3732,-2.4029,-2.4178,-2.3838,-2.3838,-2.3838,-2.3587,-2.406,-2.4387,-2.4122,-2.4083,-2.4083,-2.4083,-2.4609,-2.5214,-2.5728,-2.6321,-2.6896,-2.7438,-2.749,-2.749,-2.749,-2.749,-2.749,-2.749,-2.749,-2.749,-2.749,-2.749,-2.749,-2.749,-2.749,-2.749,-2.749,-2.749,-2.7356,-2.7108,-2.7105,-2.6884,-2.6497,-2.6055,-2.5859,-2.5789,-2.4933,-2.4886,-2.5217,-2.4519,-2.4425,-2.4742,-2.5253,-2.5404,-2.5509,0.0,0.0,0.0,0.0,0.0,0.0,0.0,0.0,0.0,-1.406,-1.4023,-1.3941,0.0,0.0,0.0,-1.3613,-1.3667,-1.4001,-1.4757,-1.5497,-1.6531,-1.7929,-1.8841,-2.0958,-2.4505,-2.6885,-2.842,-2.9092,-3.1576,-3.1265,-2.8316,-2.9196,-2.8853,-2.7452,-2.6534,-2.5074,-2.3094,-1.9873,-1.8078,-1.732,-1.6085,-1.5482,-1.526,-1.4774,0.0,0.0,0.0,0.0,0.0,0.0,0.0,0.0,-1.3898,-1.4377,-1.5399,-1.9037,-1.9963,-2.0475,-2.3511,-2.434,-2.4366,-2.4483,-2.4355,-2.4155,-2.3984,-2.3576,-2.3208,-2.3261,-2.4099,-2.4704,-2.4204,-2.4543,-2.4756,-2.4204,-2.4083,-2.4109,-2.4178,-2.4687,-2.5262,-2.5837,-2.6399,-2.6948,-2.7438,-2.749,-2.749,-2.749,-2.749,-2.749,-2.749,-2.749,-2.749,-2.749,-2.749,-2.749,-2.749,-2.749,-2.749,-2.749,-2.749,-2.7124,-2.6489,-2.6502,-2.6502,-2.6447,-2.5483,-2.5039,-2.4991,-2.447,-2.4696,-2.5369,-2.4792,-2.5053,-2.5674,-2.5674,-2.5674,-2.5749,0.0,0.0,0.0,0.0,0.0,0.0,0.0,0.0,-1.4411,-1.4338,-1.4213,-1.4078,-1.3877,-1.3803,0.0,-1.3677,-1.3682,-1.3808,-1.4013,-1.4731,-1.5288,-1.5619,-1.7994,-1.9958,-2.1371,-2.4232,-2.5816,-2.5971,-3.0041,-3.0489,-2.7575,-2.9523,-2.8528,-2.5138,-2.5397,-2.3802,-2.0757,-1.8155,-1.6357,-1.5295,-1.5513,-1.4616,-1.3273,-1.4237,-1.3728,0.0,0.0,0.0,0.0,0.0,0.0,0.0,-1.3201,-1.3973,-1.5041,-1.7258,-1.9232,-2.0957,-2.2033,-2.3478,-2.4557,-2.4018,-2.3661,-2.3304,-2.2872,-2.2988,-2.3326,-2.3796,-2.3746,-2.3694,-2.4031,-2.4217,-2.4256,-2.4109,-2.4083,-2.4282,-2.4756,-2.5275,-2.585,-2.6457,-2.7,-2.7359,-2.749,-2.749,-2.749,-2.749,-2.749,-2.749,-2.749,-2.749,-2.749,-2.749,-2.749,-2.749,-2.749,-2.749,-2.749,0.0,-2.7343,-2.7005,-2.6489,-2.6498,-2.6485,-2.6483,-2.6242,-2.6173,-2.6102,-2.5531,-2.5651,-2.6183,-2.5589,-2.574,-2.6311,-2.6311,-2.6311,-2.6323,0.0,0.0,0.0,0.0,0.0,0.0,0.0,0.0,-1.455,-1.4422,-1.4332,-1.4237,-1.4053,-1.3899,0.0,0.0,-1.3736,-1.3713,-1.3753,-1.4469,-1.5202,-1.5877,-1.7376,-1.8551,-1.9326,-2.1992,-2.3384,-2.3384,-2.6109,-2.7195,-2.6764,-2.8696,-2.7551,-2.3941,-2.518,-2.405,-2.1035,-1.8633,-1.7194,-1.6512,-1.5861,-1.5137,-1.451,-1.4896,-1.4511,-1.3746,-1.3386,0.0,0.0,0.0,0.0,0.0,0.0,0.0,-1.4843,-1.7105,-1.8665,-2.0032,-2.179,-2.2948,-2.3717,-2.3922,-2.3857,-2.3478,-2.2598,-2.3027,-2.3576,-2.3328,-2.3472,-2.3717,-2.4031,-2.4083,-2.4083,-2.4083,-2.4083,-2.4321,-2.4926,-2.5458,-2.6033,-2.6641,-2.7183,-2.749,-2.749,-2.749,-2.749,-2.749,-2.749,-2.749,-2.749,-2.749,-2.749,-2.749,-2.749,-2.749,-2.749,-2.749,-2.741,-2.7271,-2.733,-2.7111,-2.6659,-2.6527,-2.635,-2.6084,-2.6084,-2.59,-2.5649,-2.5347,-2.5548,-2.6021,-2.5435,-2.5561,-2.6084,-2.6084,-2.6084,-2.6122,0.0,0.0,0.0,0.0,0.0,0.0,0.0,0.0,0.0,-1.4468,-1.4446,-1.4381,-1.4244,-1.4039,-1.3913,0.0,0.0,0.0,-1.3746,-1.434,-1.5263,-1.6563,-1.6743,-1.7122,-1.7787,-2.0044,-2.1199,-2.1199,-2.182,-2.3336,-2.5732,-2.7006,-2.5925,-2.2984,-2.5012,-2.4479,-2.1973,-1.9857,-1.8864,-1.855,-1.6686,-1.6149,-1.636,-1.5741,-1.5408,-1.5146,-1.454,-1.3911,-1.3344,-1.3247,0.0,0.0,0.0,0.0,-1.4697,-1.716,-1.8059,-1.8877,-2.1755,-2.2648,-2.3035,-2.408,-2.44,-2.4118,-2.2821,-2.3263,-2.3681,-2.2741,-2.3367,-2.4083,-2.4083,-2.4083,-2.4083,-2.4083,-2.4083,-2.4321,-2.4926,-2.5458,-2.6033,-2.6641,-2.7183,-2.749,-2.749,-2.749,-2.749,-2.749,-2.749,-2.749,-2.749,-2.749,-2.749,-2.749,-2.749,-2.749,-2.749,-2.7385,-2.7148,-2.6812,-2.7115,-2.7105,-2.6845,-2.6663,-2.6287,-2.5749,-2.5749,-2.5498,-2.5096,-2.4996,-2.5272,-2.5686,-2.5192,-2.5317,-2.5783,-2.5849,-2.5816,-2.5879,0.0,0.0,0.0,0.0,0.0,0.0,0.0,0.0,0.0,0.0,-1.4616,-1.4513,-1.4387,-1.4344,-1.4237,-1.4012,-1.3973,-1.3938,-1.3888,0.0,0.0,-1.5064,-1.571,-1.6105,-1.6191,-1.8441,-1.9613,-1.9613,-1.9717,-2.1251,-2.4112,-2.4319,-2.3311,-2.1406,-2.3703,-2.3481,-2.1295,-2.0374,-1.9501,-1.8629,-1.7762,-1.6749,-1.5719,-1.5627,-1.5144,-1.453,-1.4425,-1.4252,-1.3975,-1.339,-1.314,0.0,0.0,0.0,-1.4485,-1.55,-1.7106,-1.8894,-2.055,-2.2606,-2.4338,-2.4533,-2.4819,-2.4738,-2.3396,-2.3223,-2.3289,-2.3132,-2.3642,-2.4083,-2.4083,-2.4083,-2.4083,-2.4083,-2.4083,-2.4321,-2.4926,-2.5458,-2.6033,-2.6641,-2.7183,-2.749,-2.749,-2.749,-2.749,-2.749,-2.749,-2.749,-2.749,-2.749,-2.749,-2.749,-2.749,-2.749,-2.749,-2.6863,-2.6356,-2.5974,-2.6128,-2.6468,-2.6977,-2.6943,-2.6722,-2.6386,-2.6386,-2.6336,-2.6235,-2.5699,-2.5824,-2.6323,-2.5937,-2.6084,-2.6565,-2.6761,-2.668,-2.6578,0.0,0.0,0.0,0.0,0.0,0.0,0.0,0.0,0.0,0.0,0.0,-1.4587,-1.4526,-1.4446,-1.435,-1.4231,-1.4098,-1.3952,-1.3801,-1.3728,-1.4022,-1.4779,-1.4684,-1.4813,-1.5271,-1.708,-1.7811,-1.738,-1.7811,-1.9344,-2.1876,-2.1061,-2.1348,-2.2559,-2.2382,-2.2008,-2.1493,-2.0812,-2.0066,-1.9262,-1.8552,-1.8317,-1.8259,-1.707,-1.7094,-1.7601,-1.6396,-1.5692,-1.5209,-1.456,-1.3821,-1.3155,-1.2901,0.0,0.0,0.0,-1.6604,-1.8555,-2.1068,-2.2839,-2.4352,-2.5853,-2.5712,-2.5051,-2.4498,-2.4023,-2.3537,-2.2871,-2.3472,-2.4083,-2.4083,-2.4083,-2.4083,-2.4083,-2.4083,-2.4321,-2.4926,-2.5214,-2.5563,-2.6125,-2.6393,-2.655,-2.655,-2.655,-2.655,-2.655,-2.677,-2.7063,-2.7487,-2.7487,-2.7194,-2.6582,-2.655,-2.6654,-2.6887,-2.6985,-2.6935,-2.6745,-2.6315,-2.6488,-2.7167,-2.6724,-2.6483,-2.6349,-2.6349,-2.6159,-2.5795,-2.5541,-2.5782,-2.6311,-2.6136,-2.6411,-2.6875,-2.6977,-2.6943,-2.6875,0.0,0.0,0.0,0.0,0.0,0.0,0.0,0.0,0.0,0.0,0.0,-1.4619,-1.459,0.0,0.0,0.0,-1.4193,-1.3977,-1.3736,-1.3713,-1.3943,-1.4493,-1.3924,-1.3889,-1.451,-1.5771,-1.6185,-1.5642,-1.6384,-1.8101,-2.0665,-1.9205,-2.0608,-2.4304,-2.2012,-2.1064,-2.1195,-2.1183,-2.0845,-2.0304,-1.9878,-2.0175,-2.072,-1.9248,-1.9619,-2.0682,-1.8901,-1.773,-1.6883,-1.602,-1.4859,-1.3737,-1.3639,-1.4062,0.0,0.0,0.0,-1.8377,-2.1148,-2.2679,-2.4032,-2.6226,-2.6112,-2.5494,-2.5522,-2.48,-2.3953,-2.3267,-2.3403,-2.372,-2.3864,-2.3992,-2.4083,-2.4083,-2.4083,-2.4269,-2.4717,-2.49,-2.5162,-2.5563,-2.5702,-2.5793,-2.5793,-2.5793,-2.5793,-2.5793,-2.608,-2.6484,-2.705,-2.6774,-2.624,-2.5392,-2.555,-2.5678,-2.5793,-2.6649,-2.715,-2.7301,-2.6634,-2.6692,-2.7323,-2.6775,-2.6515,-2.6515,-2.6429,-2.614,-2.573,-2.573,-2.5999,-2.6396,-2.6462,-2.6706,-2.7079,-2.7113,-2.7113,-2.7079,0.0,0.0,0.0,0.0,0.0,0.0,0.0,0.0,0.0,0.0,0.0,-1.4672,-1.4614,-1.4643,-1.46,-1.4422,-1.4332,-1.4157,-1.3824,-1.3746,-1.3725,-1.3771,-1.3663,0.0,-1.3746,-1.4518,-1.4933,-1.4958,-1.5688,-1.7941,-2.1507,-2.0039,-2.171,-2.5855,-2.3269,-2.1161,-1.9649,-2.1453,-2.2064,-2.182,-2.2312,-2.2149,-2.1694,-2.2085,-2.2254,-2.2195,-2.1456,-2.0342,-1.9028,-1.765,-1.6328,-1.519,-1.4609,-1.4896,-1.5471,0.0,0.0,0.0,-1.9687,-2.168,-2.3703,-2.4539,-2.5486,-2.624,-2.6172,-2.5186,-2.445,-2.4956,-2.37,-2.265,-2.3158,-2.3704,-2.4083,-2.4083,-2.4083,-2.4096,-2.4122,-2.4622,-2.5005,-2.5044,-2.5484,-2.5793,-2.5793,-2.5793,-2.5793,0.0,-2.5837,-2.585,-2.5895,-2.4847,-2.4249,-2.4192,-2.4878,-2.4904,-2.4236,-2.5316,-2.6164,-2.6745,-2.6687,-2.6974,-2.749,-2.743,-2.7417,-2.7417,-2.7108,-2.6926,-2.69,-2.69,-2.6913,-2.6973,-2.7162,-2.7242,-2.7302,-2.7436,-2.7403,-2.7302,0.0,0.0,0.0,0.0,0.0,0.0,0.0,0.0,0.0,0.0,0.0,0.0,0.0,-1.4654,-1.4661,-1.4536,-1.4387,-1.4163,-1.3824,-1.3786,-1.3746,-1.369,-1.3675,-1.3675,-1.3708,-1.4455,-1.4619,-1.4123,-1.4906,-1.6712,-1.9422,-1.941,-2.0483,-2.2414,-2.1593,-2.1144,-2.1021,-2.123,-2.1274,-2.1284,-2.2281,-2.3055,-2.3495,-2.2711,-2.2925,-2.348,-2.248,-2.1177,-1.9906,-1.9494,-1.7819,-1.5887,-1.5757,-1.559,-1.5628,-1.6646,-1.7365,-1.8297,-2.0438,-2.1951,-2.3386,-2.5326,-2.6132,-2.6629,-2.7375,-2.6515,-2.5569,-2.5794,-2.5242,-2.4653,-2.4394,-2.39,-2.3509,-2.3509,-2.3835,-2.4083,-2.4083,-2.4295,-2.4426,-2.4426,-2.4596,-2.4696,-2.4696,-2.4696,0.0,0.0,0.0,-2.4696,-2.4696,-2.4318,-2.4094,-2.4094,-2.4361,-2.471,-2.5207,-2.5972,-2.6661,-2.7223,-2.7223,-2.7294,-2.749,-2.749,-2.749,-2.749,-2.7369,-2.7302,-2.7302,-2.7302,-2.7302,-2.7335,-2.7403,-2.7436,-2.7436,-2.7503,-2.7469,-2.7436,0.0,0.0,0.0,0.0,0.0,0.0,0.0,0.0,-1.572,-1.6248,0.0,0.0,0.0,0.0,-1.4651,-1.4515,-1.4387,-1.4163,-1.3824,-1.3786,-1.3753,-1.3705,-1.3698,-1.3705,-1.3728,-1.3756,-1.3885,-1.4135,-1.4152,-1.5558,-1.8253,-1.8773,-1.9664,-2.0778,-2.0314,-2.0327,-2.0699,-2.0376,-2.0305,-2.062,-2.2346,-2.354,-2.4291,-2.4166,-2.4519,-2.4935,-2.4121,-2.2933,-2.1752,-2.1911,-2.0401,-1.8376,-1.7997,-1.7258,-1.666,-1.7466,-1.7599,-1.7919,-1.9829,-2.1128,-2.2462,-2.4673,-2.5891,-2.681,-2.7815,-2.748,-2.6898,-2.6628,-2.6347,-2.5922,-2.5258,-2.4486,-2.385,-2.3533,-2.3849,-2.4028,-2.3812,-2.3812,-2.3861,-2.4099,-2.4083,-2.4083,0.0,0.0,0.0,0.0,0.0,0.0,-2.4083,-2.4083,-2.4272,-2.4665,-2.4554,-2.4992,-2.6099,-2.6491,-2.6961,-2.749,-2.749,-2.749,-2.749,-2.749,-2.749,-2.749,-2.749,-2.749,-2.749,-2.749,-2.749,-2.749,-2.749,-2.749,-2.749,-2.749,-2.749,-2.749,0.0,0.0,0.0,0.0,0.0,0.0,0.0,0.0,-1.715,-1.7102,0.0,0.0,0.0,0.0,0.0,-1.4361,-1.4336,-1.4181,-1.3824,-1.3746,-1.3713,-1.3713,-1.3708,-1.374,-1.3816,-1.2351,-1.2686,-1.4972,-1.3464,-1.4613,-1.8207,-1.8225,-1.9386,-2.1389,-1.9653,-1.8687,-1.8438,-1.8917,-1.939,-2.0036,-2.2658,-2.37,-2.3994,-2.6576,-2.7124,-2.6505,-2.6534,-2.573,-2.4641,-2.4793,-2.3954,-2.2611,-2.1173,-1.9815,-1.8599,-1.7904,-1.7699,-1.7699,0.0,0.0,0.0,-2.2321,-2.4675,-2.6791,-2.7349,-2.7987,-2.8233,-2.7493,-2.6846,-2.6239,-2.5609,-2.5483,-2.5225,-2.4312,-2.4164,-2.3959,-2.3349,-2.3252,-2.3461,-2.4076,-2.4128,0.0,0.0,0.0,0.0,0.0,-2.4083,-2.4083,-2.4083,-2.4083,-2.4596,-2.5718,-2.5387,-2.5656,-2.6667,-2.6693,-2.6961,-2.749,-2.749,-2.749,-2.749,-2.749,-2.749,-2.749,-2.749,-2.749,-2.749,-2.749,-2.749,-2.749,-2.749,-2.749,-2.749,-2.749,-2.749,-2.749,0.0,0.0,0.0,0.0,0.0,-1.5327,-1.5913,-1.6183,-1.6526,0.0,0.0,0.0,-1.6833,-1.6594,-1.6091,-1.5233,-1.5171,-1.4807,-1.3938,-1.3848,-1.3893,-1.3991,-1.3991,-1.404,-1.417,-1.3641,-1.37,-1.4346,-1.3814,-1.4358,-1.5845,-1.6392,-1.722,-1.8276,-1.836,-1.8403,-1.8471,-1.9471,-1.9855,-2.0036,-2.269,-2.4049,-2.4625,-2.5774,-2.6417,-2.6707,-2.7302,-2.6598,-2.5436,-2.5555,-2.3951,-2.1559,-1.9719,-1.9295,-1.9246,-1.8046,-1.7699,-1.7699,-1.7699,0.0,0.0,0.0,0.0,0.0,-2.6669,-2.6987,-2.724,-2.7899,-2.7845,-2.7625,-2.732,-2.7679,-2.7486,-2.589,-2.5552,-2.5367,-2.5122,-2.4695,-2.464,-2.5259,0.0,0.0,0.0,0.0,0.0,0.0,-2.4083,-2.4083,-2.4083,-2.4083,-2.4246,-2.4557,-2.4994,-2.5472,-2.6046,-2.6465,-2.6961,-2.749,-2.749,-2.749,-2.749,-2.749,-2.749,-2.749,-2.749,-2.749,-2.749,-2.749,-2.749,-2.749,-2.749,-2.749,-2.749,-2.749,-2.749,-2.749,0.0,0.0,-1.5163,-1.5401,-1.5937,-1.6603,-1.7418,-1.7842,-1.8242,0.0,0.0,0.0,-1.7205,-1.8093,-1.7985,-1.6237,-1.6381,-1.5866,-1.4136,-1.4343,-1.4403,-1.415,-1.4139,-1.4185,-1.4293,-1.3537,-1.3609,-1.457,-1.3444,-1.3591,-1.4896,-1.4993,-1.5583,-1.657,-1.7018,-1.7752,-1.871,-2.032,-2.0677,-2.0415,-2.2701,-2.4135,-2.504,-2.6528,-2.7143,-2.7346,-2.8402,-2.8011,-2.7067,-2.7536,-2.5769,-2.318,-2.2012,-2.1185,-2.0399,-1.8994,-1.8362,-1.792,-1.7052,-1.8061,-1.9436,-1.9925,0.0,0.0,-2.5909,-2.6632,-2.7256,-2.815,-2.8308,-2.8183,-2.7826,-2.829,-2.8449,-2.759,-2.7606,-2.7266,-2.5824,-2.5319,-2.5251,0.0,0.0,0.0,0.0,-2.5036,-2.5028,-2.4711,-2.461,-2.4573,-2.455,-2.451,-2.4799,-2.5498,-2.5713,-2.6057,-2.6498,-2.687,-2.7196,-2.749,-2.749,-2.749,-2.749,-2.749,-2.749,-2.749,-2.749,-2.749,-2.749,-2.749,-2.749,-2.749,-2.749,-2.749,-2.749,-2.7436,-2.7436,-2.7403,0.0,0.0,-1.5368,-1.6202,-1.7559,-1.8818,-1.9713,-2.0575,-2.1124,0.0,-1.9126,-1.7751,-1.7751,-1.9709,-1.9983,-1.7392,-1.7904,-1.7266,-1.4654,-1.5221,-1.5282,-1.4407,-1.4371,-1.4354,-1.4344,-1.2872,-1.3094,-1.511,-1.2876,-1.2816,-1.4757,-1.4055,-1.4449,-1.5787,-1.5969,-1.7147,-1.9164,-2.1269,-2.1855,-2.1464,-2.3097,-2.4385,-2.5618,-2.8084,-2.8652,-2.8322,-2.9564,-2.9517,-2.8959,-2.9698,-2.83,-2.6182,-2.5846,-2.4172,-2.2011,-2.0288,-1.9373,-1.8487,-1.6399,-1.7176,-1.8457,-1.7936,-2.021,0.0,-2.4795,-2.6158,-2.7183,-2.7767,-2.7973,-2.7927,-2.7427,-2.7874,-2.8504,-2.9066,-2.9567,-2.8934,-2.6181,-2.5737,-2.5696,0.0,0.0,0.0,-2.4791,-2.5122,-2.5392,-2.5385,-2.5276,-2.5197,-2.5192,-2.5131,-2.5783,-2.7245,-2.6848,-2.6857,-2.7398,-2.7398,-2.7438,-2.749,-2.749,-2.749,-2.749,-2.749,-2.749,-2.749,-2.749,-2.749,-2.749,-2.749,-2.749,-2.749,-2.7503,-2.7503,-2.7469,-2.7302,-2.7268,-2.7235,-1.5285,-1.5231,-1.5629,-1.7005,-1.8027,-1.9137,-2.0526,-2.1489,-2.2021,-2.1955,-2.1529,-2.1216,-2.1216,-2.1603,-2.1075,-1.9091,-1.9649,-1.9006,-1.6377,-1.6966,-1.6802,-1.5465,-1.541,-1.5166,-1.4637,-1.4205,-1.4144,-1.4472,-1.3884,-1.3743,-1.4013,-1.3856,-1.4227,-1.5072,-1.6374,-1.8003,-1.9908,-2.1841,-2.3399,-2.4666,-2.5592,-2.6599,-2.7604,-2.8665,-2.9343,-2.9777,-3.0046,-2.9675,-2.8966,-2.8572,-2.8097,-2.7267,-2.4905,-2.463,-2.4472,-2.0727,-2.0004,-1.9941,-1.7841,-1.7588,-1.7999,-1.8394,-1.9467,0.0,-2.2289,-2.275,-2.3192,-2.4389,-2.5446,-2.6299,-2.6734,-2.7378,-2.8062,-2.8753,-2.841,-2.81,-2.8262,-2.7821,0.0,0.0,0.0,0.0,-2.5301,-2.5342,-2.5229,-2.4807,-2.5028,-2.5199,-2.5187,-2.5476,-2.5785,-2.6109,-2.602,-2.6269,-2.6831,-2.6844,-2.7079,-2.749,-2.749,-2.749,-2.749,-2.749,-2.749,-2.749,-2.749,-2.749,-2.749,-2.749,-2.749,-2.749,-2.7369,-2.7335,-2.7302,-2.7113,-2.7045,-2.7113,-1.5392,-1.5925,-1.6804,-1.7952,-1.947,-2.0927,-2.206,-2.2954,-2.363,-2.4043,-2.4789,-2.496,-2.4131,-2.4727,-2.4315,-2.2123,-2.2308,-2.1456,-1.8912,-1.8739,-1.8227,-1.7045,-1.6233,-1.5647,-1.5314,-1.4777,-1.4464,-1.4399,-1.4159,-1.3995,-1.3919,-1.416,-1.5323,-1.7165,-1.7535,-1.9308,-2.2077,-2.3367,-2.4752,-2.6169,-2.7011,-2.7658,-2.8237,-2.9604,-3.018,-3.0251,-3.0575,-3.0243,-2.9525,-2.8722,-2.8243,-2.7753,-2.6346,-2.5905,-2.5296,-2.2146,-2.1299,-2.0731,-1.792,-1.7417,-1.762,-1.7255,-1.7966,0.0,0.0,-2.1211,-2.1518,-2.2827,-2.3893,-2.4729,-2.5088,-2.6293,-2.7321,-2.7641,-2.8466,-2.8872,-2.8427,-2.8268,-2.8253,0.0,0.0,0.0,-2.6965,-2.6654,-2.6302,-2.5966,-2.6073,-2.6245,-2.6487,-2.6712,-2.68,-2.6689,-2.6982,-2.7114,-2.7092,-2.7105,-2.7249,-2.749,-2.749,-2.749,-2.749,-2.749,-2.749,-2.749,-2.749,-2.749,-2.749,-2.749,-2.7656,-2.7875,-2.7809,-2.7756,-2.7656,-2.7842,-2.7908,-2.7941,-1.5493,-1.6343,-1.7616,-1.8847,-2.0793,-2.2603,-2.382,-2.4674,-2.5455,-2.6151,-2.7505,-2.7873,-2.6526,-2.767,-2.7661,-2.5432,-2.5528,-2.46,-2.1934,-2.1302,-2.057,-1.9534,-1.7634,-1.6613,-1.6613,-1.539,-1.4682,-1.4493,-1.4211,-1.4129,-1.4236,-1.4646,-1.6349,-1.9038,-1.8974,-2.0651,-2.3657,-2.5095,-2.6265,-2.7266,-2.8446,-2.8958,-2.9203,-3.0752,-3.1036,-3.0631,-3.0846,-3.0616,-3.0141,-2.9643,-2.9019,-2.8451,-2.8309,-2.7589,-2.6298,-2.3887,-2.295,-2.1933,-1.8464,-1.7843,-1.7876,-1.6577,-1.713,-1.8403,0.0,0.0,0.0,-2.1557,-2.2352,-2.2898,-2.3042,-2.465,0.0,0.0,0.0,0.0,0.0,-2.7612,0.0,-2.9089,0.0,0.0,0.0,-2.8032,-2.7686,-2.7216,-2.737,-2.7513,-2.7668,-2.7767,-2.7766,-2.7619,-2.8062,-2.805,-2.749,-2.749,-2.749,-2.749,-2.749,-2.749,-2.749,-2.749,-2.7556,-2.7689,-2.7689,-2.7776,-2.7861,-2.7842,-2.8091,-2.8403,-2.8287,-2.8189,-2.8189,-2.8597,-2.8757,-2.8757,-1.5625,-1.5445,-1.6501,-1.9441,-2.0824,-2.2479,-2.5378,-2.6483,-2.7016,-2.7063,-2.7834,-2.8332,-2.8144,-2.8923,-2.9055,-2.8043,-2.9251,-2.8708,-2.5452,-2.5807,-2.5445,-2.3868,-2.0823,-1.9181,-1.9181,-1.6916,-1.5321,-1.4493,-1.4344,-1.4545,-1.5055,-1.5002,-1.5871,-1.7584,-2.035,-2.1708,-2.2227,-2.641,-2.8436,-2.9004,-3.0995,-3.2076,-3.2401,-3.2062,-3.1983,-3.1867,-3.0466,-3.0062,-3.0331,-3.1253,-3.108,-3.028,-2.9231,-2.9526,-2.943,-2.5416,-2.4866,-2.4854,-2.1698,-2.0402,-1.9712,-1.884,-1.8814,-1.9062,-1.9164,0.0,-1.8963,-1.9105,0.0,-2.0398,-2.1014,0.0,0.0,0.0,0.0,0.0,-2.3459,-2.5764,-2.751,-2.7244,0.0,0.0,0.0,0.0,-2.8581,-2.69,-2.803,-2.8321,-2.7244,-2.7468,-2.7615,-2.7606,-2.7669,-2.7635,-2.749,-2.749,-2.749,-2.749,-2.749,-2.749,-2.749,-2.749,-2.7809,-2.8384,-2.8384,-2.8712,-2.9254,-2.9125,-2.903,-2.8857,-2.8274,-2.832,-2.8693,-2.8583,-2.8524,-2.862,-1.6947,-1.7215,-1.8111,-1.9858,-2.1655,-2.3447,-2.5195,-2.7732,-2.9425,-2.9354,-3.048,-3.1475,-3.1954,-3.1396,-3.0869,-3.0572,-3.0671,-2.9929,-2.8006,-2.7373,-2.6505,-2.5243,-2.2088,-2.0127,-1.9609,-1.7634,-1.6404,-1.6004,-1.5863,-1.5936,-1.6196,-1.638,-1.7285,-1.8874,-2.14,-2.3257,-2.4669,-2.7476,-2.9971,-3.2107,-3.2605,-3.3773,-3.5005,-3.3226,-3.2044,-3.1269,-3.0568,-3.0368,-3.05,-3.097,-3.0967,-3.0635,-3.0064,-3.0367,-3.036,-2.7548,-2.6828,-2.6322,-2.3449,-2.226,-2.1538,-2.035,-2.0342,-2.0437,-1.9649,-1.964,-1.9542,-1.8593,0.0,0.0,0.0,0.0,0.0,0.0,-2.2368,0.0,-2.2364,0.0,-2.5897,0.0,0.0,0.0,0.0,0.0,0.0,0.0,0.0,-2.9802,-2.8278,-2.8267,-2.7909,-2.7098,-2.7759,-2.7759,-2.7027,-2.7333,-2.749,-2.749,-2.7875,-2.8072,-2.8105,-2.8487,-2.8794,-2.9093,-2.9012,-2.9139,-2.9376,-2.9261,-2.9341,-2.9594,-2.9328,-2.9233,-2.931,-2.9608,-2.9959,-3.0301,-1.8561,-1.8731,-1.9211,-2.0381,-2.2075,-2.3817,-2.5444,-2.8517,-3.0734,-3.0884,-3.2357,-3.3719,-3.4508,-3.3695,-3.3205,-3.346,-3.3072,-3.2262,-3.0899,-2.9754,-2.881,-2.8117,-2.4336,-2.2055,-2.1644,-1.909,-1.756,-1.7096,-1.6964,-1.6898,-1.6903,-1.7323,-1.8128,-1.9356,-2.1844,-2.4038,-2.6009,-2.8375,-3.115,-3.3985,-3.3674,-3.4483,-3.5668,-3.364,-3.2106,-3.1042,-3.116,-3.1116,-3.1003,-3.1327,-3.1203,0.0,-3.0858,-3.11,-3.1108,-2.9649,-2.8983,-2.8196,-2.5783,-2.473,-2.4012,-2.2736,-2.2456,-2.226,-2.1321,-2.106,-2.0569,-1.8996,-1.9502,0.0,0.0,0.0,-2.0444,-1.9142,0.0,-2.1767,-2.0702,-2.2234,-2.3887,0.0,0.0,0.0,0.0,0.0,0.0,0.0,0.0,0.0,-2.9046,-2.863,-2.7918,-2.675,-2.7709,-2.7834,-2.6982,-2.7508,-2.7866,-2.8059,-2.8532,-2.8776,-2.8776,-2.93,-2.9597,-2.9766,-2.9656,-2.9732,-2.9886,-2.9761,-2.9976,-3.0447,-3.056,-3.0465,-3.0311,-3.0814,-3.1241,-3.1602,-2.0255,-1.907,-1.8705,-2.1133,-2.1623,-2.297,-2.6829,-2.8801,-3.0084,-3.0809,-3.2357,-3.3719,-3.4508,-3.5367,-3.6161,-3.6866,-3.774,-3.7145,-3.4506,-3.4293,-3.4233,-3.4124,-2.8669,-2.5984,-2.6758,-2.2003,-1.8733,-1.7096,-1.6964,-1.6892,-1.692,-1.7373,-1.7594,-1.7737,-2.1433,-2.3538,-2.4567,-2.9085,-3.1986,-3.3582,-3.4209,-3.4121,-3.3541,0.0,-3.2402,-3.1916,-3.2369,0.0,0.0,-3.3128,-3.2551,0.0,0.0,0.0,-3.2301,-3.1528,-3.1432,-3.1211,-2.9476,-2.8355,-2.7452,-2.6691,-2.5503,-2.4509,-2.446,-2.319,-2.1628,-2.0148,-1.9278,-1.8536,-1.7785,-1.8797,-1.8982,-1.6607,-1.8713,0.0,0.0,-1.9162,-2.1468,-2.3692,0.0,0.0,0.0,0.0,0.0,0.0,0.0,0.0,-2.8921,-2.8051,-2.7342,-2.6708,-2.731,-2.7641,-2.7682,-2.8194,-2.8792,-2.9442,-2.9442,-2.9473,-2.9473,-2.9473,-2.9858,-3.0464,-3.045,-3.0837,-3.1409,-3.1278,-3.1248,-3.1308,-3.1751,-3.1927,-3.1927,-3.1957,-3.1895,-3.1905,-2.0546,-2.0451,-2.068,-2.1515,-2.2997,-2.5009,-2.7863,-3.0084,-3.1751,-3.259,-3.4107,-3.5673,-3.7154,-3.7032,-3.6986,-3.7259,-3.7543,-3.7087,-3.5656,-3.4988,-3.4636,-3.4651,-3.002,-2.7362,-2.7204,-2.3281,-2.0718,-1.9609,-1.9036,-1.8756,-1.8742,-1.8779,-1.8705,-1.8704,-2.2075,-2.4741,-2.69,-2.9651,-3.315,-3.6747,-3.5949,-3.5134,-3.4285,0.0,-3.3154,-3.3055,-3.3742,-3.3821,0.0,-3.406,-3.3589,-3.2832,-3.275,-3.2709,-3.2575,-3.1924,-3.1547,0.0,0.0,0.0,-2.9518,-2.8757,-2.8634,-2.8321,-2.6842,-2.5698,-2.4255,-2.186,-2.0682,-1.9441,-1.7333,-1.7401,-1.7474,-1.652,-1.7153,-1.7786,0.0,-1.9032,-2.0111,0.0,0.0,0.0,0.0,0.0,0.0,0.0,0.0,0.0,0.0,-2.8711,-2.7791,-2.672,-2.7285,-2.7426,-2.7034,-2.8005,-2.8598,-2.8839,-2.975,-3.0178,-3.0178,-3.0614,-3.097,-3.1161,-3.1058,-3.1161,-3.1351,-3.1205,-3.1205,-3.1352,-3.1826,-3.2,-3.2045,-3.2504,-3.2821,-3.3179,-2.1503,-2.2063,-2.2529,-2.2221,-2.4405,-2.6897,-2.8941,-3.1286,-3.3128,-3.3951,-3.5473,-3.7064,-3.8527,-3.8169,-3.7971,-3.8254,-3.8283,-3.7911,-3.7005,-3.6405,-3.6092,-3.6104,-3.2599,-3.0433,-3.0004,-2.604,-2.339,-2.2295,-2.0835,-1.9824,-1.9282,-1.9369,-1.9169,-1.8911,-2.2025,-2.5162,-2.8267,-3.0284,-3.3859,-3.8035,-3.647,-3.5315,0.0,0.0,-3.4181,-3.4353,0.0,-3.5054,-3.4963,-3.4963,-3.4525,-3.3963,-3.3779,-3.3423,-3.3011,-3.2862,-3.2389,-3.1899,-3.188,-3.1498,0.0,-3.083,-3.0809,0.0,-2.9283,-2.8146,-2.6809,-2.4766,-2.2843,-2.1174,-1.9945,-1.8562,-1.7676,-1.7822,-1.7372,-1.7311,0.0,-1.8729,0.0,0.0,0.0,0.0,0.0,0.0,0.0,0.0,0.0,0.0,0.0,0.0,-2.8121,-2.7084,-2.7404,-2.7405,-2.7045,-2.8269,-2.9,-2.9216,-3.0338,-3.0866,-3.0866,-3.1307,-3.1511,-3.1511,-3.1409,-3.138,-3.1351,-3.1249,-3.1205,-3.1367,-3.2061,-3.2354,-3.2428,-3.3124,-3.3662,-3.4164,-2.3028,-2.3739,-2.4142,-2.3423,-2.5913,-2.8525,-3.0023,-3.2321,-3.4134,-3.487,-3.6425,-3.781,-3.8691,-3.8802,-3.9097,-3.9789,-3.9979,-3.9616,-3.8587,-3.8575,-3.8593,-3.8595,-3.6259,-3.4955,-3.4974,-2.9981,-2.6563,-2.4933,-2.2269,-2.016,-1.864,-1.9254,-1.9139,-1.8509,-2.1478,-2.4922,-2.8679,-3.0955,-3.4098,-3.7381,-3.5881,-3.4845,-3.4237,-3.4989,-3.5491,-3.5784,-3.5843,-3.5864,-3.5864,-3.5845,-3.5372,-3.474,-3.474,-3.4214,-3.3687,-3.4279,-3.387,-3.3202,-3.3127,-3.2497,-3.2061,-3.2899,0.0,0.0,0.0,0.0,-2.9214,-2.859,-2.565,-2.3604,-2.4983,-2.2014,-1.9573,-2.0226,-1.9271,-1.8364,-1.8221,-1.8211,-1.8108,0.0,0.0,0.0,0.0,0.0,0.0,0.0,0.0,0.0,0.0,0.0,-2.84,-2.7761,-2.7676,-2.7658,-2.7675,-2.8934,-2.9849,-3.0462,-3.1122,-3.1466,-3.1511,-3.1511,-3.1511,-3.1511,-3.1511,-3.1511,-3.1467,-3.1351,-3.1292,-3.1426,-3.2564,-3.3017,-3.3149,-3.38,-3.4404,-3.4868,-2.3196,-2.425,-2.5771,-2.7392,-2.8792,-3.0003,-3.0955,-3.3152,-3.5009,-3.5893,-3.7471,-3.888,-3.9786,-3.9319,-3.9023,-3.9214,-3.9261,-3.9176,-3.8899,-3.8792,-3.9067,-3.9804,-3.7232,-3.5856,-3.6016,-3.092,-2.7765,-2.6734,-2.3505,-2.1395,-2.037,-2.1173,-2.1336,-2.1047,-2.3219,-2.6493,-3.0414,-3.1823,-3.3909,-3.6271,-3.645,-3.592,-3.5091,0.0,-3.6577,-3.696,-3.6939,-3.692,-3.6901,-3.6747,-3.6162,-3.5511,-3.5511,-3.5004,-3.4302,-3.3806,-3.3525,-3.3313,-3.3221,-3.3009,-3.2905,-3.3115,-3.3442,-3.3581,0.0,0.0,0.0,0.0,-2.8271,-2.6429,-2.3357,-2.2848,-2.2448,-2.1105,-2.0394,-1.9602,-1.845,0.0,0.0,-1.8183,0.0,0.0,0.0,0.0,0.0,0.0,0.0,0.0,0.0,0.0,0.0,-2.8396,-2.8334,-2.8121,-2.7635,-2.845,-2.9175,-2.9846,-3.0462,-3.1017,-3.1511,-3.1511,-3.1511,-3.1511,-3.1511,-3.1438,-3.1351,-3.1307,-3.1516,-3.1899,-3.2524,-3.329,-3.4083,-3.4409,-3.4618,-3.4731,-2.5492,-2.6678,-2.8365,-3.0082,-3.1636,-3.2621,-3.262,-3.4655,-3.6526,-3.7467,-3.8717,-3.9852,-4.0731,-4.0387,-4.0253,-4.0635,-4.031,-4.0062,-4.0015,-3.9662,-3.9671,-4.0196,-3.8746,-3.7985,-3.8088,-3.4096,-3.1238,-2.9631,-2.6208,-2.3695,-2.2105,-2.2229,-2.2596,-2.318,-2.4594,-2.751,-3.1507,-3.3813,-3.5036,-3.5521,-3.6787,-3.6643,0.0,-3.6635,-3.7298,-3.7721,-3.7613,-3.7447,-3.7278,-3.7163,-3.6767,-3.632,-3.632,-3.5794,-3.5073,-3.4559,-3.4173,-3.3769,-3.3328,-3.3186,-3.3204,-3.3185,-3.3679,-3.3963,-3.3338,-3.3166,-3.2874,0.0,-3.037,-2.8817,0.0,0.0,-2.4944,-2.3179,-2.192,-2.0703,-1.9397,0.0,0.0,0.0,-1.9408,0.0,0.0,0.0,0.0,0.0,0.0,0.0,0.0,0.0,0.0,-2.9082,-2.9026,-2.8562,-2.76,-2.8573,-2.922,-2.9621,-3.0208,-3.0838,-3.1511,-3.1511,-3.1511,-3.1511,-3.1438,-3.138,-3.1278,-3.1146,-3.1249,-3.1556,-3.2324,-3.3347,-3.4414,-3.4515,-3.4563,-3.4563,-2.8987,-3.0054,-3.1316,-3.2186,-3.4347,-3.5678,-3.4847,-3.6523,-3.8233,-3.9157,-3.9983,-4.0788,-4.159,-4.159,-4.1772,-4.2412,-4.1877,-4.1408,-4.1175,-4.0721,-4.0416,-4.0289,-4.0291,-4.0301,-4.0301,-3.7745,-3.5292,-3.298,-2.9558,-2.6657,-2.4302,-2.36,-2.3956,-2.5225,-2.6253,-2.8867,-3.2694,-3.6263,-3.6803,-3.543,-3.7155,-3.7245,-3.6384,-3.7153,-3.7781,-3.8224,-3.8055,-3.7721,-3.7372,-3.7353,-3.7201,-3.7046,-3.7046,-3.6533,-3.5933,-3.5749,-3.5222,-3.4486,-3.3626,-3.331,-3.3241,-3.324,-3.3331,-3.3331,-3.3036,-3.3509,-3.4047,-3.4222,-3.2303,-3.1175,0.0,0.0,0.0,-2.5897,-2.3889,-2.2178,-2.13,0.0,0.0,0.0,0.0,0.0,0.0,0.0,0.0,0.0,0.0,0.0,0.0,0.0,-3.003,-2.9741,-2.9651,0.0,-2.7869,0.0,-2.9442,-2.9621,-3.0118,-3.0746,-3.1376,-3.1437,-3.1467,-3.1467,-3.1322,-3.1308,-3.1353,-3.0969,-3.0894,-3.1141,-3.2196,-3.3369,-3.4414,-3.4414,-3.4414,-3.4414,-3.2243,-3.2723,-3.3397,-3.4855,-3.6608,-3.7719,-3.7449,-3.8284,-3.924,-4.0051,-4.0912,-4.1747,-4.2489,-4.1982,-4.136,-4.0788,-4.1208,-4.1199,-4.053,-4.0989,-4.1275,-4.1265,-4.0645,-4.0301,-4.0301,-3.7745,-3.6111,-3.5553,-3.2126,-2.9828,-2.8621,-2.8462,-2.8181,-2.7853,-3.0049,-3.2868,-3.6128,-3.791,0.0,-3.7367,-3.8307,-3.8176,-3.7473,-3.8056,-3.835,-3.843,-3.8415,-3.8138,-3.7775,-3.7613,-3.741,-3.7239,-3.7239,-3.7055,-3.6654,-3.5985,-3.5685,-3.5405,-3.4651,-3.3949,-3.344,-3.344,-3.3476,-3.3476,-3.3404,-3.4016,-3.4559,-3.4596,-3.4696,-3.4352,-3.3078,0.0,0.0,0.0,0.0,0.0,0.0,0.0,0.0,0.0,0.0,0.0,0.0,0.0,0.0,0.0,0.0,0.0,0.0,0.0,-3.1235,0.0,-2.9849,0.0,0.0,0.0,-2.8513,-2.9606,-2.9726,-3.0073,-3.0702,-3.1127,-3.1351,-3.1322,-3.119,-3.1338,-3.1658,-3.1041,-3.1359,-3.2283,-3.3038,-3.3761,-3.4414,-3.4414,-3.4414,-3.4414,-3.3916,-3.4766,-3.5602,-3.6356,-3.8224,-3.9746,-4.0028,-4.0404,-4.0774,-4.1083,-4.181,-4.2619,-4.3436,-4.3187,-4.2957,-4.2958,-4.2891,-4.2498,-4.1648,-4.1953,-4.1781,-4.0922,-4.0903,-4.0731,-4.0301,-3.907,-3.8156,-3.7604,-3.5439,-3.3894,-3.2947,-3.205,-3.186,-3.2367,-3.4055,-3.5603,-3.6998,0.0,0.0,-3.7517,-3.8352,-3.8387,-3.7984,-3.8627,-3.88,-3.8713,-3.8713,-3.8572,-3.8401,-3.8201,-3.7896,-3.7614,-3.7614,-3.7411,-3.7092,-3.6685,-3.6503,-3.625,-3.5478,-3.4985,-3.4599,-3.4214,-3.381,-3.3512,-3.3512,-3.381,-3.4091,-3.4091,-3.4353,-3.442,-3.3829,-3.3024,0.0,0.0,0.0,0.0,0.0,0.0,-2.5853,0.0,0.0,0.0,0.0,0.0,0.0,0.0,0.0,0.0,0.0,0.0,-3.123,0.0,0.0,0.0,0.0,0.0,0.0,-2.9086,-2.9415,-2.9881,-3.044,-3.1009,-3.1263,-3.1205,-3.1397,-3.1394,-3.1289,-3.1183,-3.1907,-3.3035,-3.3373,-3.3862,-3.4414,-3.4414,-3.4414,-3.4414,-3.5762,-3.6866,-3.7862,-3.8143,-3.9881,-4.1448,-4.2135,-4.2431,-4.2532,-4.2372,-4.287,-4.3548,-4.4384,-4.4479,-4.4672,-4.5122,-4.4671,-4.402,-4.3158,-4.3081,-4.2479,-4.116,-4.1543,-4.138,-4.0578,-4.0559,-4.0101,-3.9156,-3.8364,-3.6936,-3.4961,-3.4842,-3.5496,-3.6776,-3.7516,0.0,0.0,0.0,-3.786,-3.7794,-3.8508,-3.8674,-3.8532,-3.9094,-3.9183,-3.9064,-3.9021,-3.9017,-3.9031,-3.8876,-3.848,-3.8064,-3.8064,-3.7756,-3.7429,-3.7429,-3.7298,-3.6983,-3.6349,-3.6048,-3.5784,-3.5148,-3.4391,-3.3758,-3.3547,-3.3512,-3.3511,-3.3494,-3.3616,-3.3913,-3.4609,-3.4556,0.0,0.0,0.0,0.0,0.0,0.0,0.0,0.0,0.0,0.0,0.0,0.0,0.0,0.0,0.0,0.0,-3.0167,0.0,0.0,0.0,0.0,-3.0293,-2.9274,0.0,-2.8607,0.0,-2.9238,-2.9697,-3.0078,-3.0835,-3.1146,-3.1043,-3.1539,-3.1521,-3.1199,-3.1702,-3.2542,-3.3503,-3.3503,-3.3862,-3.4414,-3.4414,-3.4327,-3.4211,-3.9263,-3.9537,-4.0115,-4.1551,-4.2069,-4.25,-4.3247,-4.4033,-4.4448,-4.4183,-4.4221,-4.4553,-4.5293,-4.5379,-4.5092,-4.4365,-4.4892,-4.493,-4.4116,-4.402,-4.3914,-4.3761,-4.3062,-4.2278,-4.1399,-4.138,-4.0931,0.0,0.0,-3.7005,-3.1682,-3.6926,-3.9437,-3.9529,0.0,0.0,0.0,-3.9705,-3.9726,-3.9818,-3.977,-3.9746,-3.9731,-3.9604,-3.9551,-3.9514,-3.9389,-3.9427,-3.9539,-3.958,-3.9122,-3.8533,-3.8533,-3.8212,-3.7843,-3.7843,-3.7685,-3.7522,-3.7451,-3.6898,-3.6292,-3.6023,-3.5402,-3.4624,-3.3705,-3.3511,-3.3494,-3.3494,-3.3965,-3.4495,-3.4812,-3.4525,-3.4746,0.0,0.0,0.0,0.0,0.0,-3.1163,-3.0558,0.0,0.0,0.0,0.0,0.0,0.0,0.0,0.0,0.0,0.0,0.0,-3.2583,-3.2009,-3.1617,-3.1496,-2.957,-2.854,-2.8434,-2.9035,-2.9279,-2.923,-3.0353,-3.0851,-3.0865,-3.1311,-3.183,-3.2382,-3.3053,-3.3387,-3.3503,-3.3503,-3.3862,-3.4414,-3.4414,-3.4051,-3.359,-4.1339,-4.1828,-4.2217,-4.2331,-4.3257,0.0,0.0,-4.4645,-4.4986,-4.5311,-4.5322,-4.5402,-4.5646,-4.5688,-4.5489,-4.5025,-4.5275,-4.5093,-4.425,-4.4633,-4.4432,-4.3417,-4.3551,-4.3235,-4.2354,-4.1876,-4.1666,0.0,0.0,-4.0632,-3.8812,-4.061,-4.1154,0.0,0.0,-4.0313,-4.0753,-3.9784,-3.969,-4.0158,-3.9497,-3.9237,-3.9283,-3.9637,-3.9479,-3.9127,-3.9554,-3.9735,-3.9781,-3.9804,-3.9495,-3.9045,-3.8886,-3.8499,-3.8066,-3.7949,-3.7757,-3.7595,-3.7595,-3.7381,-3.7077,-3.6875,-3.6235,-3.5526,-3.5006,-3.4529,-3.4091,-3.3617,-3.3685,-3.3871,-3.402,-3.4625,-3.5183,0.0,0.0,0.0,0.0,0.0,0.0,-3.4042,0.0,-3.3727,0.0,0.0,0.0,0.0,0.0,0.0,0.0,0.0,0.0,-3.4,0.0,-3.2087,-3.2148,-3.0027,-2.8946,-2.8884,-2.9086,-2.9112,-2.9032,-3.0236,-3.1155,-3.1806,-3.1584,-3.2292,-3.3645,-3.3547,-3.3721,-3.4037,-3.4037,-3.4196,-3.437,-3.3978,-3.3721,-3.3387,-4.2789,0.0,-4.3591,0.0,-4.4179,-4.5075,-4.5281,-4.5318,-4.5503,-4.6025,-4.6057,-4.597,-4.5847,-4.5835,-4.5761,-4.5607,-4.5582,-4.5316,-4.4651,-4.5131,-4.4892,-4.3721,-4.424,0.0,-4.33,-4.2735,-4.2582,-4.2898,-4.2766,0.0,-4.0969,-4.0267,-4.0528,0.0,-4.1116,-4.1071,-4.1281,-4.0196,-3.9947,-4.0244,-3.9538,-3.9376,-3.9613,-3.9913,-3.9817,-3.957,-3.9851,-4.0146,-4.0357,-4.0325,-4.0314,-4.0202,-3.9384,-3.8795,-3.8392,-3.8154,-3.7933,-3.7775,-3.7775,-3.7775,-3.7721,-3.7447,-3.6965,-3.6413,-3.5921,-3.5407,-3.474,-3.3704,-3.3457,-3.3439,-3.3493,-3.4332,-3.4974,-3.4826,0.0,0.0,0.0,-3.5258,0.0,-3.6215,-3.6508,-3.6293,-3.5389,0.0,0.0,0.0,0.0,0.0,0.0,0.0,0.0,0.0,0.0,0.0,0.0,-3.0247,-2.9061,-2.8817,-2.8978,-2.8974,-2.8865,-3.0148,-3.1385,-3.2466,-3.1988,-3.2803,-3.4385,-3.3935,-3.4008,-3.4414,-3.4414,-3.4414,-3.4341,-3.3736,-3.3387,-3.3021,-4.3689,-4.369,-4.3963,-4.4824,-4.498,-4.5293,-4.6152,-4.6289,-4.6289,-4.6307,-4.6306,-4.6188,-4.5929,-4.5896,-4.5869,-4.5794,-4.58,-4.5734,-4.5584,-4.5531,-4.5485,0.0,0.0,-4.4998,-4.4192,-4.4173,-4.3751,-4.2898,0.0,0.0,-3.4128,-3.4114,-3.7215,-4.2775,-4.2775,-4.2297,-4.1495,-4.1476,-4.1017,-4.0301,-4.0282,-4.0769,-4.138,-4.0587,-4.0778,-4.1351,-4.0432,-4.0691,-4.1456,-4.1338,-4.1848,-4.2183,-4.0058,-3.9208,-3.8924,-3.8582,-3.8336,-3.8192,-3.8192,-3.8192,-3.8089,-3.7703,-3.7595,-3.7271,-3.6063,-3.5792,-3.5354,-3.3827,-3.3511,-3.3511,-3.3511,-3.3456,-3.3889,-3.5277,0.0,0.0,0.0,-3.5197,0.0,-3.6215,-3.6991,-3.7098,-3.6087,0.0,0.0,0.0,0.0,0.0,0.0,0.0,0.0,-3.4568,-3.3777,0.0,-3.2407,-3.0218,-2.8704,-2.791,-2.8598,-2.8821,-2.8752,-3.0031,-3.1293,-3.2481,-3.2481,-3.3238,-3.4414,-3.4399,-3.4399,-3.4414,-3.4414,-3.4414,-3.4341,-3.3736,-3.3064,-3.244,-4.5468,-4.5468,-4.5566,-4.584,-4.5898,-4.5976,-4.6269,-4.6308,-4.6308,-4.6308,-4.6307,-4.6264,-4.6184,-4.6081,-4.5987,0.0,-4.5878,-4.585,0.0,-4.5777,-4.5743,-4.5719,-4.5677,-4.5505,-4.5166,-4.4561,-4.4119,-4.385,0.0,0.0,0.0,-4.09,-4.1571,-4.2766,-4.2183,-4.1762,-4.1457,-4.0903,-4.053,-4.0301,-4.0301,-4.0454,-4.0711,-4.1017,-4.1285,-4.1533,-4.1838,-4.2134,-4.2393,-4.2334,-4.2515,-4.2463,-4.0969,-4.0377,-4.0051,-3.9212,-3.8872,-3.8715,-3.8566,-3.846,-3.8287,-3.7739,-3.7595,-3.7431,-3.6768,-3.6197,-3.5652,-3.5178,-3.467,-3.4144,-3.3599,-3.3457,-3.3615,-3.4305,-3.4066,0.0,-3.5498,-3.5402,-3.5473,-3.6215,-3.6525,-3.6492,0.0,-3.6997,0.0,0.0,0.0,0.0,0.0,0.0,0.0,0.0,-3.4935,0.0,-3.3627,-3.1387,-2.9938,-2.9335,-2.8939,-2.9202,-3.0016,-3.0423,-3.1293,-3.2481,-3.2481,-3.3206,-3.4414,-3.4414,-3.4534,-3.4702,-3.4182,-3.4298,-3.457,-3.297,-3.2432,-3.2367,-4.6308,-4.6308,-4.6308,-4.6308,-4.6308,-4.6308,-4.6308,-4.6582,-4.6797,-4.6797,-4.707,-4.7284,-4.7284,-4.7197,0.0,-4.6037,-4.5987,-4.5951,-4.5896,-4.5891,-4.588,-4.5846,-4.5803,-4.5759,-4.568,-4.5098,0.0,-4.4778,-4.4465,-4.4122,-4.3741,-4.3675,-4.336,-4.2804,-4.2278,-4.1867,-4.1532,-4.1007,-4.0596,-4.0329,-4.0616,-4.096,-4.1285,-4.18,-4.2183,-4.2469,-4.2717,-4.2985,-4.3252,-4.3252,-4.3252,-4.3069,-4.2017,-4.1396,-4.0806,-3.95,-3.9077,-3.8971,-3.8822,-3.8707,-3.8541,-3.8101,-3.7948,-3.781,-3.73,-3.6796,-3.6372,-3.6072,-3.5666,-3.5083,-3.4288,-3.3829,-3.36,-3.3635,-3.344,-3.3645,-3.4625,-3.5136,-3.5723,-3.6632,0.0,0.0,0.0,-3.7369,0.0,0.0,0.0,0.0,0.0,0.0,0.0,-3.5996,-3.4816,0.0,-3.3376,-3.1232,-2.9981,-2.9585,-2.9209,-2.9581,-3.0598,-3.0598,-3.1293,-3.2481,-3.2481,-3.3206,-3.4414,-3.4414,-3.4433,-3.4486,-3.437,-3.4505,-3.4611,-3.3016,-3.2501,-3.2436,-4.6308,-4.6308,-4.6328,0.0,-4.6387,0.0,-4.6465,-4.7168,-4.7695,-4.7695,-4.8398,-4.8906,-4.8906,-4.8906,-4.82,-4.6457,0.0,0.0,0.0,-4.5959,-4.5916,-4.5912,-4.5853,-4.5803,-4.5803,-4.568,-4.5612,-4.5594,-4.4792,-4.3986,-4.3188,-4.3059,-4.2994,-4.2994,-4.2878,-4.2399,-4.17,-4.1627,-4.113,-4.046,-4.1275,-4.2116,-4.2889,-4.2889,-4.3386,-4.3997,-4.3233,-4.3463,-4.4093,-4.4093,-4.4045,-4.3854,-4.3042,-4.2202,-4.1176,-3.9551,-3.9077,-3.9054,-3.8974,-3.8935,-3.8877,-3.8658,-3.8535,-3.8314,-3.7685,-3.756,-3.7345,-3.6648,-3.6505,-3.6273,-3.5468,-3.465,-3.393,-3.3387,-3.3494,-3.3476,-3.3056,-3.4514,-3.6073,0.0,0.0,0.0,0.0,-3.8185,-3.7513,0.0,0.0,0.0,0.0,0.0,-3.7495,-3.5164,-3.3786,-3.2746,-3.207,-3.0114,-2.9068,-2.8892,-2.9377,-2.9958,-3.0598,-3.0598,-3.1293,-3.2481,-3.2481,-3.3206,-3.4414,-3.4448,-3.4264,-3.4011,-3.4872,-3.5023,-3.4615,-3.3667,-3.3115,-3.266,0.0,0.0,-4.6504,-4.7187,-4.7285,-4.7519,-4.8183,-4.8457,-4.8594,-4.8594,-4.8769,-4.8906,-4.8906,-4.8906,-4.8711,-4.8278,-4.763,-4.7234,-4.7201,-4.6575,-4.6152,-4.605,-4.605,-4.5957,-4.5802,-4.5769,-4.57,-4.5594,-4.5385,-4.5192,-4.4962,-4.4294,-4.396,-4.3902,-4.2581,-4.1872,-4.17,-4.1691,-4.1567,-4.1433,-4.2229,-4.3063,-4.379,-4.379,-4.4326,-4.5033,-4.4782,-4.4869,-4.5072,-4.5072,-4.4582,-4.3864,-4.3053,-4.2202,-4.1294,-4.0276,-3.9851,-3.9651,-3.9489,-3.9272,-3.9045,-3.8703,-3.847,-3.8293,-3.808,-3.803,-3.7959,-3.7747,-3.7694,-3.7441,-3.6662,-3.6258,-3.5686,-3.4607,-3.4121,-3.3958,-3.409,-3.4553,-3.5173,0.0,-3.6558,-3.681,-3.6741,-3.661,-3.6588,0.0,0.0,0.0,-3.658,-3.6852,-3.6434,-3.5155,-3.4225,-3.3429,-3.2762,-3.0639,-2.9297,-2.8737,-2.9319,-2.9958,-3.0598,-3.0598,-3.1293,-3.2481,-3.2481,-3.3206,-3.4448,-3.4854,-3.5103,-3.5252,-3.5317,-3.564,-3.5823,-3.3918,-3.3394,-3.3366,-4.7498,-4.7499,-4.7636,-4.8105,-4.8183,-4.8359,-4.8828,-4.9238,-4.9492,-4.9492,-4.9805,-5.0039,-5.0039,-5.0039,-5.0039,-5.0039,-4.8906,-4.8027,-4.7635,-4.7166,-4.6674,-4.6213,-4.6132,-4.6034,-4.5896,-4.5832,-4.5754,-4.5648,-4.5622,-4.5594,-4.5594,-4.5126,-4.4685,-4.4263,-4.3314,-4.2691,-4.2337,-4.23,-4.2291,-4.2349,-4.3166,-4.3752,-4.4183,-4.4557,-4.4997,-4.54,-4.537,-4.538,-4.5342,-4.4978,-4.425,-4.334,-4.2508,-4.1647,-4.0873,-4.0425,-4.0157,-3.9954,-3.9781,-3.9623,-3.9452,-3.9141,-3.8985,-3.8824,-3.8545,-3.8468,-3.8452,-3.8423,-3.8407,-3.8295,-3.7854,-3.733,-3.6694,-3.5856,-3.5182,-3.4805,-3.4823,-3.5306,-3.5741,-3.5986,-3.6346,-3.6536,-3.6451,-3.6174,-3.6123,-3.6424,0.0,0.0,-3.6302,-3.6132,-3.5784,-3.5215,-3.4124,-3.3226,-3.2542,-3.0672,-2.9564,-2.9216,-3.0002,-3.0441,-3.0598,-3.0807,-3.1645,-3.2878,-3.2878,-3.3726,-3.5103,-3.5382,-3.5544,-3.5576,-3.58,-3.6038,-3.6043,-3.441,-3.3879,-3.3697,-4.8883,-4.8884,-4.8944,-4.9062,-4.9101,-4.914,-4.9258,-4.9902,-5.0371,-5.0371,-5.0976,-5.1406,-5.1406,-5.1406,-5.1406,-5.1406,-5.0098,-4.8867,-4.7851,-4.7676,-4.7207,-4.6348,-4.6198,-4.6099,-4.6036,-4.5901,-4.5796,-4.5735,-4.5665,-4.564,-4.5632,-4.5492,-4.5032,-4.432,-4.4179,-4.3739,-4.3104,-4.3167,-4.3188,-4.3265,-4.4085,-4.4403,-4.447,-4.517,-4.5419,-4.5419,-4.541,-4.541,-4.5285,-4.4489,-4.3626,-4.2754,-4.1885,-4.1024,-4.0326,-4.0319,-4.0225,-4.0098,-3.9984,-3.9922,-3.9859,-3.9701,-3.9654,-3.9526,-3.9027,-3.8933,-3.8919,-3.889,-3.8894,-3.8876,-3.8861,-3.8144,-3.7555,-3.754,-3.6755,-3.6125,-3.5982,0.0,-3.6934,-3.652,-3.6767,-3.6941,-3.6825,-3.6392,-3.6023,-3.5932,-3.5711,-3.56,-3.56,-3.5543,-3.5446,-3.5291,-3.3912,-3.2715,-3.1809,-3.0674,-2.9972,-2.9769,-3.0734,-3.0984,-3.0612,-3.1073,-3.202,-3.3285,-3.3377,-3.4359,-3.5913,-3.5976,-3.5849,-3.5672,-3.6367,-3.6368,-3.5875,-3.4936,-3.4383,-3.3842,-4.8814,-4.8858,-4.9136,-4.9862,-4.9999,-5.0234,-5.0918,-5.1133,-5.1211,-5.1211,-5.1328,-5.1406,-5.1406,-5.1406,-5.1406,-5.1406,-5.1152,-5.0351,-4.8808,-4.8008,-4.7207,-4.6348,-4.6289,-4.6243,-4.6173,-4.604,-4.5939,-4.5875,-4.5869,-4.5853,-4.5844,-4.5034,-4.4592,-4.4431,-4.3639,-4.322,-4.3143,-4.3808,-4.4096,-4.4173,-4.503,-4.5349,-4.5313,-4.5428,-4.5485,-4.5485,-4.5419,-4.5429,-4.5351,-4.4564,-4.3673,-4.2763,-4.1935,-4.1085,-4.0379,-4.0389,-4.0335,-4.0243,-4.0108,-3.9994,-3.99,-3.9867,-3.9856,-3.9781,-3.952,-3.9489,-3.9439,-3.9328,-3.932,-3.9275,-3.917,-3.8962,-3.929,-4.0724,-3.9469,-3.8585,-3.9319,0.0,-3.765,-3.6913,-3.7166,-3.7414,-3.7377,-3.6843,-3.6516,-3.6495,-3.5941,-3.56,-3.56,-3.5543,-3.5446,-3.5291,-3.4349,-3.289,-3.0929,-3.1244,-3.0817,-2.9624,-3.0352,-3.0657,-3.0612,-3.1073,-3.202,-3.3316,-3.3668,-3.4591,-3.5944,-3.6383,-3.6554,-3.6554,-3.7119,-3.6924,-3.6207,-3.541,-3.4748,-3.4062,-5.0198,-5.0239,-5.036,-5.0776,-5.0857,-5.0975,-5.1347,-5.1406,-5.1406,-5.1406,-5.1406,-5.1406,-5.1406,-5.1406,-5.1406,-5.1406,-5.1406,-5.0898,-4.9687,-4.8789,-4.791,-4.7031,-4.6543,-4.6267,-4.6204,-4.606,-4.5982,-4.5942,-4.5929,-4.5896,-4.5886,-4.5467,-4.5225,-4.5176,-4.4759,-4.4508,-4.447,-4.4844,-4.4998,-4.5037,-4.5441,-4.5577,-4.5559,-4.5559,-4.5559,-4.5559,-4.5513,-4.5234,-4.4733,-4.3917,-4.3043,-4.2162,-4.1308,-4.0773,-4.0441,-4.0415,-4.0362,-4.0289,-4.0225,-4.0157,-4.0106,-4.0026,-4.0015,-3.9943,-3.9705,-3.9658,-3.963,-3.9527,-3.9482,-3.9425,-3.9367,-3.9215,-3.9517,-4.0785,-3.9786,-3.9148,-3.9982,-3.9161,-3.8334,-3.7922,-3.7832,-3.7791,-3.772,-3.7057,-3.656,-3.6498,-3.5941,-3.56,-3.56,-3.5543,-3.5446,-3.5291,-3.4376,-3.3202,-3.179,-3.1936,-3.1682,-3.1057,-3.1486,-3.1522,-3.1321,-3.1794,-3.2751,-3.4059,-3.4251,-3.5273,-3.68,-3.7029,-3.7059,-3.6952,-3.6847,-3.6531,-3.6019,-3.4968,-3.4427,-3.4062,-5.1405,-5.1407,-5.1408,-5.1395,-5.14,-5.1403,-5.1404,-5.1405,-5.1406,-5.1406,-5.1406,-5.1406,-5.1406,-5.1406,-5.1406,-5.1406,-5.1406,-5.1133,-5.0527,-4.9492,-4.8516,-4.7637,-4.6777,-4.6287,-4.6215,-4.6119,-4.6066,-4.6063,-4.6011,-4.5981,-4.5997,-4.5959,-4.5924,-4.5861,-4.5832,-4.5764,-4.5665,-4.5657,-4.5657,-4.5661,-4.561,-4.562,-4.5635,-4.5612,-4.5594,-4.5594,-4.5594,-4.5171,-4.447,-4.3662,-4.2931,-4.2231,-4.1371,-4.1094,-4.1086,-4.1044,-4.0991,-4.0889,-4.0672,-4.0453,-4.0282,-4.0166,-4.0147,-4.0077,-3.9848,-3.9762,-3.9724,-3.9644,-3.9715,-3.9733,-3.952,-3.945,-3.9788,-4.0833,0.0,-3.9549,-4.0487,-3.9724,-3.8983,-3.8726,-3.8417,-3.8201,-3.8099,-3.7267,-3.6701,-3.6583,-3.5968,-3.56,-3.56,-3.5566,-3.5452,-3.5291,-3.4496,-3.3695,-3.2948,-3.2704,-3.2458,-3.2308,-3.2379,-3.2256,-3.1908,-3.2382,-3.3373,-3.4705,-3.482,-3.5864,-3.751,-3.751,-3.7405,-3.7207,-3.6704,-3.6207,-3.5681,-3.4745,-3.4207,-3.3873,-5.1394,-5.1396,-5.1398,-5.1408,-5.1391,-5.1393,-5.1398,-5.1403,-5.1405,-5.1405,-5.1406,-5.1406,-5.1406,-5.1406,-5.1406,-5.1406,-5.1406,-5.1367,-5.1328,-4.9805,-4.8516,-4.7637,-4.6777,-4.6308,-4.6289,-4.6289,-4.6287,-4.6284,-4.6265,-4.6262,-4.6277,-4.6145,-4.6081,-4.6072,-4.5944,-4.5881,-4.5867,-4.5808,-4.5814,-4.5855,-4.5685,-4.5676,-4.5771,-4.5654,-4.5594,-4.5594,-4.5594,-4.5556,-4.5364,-4.4489,-4.4162,-4.397,-4.3162,-4.2904,-4.2904,-4.2904,-4.2859,-4.2616,-4.1741,-4.0919,-4.0308,-4.0291,-4.0291,-4.0244,-4.0087,-3.9965,-3.9856,-3.9717,-4.0227,-4.044,-3.9562,-3.9989,-4.0996,-4.2555,0.0,0.0,-4.2268,-4.1002,-3.9611,-3.8799,-3.8658,-3.8643,-3.8643,-3.7738,-3.7135,-3.7135,-3.6186,-3.56,-3.56,-3.56,-3.5503,-3.5314,-3.4994,-3.4456,-3.3747,-3.3463,-3.2971,-3.2308,-3.2046,-3.1936,-3.1908,-3.2382,-3.3373,-3.4718,-3.5166,-3.6156,-3.751,-3.751,-3.748,-3.7464,-3.7417,-3.6611,-3.5429,-3.5347,-3.4466,-3.3345,-5.1394,-5.1394,-5.1396,-5.14,-5.1405,-5.139,-5.1393,-5.1398,-5.1401,-5.1401,-5.1402,-5.1404,-5.1405,-5.1406,-5.1406,-5.1406,-5.1406,-5.1191,-5.0683,-4.9551,-4.8262,-4.6855,-4.6484,-4.6308,-4.6308,-4.6308,-4.6308,-4.6308,-4.6308,-4.6308,-4.6307,-4.6245,-4.6171,-4.6101,-4.6042,-4.5981,-4.5899,-4.5867,-4.5872,-4.59,-4.5822,-4.5811,-4.5864,-4.5814,-4.5757,-4.5711,-4.5727,-4.5321,-4.4739,-4.4412,-4.397,-4.3508,-4.3201,-4.3104,-4.3201,-4.3701,-4.3462,-4.3082,-4.3195,-4.2555,-4.1848,-4.1848,-4.1858,-4.1656,-4.0959,-4.1138,-4.1245,-4.0527,-4.0928,-4.1322,-4.1023,-4.1106,-4.1419,-4.2097,0.0,-4.0406,-4.1005,-4.0024,-3.9111,-3.8726,-3.8707,-3.8707,-3.8707,-3.8048,-3.7632,-3.7632,-3.6686,-3.6097,-3.6097,-3.565,-3.5383,-3.5291,-3.5041,-3.4763,-3.4472,-3.4052,-3.3774,-3.3656,-3.323,-3.3007,-3.3007,-3.3208,-3.3702,-3.4478,-3.5117,-3.5932,-3.6864,-3.7291,-3.7435,-3.7282,-3.6961,-3.6443,-3.5789,-3.5019,-3.4367,-3.3862,-5.1394,-5.1394,-5.1394,-5.1394,-5.14,-5.1405,-5.1405,-5.1391,-5.1396,-5.1396,-5.1397,-5.14,-5.1403,-5.1403,-5.1404,-5.1405,-5.1406,-5.1054,-5.0254,-4.9121,-4.7832,-4.6367,-4.6308,-4.6308,-4.6308,-4.6308,-4.6308,-4.6308,-4.6308,-4.6308,-4.6308,-4.6308,-4.6249,-4.6158,-4.6156,-4.6119,-4.6017,-4.5985,-4.5985,-4.6021,-4.5924,-4.5935,-4.5955,-4.5914,-4.5871,-4.5832,-4.5821,-4.5382,-4.4807,-4.4793,-4.4445,-4.3982,-4.3982,-4.3964,-4.406,-4.4619,-4.4347,-4.3991,-4.445,-4.4116,-4.3475,-4.2947,-4.2794,-4.2601,-4.1865,-4.2052,-4.2184,-4.1449,-4.1817,-4.2202,-4.1948,-4.2011,-4.2023,-4.1715,-4.087,-4.0215,-4.0095,-3.9353,-3.8795,-3.8707,-3.8707,-3.8707,-3.8707,-3.8216,-3.7893,-3.7893,-3.7117,-3.658,-3.6395,-3.5876,-3.5487,-3.5314,-3.5065,-3.4947,-3.4899,-3.4448,-3.4325,-3.4497,-3.405,-3.3771,-3.3694,-3.3771,-3.4,-3.4363,-3.5173,-3.5874,-3.6456,-3.7196,-3.7435,-3.7252,-3.6884,-3.654,-3.6151,-3.5051,-3.4494,-3.4194,-5.1394,-5.1394,-5.1394,-5.1394,-5.1394,-5.1394,-5.1394,-5.1403,-5.1409,-5.1409,-5.1395,-5.1398,-5.1398,-5.1398,-5.1398,-5.1398,-5.1383,-5.1053,-5.0233,-4.8554,-4.7207,-4.6348,-4.6308,-4.6308,-4.6308,-4.6308,-4.6308,-4.6308,-4.6308,-4.6307,-4.6307,-4.6304,-4.6301,-4.6301,-4.6306,-4.6307,-4.6288,-4.6153,-4.6171,-4.6285,-4.6014,-4.5974,-4.6084,-4.5955,-4.5903,-4.5899,-4.5896,-4.5906,-4.5901,-4.589,-4.5905,-4.5905,-4.5899,-4.5859,-4.5807,-4.5807,-4.5715,-4.5577,-4.5438,-4.541,-4.4978,-4.3244,-4.2813,-4.2813,-4.2813,-4.2618,-4.242,-4.2401,-4.2875,-4.3018,-4.2093,-4.2622,-4.2871,-4.1783,-4.094,-4.0329,-4.0056,-3.9307,-3.8795,-3.8741,-3.8707,-3.8707,-3.8707,-3.8216,-3.7911,-3.7911,-3.747,-3.6962,-3.6437,-3.6274,-3.5929,-3.5337,-3.5175,-3.5041,-3.4899,-3.4659,-3.4497,-3.4497,-3.4226,-3.3975,-3.3736,-3.3975,-3.4166,-3.4347,-3.5366,-3.6027,-3.6469,-3.7209,-3.751,-3.751,-3.751,-3.7054,-3.6314,-3.5647,-3.492,-3.4209,-5.1388,-5.1394,-5.1394,-5.1394,-5.1394,-5.1394,-5.1394,-5.1396,-5.14,-5.14,-5.1402,-5.1405,-5.1391,-5.1393,-5.1394,-5.1398,-5.0833,-4.9897,-4.8472,-4.732,-4.6579,-4.6305,-4.6308,-4.6308,-4.6308,-4.6308,-4.6308,-4.6307,-4.6307,-4.6306,-4.6303,-4.6302,-4.6301,-4.6301,-4.6303,-4.6304,-4.6304,-4.6269,-4.6269,-4.6287,-4.6209,-4.6208,-4.6247,-4.62,-4.6119,-4.6039,-4.604,-4.5983,-4.5909,-4.59,-4.5906,-4.5906,-4.591,-4.5897,-4.5869,-4.5869,-4.5815,-4.5749,-4.5749,-4.5684,-4.5445,-4.4728,-4.4551,-4.4378,-4.3713,-4.3874,-4.398,-4.3308,-4.3651,-4.4008,-4.3779,-4.3844,-4.3665,-4.2729,-4.2296,-4.1842,-4.1151,-4.0277,-3.9902,-4.0399,-3.9461,-3.897,-3.9494,-3.8891,-3.8465,-3.8465,-3.7981,-3.7488,-3.6999,-3.6827,-3.6548,-3.6101,-3.5847,-3.5577,-3.5241,-3.4763,-3.4594,-3.478,-3.4497,-3.4349,-3.4275,-3.4349,-3.4314,-3.4217,-3.5529,-3.6147,-3.6355,-3.7592,-3.8135,-3.8135,-3.8135,-3.7847,-3.7294,-3.6127,-3.5415,-3.4889,-5.1238,-5.1288,-5.1325,-5.1325,-5.1362,-5.1394,-5.1394,-5.1394,-5.1394,-5.1394,-5.1394,-5.1396,-5.1403,-5.1403,-5.1268,-5.0921,-4.9792,-4.8681,-4.7668,-4.677,-4.6301,-4.6301,-4.6306,-4.6307,-4.6307,-4.6307,-4.6307,-4.6305,-4.6304,-4.6301,-4.6299,-4.6296,-4.6295,-4.6295,-4.6297,-4.6299,-4.6299,-4.6301,-4.6301,-4.6301,-4.6301,-4.6303,-4.6306,-4.6308,-4.6249,-4.6178,-4.6188,-4.6128,-4.6059,-4.6053,-4.6066,-4.6053,-4.6056,-4.6025,-4.5977,-4.5987,-4.5908,-4.5841,-4.5889,-4.5841,-4.5735,-4.5541,-4.5437,-4.5227,-4.4595,-4.4718,-4.4823,-4.4258,-4.4379,-4.46,-4.4659,-4.4551,-4.4257,-4.3629,-4.3129,-4.263,-4.2014,-4.1172,-4.0779,-4.123,-4.0419,-3.9998,-4.0452,-4.0016,-3.9546,-3.9203,-3.8873,-3.834,-3.7524,-3.7397,-3.7137,-3.6649,-3.649,-3.6243,-3.5959,-3.5576,-3.5266,-3.497,-3.4763,-3.4594,-3.4497,-3.4594,-3.4448,-3.4165,-3.5704,-3.6296,-3.6303,-3.7792,-3.8391,-3.8391,-3.8391,-3.8278,-3.7958,-3.68,-3.6112,-3.5564,-5.1002,-5.1108,-5.1191,-5.1199,-5.1297,-5.139,-5.1394,-5.1394,-5.1394,-5.1394,-5.1394,-5.1394,-5.1394,-5.1394,-5.1043,-5.0182,-4.8569,-4.7563,-4.7492,-4.675,-4.6301,-4.6301,-4.6299,-4.6278,-4.6278,-4.6281,-4.6301,-4.6301,-4.6296,-4.6293,-4.6291,-4.6305,-4.63,-4.6302,-4.6308,-4.6293,-4.6293,-4.6299,-4.6301,-4.6301,-4.6301,-4.6301,-4.6301,-4.6305,-4.6306,-4.6307,-4.6308,-4.6307,-4.6307,-4.6305,-4.6302,-4.6301,-4.6296,-4.6214,-4.6114,-4.6118,-4.6017,-4.5915,-4.5924,-4.5928,-4.5892,-4.5819,-4.5678,-4.55,-4.5371,-4.5205,-4.5095,-4.5125,-4.4991,-4.4895,-4.4895,-4.4796,-4.464,-4.4393,-4.3623,-4.2981,-4.2804,-4.2057,-4.1561,-4.1635,-4.1508,-4.1419,-4.1493,-4.1322,-4.0877,-4.0081,-4.0008,-3.9447,-3.8141,-3.8088,-3.7792,-3.7118,-3.708,-3.7006,-3.6853,-3.6833,-3.6267,-3.5205,-3.5071,-3.4859,-3.4618,-3.4835,-3.4691,-3.4315,-3.5978,-3.6548,-3.6409,-3.7903,-3.8476,-3.8476,-3.8476,-3.8448,-3.8367,-3.7605,-3.6875,-3.6076,-5.0984,-5.1025,-5.1074,-5.1172,-5.1218,-5.1284,-5.1388,-5.1394,-5.1394,-5.1394,-5.1394,-5.1394,-5.1394,-5.1394,-5.1043,-5.0182,-4.8564,-4.7318,-4.6638,-4.6404,-4.6306,-4.6306,-4.6197,-4.6134,-4.6134,-4.6246,-4.63,-4.6295,-4.6294,-4.6309,-4.6303,-4.6302,-4.63,-4.63,-4.6303,-4.6303,-4.6303,-4.6305,-4.6306,-4.6306,-4.6306,-4.629,-4.6295,-4.6296,-4.63,-4.6303,-4.6305,-4.6305,-4.6306,-4.6308,-4.6307,-4.6305,-4.6301,-4.6277,-4.6252,-4.6251,-4.6158,-4.6089,-4.6175,-4.6144,-4.6045,-4.5962,-4.5915,-4.585,-4.5667,-4.5343,-4.5129,-4.522,-4.5065,-4.4895,-4.4895,-4.4889,-4.4821,-4.47,-4.4436,-4.4205,-4.4106,-4.3204,-4.2791,-4.3364,-4.2282,-4.1702,-4.2284,-4.1736,-4.1214,-4.0873,-4.0901,-4.0483,-3.9532,-3.9479,-3.8971,-3.7896,-3.7755,-3.7542,-3.7194,-3.7042,-3.6631,-3.5955,-3.583,-3.5621,-3.5356,-3.531,-3.5241,-3.5208,-3.6783,-3.7311,-3.7193,-3.8649,-3.9191,-3.911,-3.911,-3.8931,-3.864,-3.7932,-3.7063,-3.6011,-5.0737,-5.084,-5.0926,-5.0997,-5.1053,-5.115,-5.1288,-5.13,-5.1325,-5.1384,-5.1408,-5.1408,-5.1408,-5.1035,-5.0276,-4.9011,-4.7725,-4.6788,-4.6339,-4.63,-4.6273,-4.6211,-4.6138,-4.6064,-4.6,-4.6066,-4.6108,-4.6118,-4.6118,-4.6131,-4.6209,-4.6209,-4.6243,-4.63,-4.63,-4.63,-4.63,-4.63,-4.63,-4.63,-4.63,-4.6303,-4.6308,-4.6291,-4.6295,-4.6299,-4.6301,-4.6301,-4.6302,-4.6306,-4.6308,-4.6308,-4.6307,-4.6306,-4.6304,-4.6302,-4.6251,-4.6216,-4.627,-4.6257,-4.6192,-4.6159,-4.6066,-4.5957,-4.5783,-4.558,-4.5442,-4.5468,-4.5343,-4.5192,-4.5197,-4.5084,-4.4967,-4.4907,-4.4738,-4.4578,-4.4515,-4.3922,-4.3662,-4.4048,-4.3265,-4.2835,-4.3183,-4.2834,-4.2379,-4.1864,-4.1859,-4.1475,-4.057,-4.0515,-4.0033,-3.8984,-3.888,-3.8564,-3.7964,-3.8238,-3.7954,-3.7098,-3.6614,-3.6309,-3.6172,-3.6113,-3.6071,-3.6139,-3.7703,-3.8168,-3.7929,-3.9394,-3.9808,-3.959,-3.9511,-3.9388,-3.9139,-3.8427,-3.7338,-3.6047,-5.05,-5.0625,-5.0752,-5.0786,-5.0877,-5.1002,-5.1137,-5.1174,-5.1215,-5.1323,-5.1358,-5.1364,-5.1341,-5.0472,-4.9252,-4.7721,-4.6805,-4.63,-4.63,-4.63,-4.6243,-4.6102,-4.6087,-4.6,-4.5897,-4.585,-4.5861,-4.5899,-4.5899,-4.5969,-4.6061,-4.6095,-4.617,-4.6271,-4.6298,-4.6378,-4.6515,-4.6515,-4.6515,-4.6515,-4.6515,-4.6436,-4.6302,-4.6308,-4.6291,-4.6291,-4.6297,-4.63,-4.6301,-4.6301,-4.6303,-4.6306,-4.6308,-4.6308,-4.6307,-4.6306,-4.6304,-4.6302,-4.6297,-4.6295,-4.6293,-4.6305,-4.617,-4.6022,-4.5915,-4.583,-4.5783,-4.5764,-4.5633,-4.5536,-4.5537,-4.5361,-4.5175,-4.5121,-4.4893,-4.4726,-4.4661,-4.4477,-4.4354,-4.4354,-4.4185,-4.4033,-4.3929,-4.3913,-4.3603,-4.286,-4.282,-4.2419,-4.1493,-4.1422,-4.1006,-4.0152,-4.0118,-3.9772,-3.9129,-3.9772,-3.9591,-3.8602,-3.7738,-3.7188,-3.6911,-3.6892,-3.6892,-3.698,-3.8526,-3.8961,-3.8671,-4.0008,-4.0341,-3.9995,-3.9807,-3.9764,-3.9766,-3.9101,-3.7947,-3.6548,-5.05,-5.0513,-5.0586,-5.0678,-5.0731,-5.0809,-5.1011,-5.1035,-5.1035,-5.1053,-5.1157,-5.1202,-5.1161,-4.9851,-4.8584,-4.7591,-4.6763,-4.63,-4.63,-4.63,-4.6243,-4.6102,-4.5992,-4.5892,-4.5815,-4.5704,-4.5725,-4.5899,-4.5899,-4.591,-4.5925,-4.6049,-4.6105,-4.6138,-4.6245,-4.6729,-4.7411,-4.7411,-4.7411,-4.7411,-4.7411,-4.6963,-4.63,-4.6302,-4.6302,-4.6302,-4.6303,-4.6308,-4.6294,-4.6294,-4.6299,-4.6302,-4.6303,-4.6306,-4.6307,-4.6308,-4.6308,-4.6306,-4.6306,-4.6304,-4.63,-4.6294,-4.6287,-4.6241,-4.6243,-4.6005,-4.5832,-4.5944,-4.5802,-4.5662,-4.5667,-4.565,-4.5616,-4.5607,-4.5427,-4.5294,-4.5285,-4.5099,-4.4973,-4.4973,-4.465,-4.4318,-4.402,-4.3989,-4.3889,-4.3673,-4.3684,-4.3349,-4.2456,-4.2302,-4.1866,-4.1059,-4.0979,-4.0875,-4.0783,-4.0875,-4.0859,-4.0681,-3.9867,-3.8752,-3.7414,-3.7286,-3.7231,-3.732,-3.8935,-3.9449,-3.9252,-4.0376,-4.0692,-4.0397,-4.0028,-4.0087,-4.0367,-4.0077,-3.9395,-3.846,-5.0382,-5.0424,-5.0459,-5.0526,-5.0567,-5.0653,-5.0813,-5.0859,-5.0889,-5.0893,-5.0972,-5.1002,-5.0933,-4.9557,-4.8109,-4.6787,-4.6418,-4.6243,-4.6243,-4.6288,-4.6217,-4.5998,-4.5939,-4.5834,-4.57,-4.5637,-4.5643,-4.5684,-4.5684,-4.5701,-4.5725,-4.5783,-4.61,-4.66,-4.6663,-4.7187,-4.7961,-4.746,-4.7323,-4.7392,-4.6908,-4.6545,-4.63,-4.63,-4.63,-4.63,-4.63,-4.6303,-4.6306,-4.6306,-4.6291,-4.6297,-4.6297,-4.6301,-4.6305,-4.6306,-4.6308,-4.6308,-4.6307,-4.6306,-4.6304,-4.63,-4.6299,-4.6297,-4.6295,-4.6199,-4.6082,-4.6114,-4.5987,-4.5859,-4.5828,-4.5777,-4.5742,-4.5706,-4.5552,-4.546,-4.546,-4.5255,-4.5066,-4.5003,-4.4827,-4.4669,-4.4521,-4.4489,-4.4482,-4.4414,-4.4441,-4.4242,-4.3683,-4.3602,-4.3096,-4.2063,-4.1931,-4.1648,-4.1158,-4.155,-4.1535,-4.1095,-4.1203,-4.0396,-3.8821,-3.8299,-3.8083,-3.8174,-3.9786,-4.0275,-4.001,-4.1342,-4.1686,-4.1318,-4.1059,-4.0803,-4.0521,-3.9919,-3.9185,-3.8348]},{"header":{"parameterUnit":"m.s-1","parameterCategory":1,"la1":30.6,"la2":28.766,"lo1":-90.7593,"lo2":-88.6598,"dx":0.0162,"dy":0.0183,"nx":116,"ny":114,"refTime":"2022-12-04T06:00:00:Z","depth":0,"parameterNumber":3,"parameterNumberName":"V-component_of_WINDS"},"data":[0.0,0.0,0.0,0.0,0.0,0.0,0.0,0.0,0.0,0.0,0.0,0.0,0.0,0.0,0.0,0.0,0.0,0.0,0.0,0.0,0.0,0.0,0.0,0.0,0.0,0.0,0.0,0.0,0.0,0.0,0.0,0.0,0.0,0.0,0.0,0.0,0.0,0.0,0.0,0.0,0.0,0.0,0.0,0.0,0.0,0.0,0.0,0.0,0.0,0.0,0.0,0.0,0.0,0.0,0.0,0.0,0.0,0.0,0.0,0.0,0.0,0.0,0.0,0.0,0.0,0.0,0.0,0.0,0.0,0.0,0.0,0.0,0.0,0.0,0.0,0.0,0.0,0.0,0.0,0.0,0.0,0.0,0.0,0.0,0.0,0.0,0.0,0.0,0.0,0.0,0.0,0.0,0.0,0.0,0.0,0.0,0.0,0.0,0.0,0.0,0.0,0.0,0.0,0.0,0.0,0.0,0.0,0.0,0.0,0.0,0.0,0.0,0.0,0.0,0.0,0.0,0.0,0.0,0.0,0.0,0.0,0.0,0.0,0.0,0.0,0.0,0.0,0.0,0.0,0.0,0.0,0.0,0.0,0.0,0.0,0.0,0.0,0.0,0.0,0.0,0.0,0.0,0.0,0.0,0.0,0.0,0.0,0.0,0.0,0.0,0.0,0.0,0.0,0.0,0.0,0.0,0.0,0.0,0.0,0.0,0.0,0.0,0.0,0.0,0.0,0.0,0.0,0.0,0.0,0.0,0.0,0.0,0.0,0.0,0.0,0.0,0.0,0.0,0.0,0.0,0.0,0.0,0.0,0.0,0.0,0.0,0.0,0.0,0.0,0.0,0.0,0.0,0.0,0.0,0.0,0.0,0.0,0.0,0.0,0.0,0.0,0.0,0.0,0.0,0.0,0.0,0.0,0.0,0.0,0.0,0.0,0.0,0.0,0.0,0.0,0.0,0.0,0.0,0.0,0.0,0.0,0.0,0.0,0.0,0.0,0.0,0.0,0.0,0.0,0.0,0.0,0.0,0.0,0.0,0.0,0.0,0.0,0.0,0.0,0.0,0.0,0.0,0.0,0.0,0.0,0.0,0.0,0.0,0.0,0.0,0.0,0.0,0.0,0.0,0.0,0.0,0.0,0.0,0.0,0.0,0.0,0.0,0.0,0.0,0.0,0.0,0.0,0.0,0.0,0.0,0.0,0.0,0.0,0.0,0.0,0.0,0.0,0.0,0.0,0.0,0.0,0.0,0.0,0.0,0.0,0.0,0.0,0.0,0.0,0.0,0.0,0.0,0.0,0.0,0.0,0.0,0.0,0.0,0.0,0.0,0.0,0.0,0.0,0.0,0.0,0.0,0.0,0.0,0.0,0.0,0.0,0.0,0.0,0.0,0.0,0.0,0.0,0.0,0.0,0.0,0.0,0.0,0.0,0.0,0.0,0.0,0.0,0.0,0.0,0.0,0.0,0.0,0.0,0.0,0.0,0.0,0.0,0.0,0.0,0.0,0.0,0.0,0.0,0.0,0.0,0.0,0.0,0.0,0.0,0.0,0.0,0.0,0.0,0.0,0.0,0.0,0.0,0.0,0.0,0.0,0.0,0.0,0.0,0.0,0.0,0.0,0.0,0.0,0.0,0.0,0.0,0.0,0.0,0.0,0.0,0.0,0.0,0.0,0.0,0.0,0.0,0.0,0.0,0.0,0.0,0.0,0.0,0.0,0.0,0.0,0.0,0.0,0.0,0.0,0.0,0.0,0.0,0.0,0.0,0.0,0.0,0.0,0.0,0.0,0.0,0.0,0.0,0.0,0.0,0.0,0.0,0.0,0.0,0.0,0.0,0.0,0.0,0.0,0.0,0.0,0.0,0.0,0.0,0.0,0.0,0.0,0.0,0.0,0.0,0.0,0.0,0.0,0.0,0.0,0.0,0.0,0.0,0.0,0.0,0.0,0.0,0.0,0.0,0.0,0.0,0.0,0.0,0.0,0.0,0.0,0.0,0.0,0.0,0.0,0.0,0.0,0.0,0.0,0.0,0.0,0.0,0.0,0.0,0.0,0.0,0.0,0.0,0.0,0.0,0.0,0.0,0.0,0.0,0.0,0.0,0.0,0.0,0.0,0.0,0.0,0.0,0.0,0.0,0.0,0.0,0.0,0.0,0.0,0.0,0.0,0.0,0.0,0.0,0.0,0.0,0.0,0.0,0.0,0.0,0.0,0.0,0.0,0.0,0.0,0.0,0.0,0.0,0.0,0.0,0.0,0.0,0.0,0.0,0.0,0.0,0.0,0.0,0.0,0.0,0.0,0.0,0.0,0.0,0.0,0.0,0.0,0.0,0.0,0.0,0.0,0.0,0.0,0.0,0.0,0.0,0.0,0.0,0.0,0.0,0.0,0.0,0.0,0.0,0.0,0.0,0.0,0.0,0.0,0.0,0.0,0.0,0.0,0.0,0.0,0.0,0.0,0.0,0.0,0.0,0.0,0.0,0.0,0.0,0.0,0.0,0.0,0.0,0.0,0.0,0.0,0.0,0.0,0.0,0.0,0.0,0.0,0.0,0.0,0.0,0.0,0.0,0.0,0.0,0.0,0.0,0.0,0.0,0.0,0.0,0.0,0.0,0.0,0.0,0.0,0.0,0.0,0.0,0.0,0.0,0.0,0.0,0.0,0.0,0.0,0.0,0.0,0.0,0.0,0.0,0.0,0.0,0.0,0.0,0.0,0.0,0.0,0.0,0.0,0.0,0.0,0.0,0.0,0.0,0.0,0.0,0.0,0.0,0.0,0.0,0.0,0.0,0.0,0.0,0.0,0.0,0.0,0.0,0.0,0.0,0.0,0.0,0.0,0.0,0.0,0.0,0.0,0.0,0.0,0.0,0.0,0.0,0.0,0.0,0.0,0.0,0.0,0.0,0.0,0.0,0.0,0.0,0.0,0.0,0.0,0.0,0.0,0.0,0.0,0.0,0.0,0.0,0.0,0.0,0.0,0.0,0.0,0.0,0.0,0.0,0.0,0.0,0.0,0.0,0.0,0.0,0.0,0.0,0.0,0.0,0.0,0.0,0.0,0.0,0.0,0.0,0.0,0.0,0.0,0.0,0.0,0.0,0.0,0.0,0.0,0.0,0.0,0.0,0.0,0.0,0.0,0.0,0.0,0.0,0.0,0.0,0.0,0.0,0.0,0.0,0.0,0.0,0.0,0.0,0.0,0.0,0.0,0.0,0.0,0.0,0.0,0.0,0.0,0.0,0.0,0.0,0.0,0.0,0.0,0.0,0.0,0.0,0.0,0.0,0.0,0.0,0.0,0.0,0.0,0.0,0.0,0.0,0.0,0.0,0.0,0.0,0.0,0.0,0.0,0.0,0.0,0.0,0.0,0.0,0.0,0.0,0.0,0.0,0.0,0.0,0.0,0.0,0.0,0.0,0.0,0.0,0.0,0.0,0.0,0.0,0.0,0.0,0.0,0.0,0.0,0.0,0.0,0.0,0.0,0.0,0.0,0.0,0.0,0.0,0.0,0.0,0.0,0.0,0.0,0.0,0.0,0.0,0.0,0.0,0.0,0.0,0.0,0.0,0.0,0.0,0.0,0.0,0.0,0.0,0.0,0.0,0.0,0.0,0.0,0.0,0.0,0.0,0.0,0.0,0.0,0.0,0.0,0.0,0.0,0.0,0.0,0.0,0.0,0.0,0.0,0.0,0.0,0.0,0.0,0.0,0.0,0.0,0.0,0.0,0.0,0.0,0.0,0.0,0.0,0.0,0.0,0.0,0.0,0.0,0.0,0.0,0.0,0.0,0.0,0.0,0.0,0.0,0.0,0.0,0.0,0.0,0.0,0.0,0.0,0.0,0.0,0.0,0.0,0.0,0.0,0.0,0.0,0.0,0.0,0.0,0.0,0.0,0.0,0.0,0.0,0.0,0.0,0.0,0.0,0.0,0.0,0.0,0.0,0.0,0.0,0.0,0.0,0.0,0.0,0.0,0.0,0.0,0.0,0.0,0.0,0.0,0.0,0.0,0.0,0.0,0.0,0.0,0.0,0.0,0.0,0.0,0.0,0.0,0.0,0.0,0.0,0.0,0.0,0.0,0.0,0.0,0.0,0.0,0.0,0.0,0.0,0.0,0.0,0.0,0.0,0.0,0.0,0.0,0.0,0.0,0.0,0.0,0.0,0.0,0.0,0.0,0.0,0.0,0.0,0.0,0.0,0.0,0.0,0.0,0.0,0.0,0.0,0.0,0.0,0.0,0.0,0.0,0.0,0.0,0.0,0.0,0.0,0.0,0.0,0.0,0.0,0.0,0.0,0.0,0.0,0.0,0.0,0.0,0.0,0.0,0.0,0.0,0.0,0.0,0.0,0.0,0.0,0.0,0.0,0.0,0.0,0.0,0.0,0.0,0.0,0.0,0.0,0.0,0.0,0.0,0.0,0.0,0.0,0.0,0.0,0.0,0.0,0.0,0.0,0.0,0.0,0.0,0.0,0.0,0.0,0.0,0.0,0.0,0.0,0.0,0.0,0.0,0.0,0.0,0.0,0.0,0.0,0.0,0.0,0.0,0.0,0.0,0.0,0.0,0.0,0.0,0.0,0.0,0.0,0.0,0.0,0.0,0.0,0.0,0.0,0.0,0.0,0.0,0.0,0.0,0.0,0.0,0.0,0.0,0.0,0.0,0.0,0.0,0.0,0.0,0.0,0.0,0.0,0.0,0.0,0.0,0.0,0.0,0.0,0.0,0.0,0.0,0.0,0.0,0.0,0.0,0.0,0.0,0.0,0.0,0.0,0.0,0.0,0.0,0.0,0.0,0.0,0.0,0.0,0.0,0.0,0.0,0.0,0.0,0.0,0.0,0.0,0.0,0.0,0.0,0.0,0.0,0.0,0.0,0.0,0.0,0.0,0.0,0.0,0.0,0.0,0.0,0.0,0.0,0.0,0.0,0.0,0.0,0.0,0.0,0.0,0.0,0.0,0.0,0.0,0.0,0.0,0.0,0.0,0.0,0.0,0.0,0.0,0.0,0.0,0.0,0.0,0.0,0.0,0.0,0.0,0.0,0.0,0.0,0.0,0.0,0.0,0.0,0.0,0.0,0.0,0.0,0.0,0.0,0.0,0.0,0.0,0.0,0.0,0.0,0.0,0.0,0.0,0.0,0.0,0.0,0.0,0.0,0.0,0.0,0.0,0.0,0.0,0.0,0.0,0.0,0.0,0.0,0.0,0.0,0.0,0.0,0.0,0.0,0.0,0.0,0.0,0.0,0.0,0.0,0.0,0.0,0.0,0.0,0.0,0.0,0.0,0.0,0.0,0.0,0.0,0.0,0.0,0.0,0.0,0.0,0.0,0.0,0.0,0.0,0.0,0.0,0.0,0.0,0.0,0.0,0.0,0.0,0.0,0.0,0.0,0.0,0.0,0.0,0.0,0.0,0.0,0.0,0.0,0.0,0.0,0.0,0.0,0.0,0.0,0.0,0.0,0.0,0.0,0.0,0.0,0.0,0.0,0.0,0.0,0.0,0.0,0.0,0.0,0.0,0.0,0.0,0.0,0.0,0.0,0.0,0.0,0.0,0.0,0.0,0.0,0.0,0.0,0.0,0.0,0.0,0.0,0.0,0.0,0.0,0.0,0.0,0.0,0.0,0.0,0.0,0.0,0.0,0.0,0.0,0.0,0.0,0.0,0.0,0.0,0.0,0.0,0.0,0.0,0.0,0.0,0.0,0.0,0.0,0.0,0.0,0.0,0.0,0.0,0.0,0.0,0.0,0.0,0.0,0.0,0.0,0.0,0.0,0.0,0.0,0.0,0.0,0.0,0.0,0.0,0.0,0.0,0.0,0.0,0.0,0.0,0.0,0.0,0.0,0.0,0.0,0.0,0.0,0.0,0.0,0.0,0.0,0.0,0.0,0.0,0.0,0.0,0.0,0.0,0.0,0.0,0.0,0.0,0.0,0.0,0.0,0.0,0.0,0.0,0.0,0.0,0.0,0.0,0.0,0.0,0.0,0.0,0.0,0.0,0.0,0.0,0.0,0.0,0.0,0.0,0.0,0.0,0.0,0.0,0.0,0.0,0.0,0.0,0.0,0.0,0.0,0.0,0.0,0.0,0.0,0.0,-2.5231,-2.2749,0.0,0.0,0.0,0.0,0.0,0.0,0.0,0.0,0.0,0.0,0.0,0.0,0.0,0.0,0.0,0.0,0.0,0.0,0.0,0.0,0.0,0.0,0.0,-0.6933,-0.692,-0.6793,-0.6624,0.0,0.0,0.0,0.0,0.0,0.0,0.0,0.0,0.0,-1.2087,-1.1989,-1.2737,-1.416,-1.6188,-1.5455,-1.416,-1.2409,0.0,0.0,0.0,0.0,0.0,0.0,0.0,0.0,0.0,0.0,0.0,0.0,0.0,0.0,0.0,0.0,0.0,0.0,0.0,0.0,0.0,0.0,0.0,0.0,0.0,0.0,0.0,0.0,0.0,0.0,0.0,0.0,0.0,0.0,0.0,0.0,0.0,0.0,0.0,0.0,0.0,0.0,0.0,0.0,0.0,0.0,0.0,0.0,0.0,0.0,0.0,0.0,0.0,0.0,0.0,0.0,0.0,0.0,0.0,0.0,0.0,0.0,0.0,0.0,0.0,0.0,0.0,0.0,0.0,0.0,-2.8216,-2.6176,0.0,0.0,0.0,0.0,0.0,0.0,0.0,0.0,0.0,0.0,0.0,0.0,0.0,0.0,0.0,0.0,0.0,0.0,0.0,0.0,0.0,-0.7215,-0.7822,-0.7538,-0.7545,-0.8152,-0.8467,-0.8453,-0.8067,-0.8419,0.0,0.0,0.0,0.0,-1.1623,-1.2391,-1.3243,-1.4185,-1.5682,-1.7284,-1.8972,-1.8849,-1.6879,-1.3475,-1.3115,0.0,0.0,0.0,0.0,0.0,0.0,0.0,0.0,0.0,0.0,0.0,0.0,0.0,0.0,0.0,0.0,0.0,0.0,0.0,0.0,0.0,0.0,0.0,0.0,0.0,0.0,0.0,0.0,0.0,0.0,0.0,0.0,0.0,0.0,0.0,0.0,0.0,0.0,0.0,0.0,0.0,0.0,0.0,0.0,0.0,0.0,0.0,0.0,0.0,0.0,0.0,0.0,0.0,0.0,0.0,0.0,0.0,0.0,0.0,0.0,0.0,0.0,0.0,-3.0966,-3.0534,-2.9647,-3.0458,-3.0788,-3.0681,-3.0103,-2.9044,-2.7622,-2.5901,0.0,0.0,0.0,0.0,0.0,0.0,0.0,0.0,0.0,0.0,0.0,0.0,0.0,0.0,0.0,0.0,0.0,0.0,0.0,-0.9161,-0.9757,-1.0225,-1.0745,-1.1338,-1.0506,-1.0137,-1.0576,-1.0207,0.0,0.0,0.0,0.0,-1.2267,-1.2776,-1.4204,-1.6547,-1.8648,-1.9544,-1.9237,-1.859,-1.77,-1.6629,-1.6955,-1.6788,-1.6153,0.0,0.0,0.0,0.0,0.0,0.0,0.0,0.0,0.0,0.0,0.0,0.0,0.0,0.0,0.0,0.0,0.0,0.0,0.0,0.0,0.0,0.0,0.0,0.0,0.0,0.0,0.0,0.0,0.0,0.0,0.0,0.0,0.0,0.0,0.0,0.0,0.0,0.0,0.0,0.0,0.0,-2.0659,-2.0777,0.0,0.0,0.0,0.0,0.0,0.0,0.0,0.0,0.0,0.0,0.0,0.0,0.0,-2.9757,-2.9139,-3.069,-3.129,-3.0896,-3.1582,-3.1173,-2.9794,-3.0609,-3.0591,-2.997,-3.0555,0.0,-3.0369,-3.0098,0.0,0.0,0.0,0.0,0.0,0.0,0.0,0.0,0.0,0.0,0.0,0.0,0.0,0.0,0.0,0.0,0.0,0.0,0.0,0.0,0.0,-1.1721,-1.2097,-1.3564,-1.3122,-1.2662,-1.2348,-1.198,0.0,0.0,0.0,-1.3798,-1.4962,-1.5491,-1.6577,-1.8282,-1.9938,-2.0834,-2.098,-2.1039,-2.0914,-2.0637,-2.0839,-1.9339,-1.6671,-1.7253,0.0,0.0,0.0,0.0,0.0,0.0,0.0,0.0,0.0,0.0,0.0,0.0,0.0,0.0,0.0,0.0,0.0,0.0,0.0,0.0,0.0,0.0,0.0,0.0,0.0,0.0,0.0,0.0,0.0,0.0,0.0,0.0,0.0,0.0,0.0,0.0,0.0,0.0,0.0,-2.0319,-2.0965,-2.2899,-2.3124,-2.3267,0.0,0.0,0.0,0.0,0.0,0.0,0.0,0.0,0.0,-3.0376,-3.1085,-3.1297,-3.1012,-3.165,-3.1625,-3.0961,-3.1305,-3.112,-3.0491,-3.0835,-3.0817,-3.0491,-3.0853,-3.0985,-3.0907,-3.0254,-3.0582,-3.1318,0.0,0.0,0.0,0.0,-2.7827,-2.6843,0.0,0.0,0.0,0.0,0.0,0.0,0.0,0.0,0.0,0.0,0.0,0.0,-1.3029,-1.2787,-1.3223,-1.5067,-1.512,-1.4733,-1.4014,-1.3891,-1.4151,-1.4831,-1.4624,-1.537,-1.7217,-1.8197,-1.9022,-1.9677,-2.1008,-2.1964,-2.2548,-2.2886,-2.2948,-2.2794,-2.3148,-2.1147,-1.7577,-1.8962,-1.8654,-1.7222,0.0,0.0,0.0,0.0,0.0,0.0,0.0,0.0,0.0,0.0,0.0,0.0,0.0,0.0,0.0,0.0,0.0,0.0,0.0,0.0,0.0,0.0,0.0,0.0,0.0,0.0,0.0,0.0,0.0,0.0,0.0,0.0,0.0,0.0,0.0,0.0,0.0,-2.1638,-2.251,-2.5258,-2.5783,-2.605,0.0,0.0,0.0,0.0,0.0,0.0,-2.9161,-2.9085,-2.9916,-3.2,-3.2025,-3.1964,-3.1823,-3.2007,-3.1837,-3.1324,-3.1524,-3.1524,-3.1324,-3.1324,-3.1197,-3.0998,-3.0998,-3.1125,-3.1224,-3.0168,-3.0905,-3.2523,-3.0694,-3.0432,-3.0919,-2.964,-2.8561,-2.7879,0.0,0.0,0.0,0.0,0.0,0.0,0.0,0.0,0.0,0.0,0.0,-1.2457,-1.2453,-1.3591,-1.4766,-1.577,-1.5727,-1.5685,-1.5757,-1.6009,-1.604,-1.5842,-1.5503,-1.6165,-1.792,-2.0017,-2.099,-2.0714,-2.2382,-2.3209,-2.324,-2.2624,-2.2012,-2.1458,-2.2732,-2.2455,-2.1011,-2.0489,-2.0196,-1.9979,-1.8638,0.0,0.0,0.0,0.0,0.0,0.0,0.0,0.0,0.0,0.0,0.0,0.0,0.0,0.0,0.0,0.0,0.0,0.0,0.0,0.0,0.0,0.0,0.0,0.0,0.0,0.0,0.0,0.0,0.0,0.0,0.0,0.0,0.0,0.0,0.0,0.0,0.0,0.0,-2.791,-2.8695,0.0,0.0,0.0,0.0,-3.1381,-2.9428,-2.9282,-3.178,-3.1177,-3.1205,-3.2147,-3.213,-3.1751,-3.1057,-3.1751,-3.2108,-3.2144,-3.2904,-3.2886,-3.2144,-3.2144,-3.1709,-3.0998,-3.0998,-3.1419,-3.2071,-3.1242,-3.1003,-3.1066,-3.0638,-3.0697,-3.1091,-3.183,-3.1565,-3.1044,0.0,0.0,0.0,-0.6211,-0.6718,-0.7567,-0.906,-0.999,-1.0592,-1.075,-1.1683,-1.2962,-1.4596,-1.51,-1.6121,-1.8105,-1.7838,-1.7371,-1.6886,-1.7765,-1.8107,-1.7716,-1.8084,-1.8883,-2.0104,-2.0693,-2.102,-2.1127,-2.2156,-2.2655,-2.2671,-2.3302,-2.3456,-2.324,-2.3733,-2.3194,-2.1981,-2.2609,-2.2135,-2.0921,-2.0481,-1.9432,0.0,0.0,0.0,0.0,0.0,0.0,0.0,0.0,0.0,0.0,0.0,0.0,0.0,0.0,0.0,0.0,0.0,0.0,0.0,0.0,0.0,0.0,0.0,0.0,0.0,0.0,0.0,0.0,0.0,0.0,0.0,0.0,0.0,0.0,0.0,0.0,0.0,-2.8231,-2.9797,0.0,-3.1653,-3.0725,-3.0576,-3.1706,-3.0578,-3.0273,-3.1257,-3.1069,-3.1295,-3.218,-3.2169,-3.2043,-3.1763,-3.2025,-3.1916,-3.1419,-3.1709,-3.1723,-3.1419,-3.1419,-3.127,-3.0998,-3.0998,-3.1148,-3.1415,-3.1125,-3.1614,-3.2528,-3.2411,-3.2272,-3.2169,-3.2258,-3.1952,-3.1461,0.0,0.0,0.0,-0.7338,-0.7545,-0.8179,-0.9886,-1.0464,-1.0885,-1.1441,-1.2269,-1.3613,-1.5667,-1.6187,-1.7156,-1.9041,-1.8934,-1.8601,-1.8167,-1.8975,-1.9433,-1.9335,-1.9908,-2.052,-2.1154,-2.1254,-2.1496,-2.191,-2.2621,-2.2943,-2.2955,-2.3866,-2.4302,-2.4302,-2.4302,-2.381,-2.3025,-2.3933,-2.3271,-2.1642,-2.1737,-2.0862,-1.9467,0.0,0.0,0.0,0.0,0.0,0.0,0.0,0.0,0.0,0.0,0.0,0.0,0.0,0.0,0.0,0.0,0.0,0.0,0.0,0.0,0.0,0.0,0.0,0.0,0.0,0.0,0.0,0.0,0.0,0.0,0.0,0.0,0.0,0.0,-2.7546,-2.9047,-2.8645,-3.0208,-3.1296,-3.1296,-3.0814,-3.0862,-3.1742,-3.1395,-3.1322,-3.169,-3.1733,-3.187,-3.218,-3.2198,-3.2071,-3.1799,-3.2053,-3.1926,-3.1415,-3.1673,-3.1944,-3.2216,-3.2216,-3.2361,-3.2614,-3.2462,-3.2385,-3.237,-3.225,-3.2813,-3.3689,-3.2772,-3.2332,-3.2178,-3.1828,-3.1688,-3.1554,0.0,0.0,-0.7105,-0.8057,-0.7882,-0.8469,-1.0977,-1.0984,-1.1252,-1.2866,-1.3619,-1.4404,-1.5406,-1.6698,-1.7762,-1.8334,-1.8814,-1.9215,-1.9554,-1.9641,-1.9976,-2.062,-2.0797,-2.09,-2.0951,-2.185,-2.2582,-2.3091,-2.3887,-2.4224,-2.4156,-2.4261,-2.4302,-2.4302,-2.4302,-2.4302,-2.4271,-2.4302,-2.3533,-2.2336,-2.2336,-2.201,-2.1319,0.0,0.0,0.0,0.0,0.0,0.0,0.0,0.0,0.0,0.0,0.0,0.0,0.0,0.0,0.0,0.0,0.0,0.0,0.0,0.0,0.0,0.0,0.0,0.0,0.0,0.0,0.0,0.0,0.0,0.0,0.0,0.0,0.0,-2.6415,-2.7753,-2.9039,-2.9397,-3.0083,-3.0511,-3.0547,-3.0496,-3.0862,-3.1721,-3.19,-3.2316,-3.3169,-3.3294,-3.2977,-3.2216,-3.2198,-3.1836,-3.1089,-3.1872,-3.227,-3.227,-3.3085,-3.3882,-3.4627,-3.4627,-3.5044,-3.5754,-3.5303,-3.5098,-3.5064,-3.4656,-3.4491,-3.4229,-3.1629,-3.0855,-3.1147,-3.0733,-3.1039,-3.1501,-0.7623,-0.7164,-0.72,-0.8481,-0.8332,-0.8622,-1.0338,-1.0492,-1.0873,-1.2146,-1.3549,-1.4774,-1.5691,-1.7061,-1.8033,-1.8235,-1.8645,-1.8886,-1.8895,-2.0332,-2.1361,-2.1755,-2.2313,-2.2448,-2.2144,-2.2626,-2.2948,-2.3091,-2.3315,-2.3463,-2.3554,-2.4066,-2.4302,-2.4302,-2.4302,-2.4025,-2.3609,-2.4087,-2.381,-2.3025,-2.3025,-2.2663,-2.204,0.0,0.0,0.0,0.0,0.0,0.0,0.0,0.0,0.0,0.0,0.0,0.0,0.0,0.0,0.0,0.0,0.0,0.0,0.0,0.0,0.0,0.0,0.0,0.0,0.0,0.0,0.0,0.0,0.0,0.0,0.0,-2.7291,-2.893,-2.8612,-2.9895,-3.0726,-3.0246,-3.0386,-3.0743,-3.1314,-3.085,-3.0847,-3.1727,-3.1342,-3.1171,-3.1459,-3.1546,-3.1751,-3.2112,-3.2169,-3.2361,-3.2741,-3.3538,-3.3954,-3.3954,-3.4769,-3.5261,-3.546,-3.546,-3.5423,-3.5286,-3.5149,-3.4924,-3.4656,-3.4546,-3.4376,-3.4094,-3.358,-3.3459,-3.3456,-3.2567,-3.1509,-3.0495,-0.7853,-0.7485,-0.755,-0.8875,-0.8705,-0.8836,-1.0211,-1.0212,-1.0749,-1.2716,-1.3848,-1.5003,-1.6422,-1.7476,-1.8181,-1.8399,-1.8554,-1.8911,-1.9524,-2.091,-2.1921,-2.2388,-2.2484,-2.2631,-2.2761,-2.2991,-2.3086,-2.3066,-2.3422,-2.3636,-2.3687,-2.4097,-2.4302,-2.4302,-2.4302,-2.4087,-2.3748,-2.4133,-2.4087,-2.3717,-2.3717,-2.3317,-2.2675,-2.2254,-2.1514,-2.0745,-2.1053,-2.0589,-2.0046,-2.1455,0.0,0.0,0.0,0.0,0.0,0.0,0.0,0.0,0.0,0.0,0.0,0.0,0.0,0.0,0.0,0.0,0.0,0.0,0.0,0.0,0.0,0.0,0.0,0.0,-2.7935,-2.9154,-2.9227,-3.0367,-3.0973,-3.0355,-3.0404,-3.0674,-3.1153,-3.0779,-3.0847,-3.1696,-3.1387,-3.1324,-3.1694,-3.1783,-3.2057,-3.2588,-3.2976,-3.34,-3.39,-3.4715,-3.5098,-3.5098,-3.5569,-3.5967,-3.6309,-3.6309,-3.634,-3.6392,-3.6184,-3.5882,-3.5456,-3.4988,-3.4743,0.0,0.0,0.0,0.0,0.0,-3.2406,-3.1444,-0.8152,-0.7934,-0.8028,-0.9118,-0.8918,-0.903,-1.0292,-1.0044,-1.0785,-1.3812,-1.432,-1.5168,-1.7169,-1.7855,-1.8288,-1.8544,-1.8553,-1.9257,-2.0845,-2.1254,-2.1737,-2.2419,-2.187,-2.1986,-2.2884,-2.2985,-2.3071,-2.3122,-2.3845,-2.4213,-2.4145,-2.4213,-2.4219,-2.4198,-2.4219,-2.424,-2.424,-2.4281,-2.4302,-2.4302,-2.4302,-2.3948,-2.3291,-2.2167,-2.1446,-2.0979,-2.0623,-2.0173,-1.9983,-2.1423,0.0,0.0,0.0,0.0,0.0,0.0,0.0,0.0,0.0,0.0,0.0,0.0,0.0,0.0,0.0,0.0,0.0,0.0,0.0,0.0,0.0,0.0,0.0,0.0,-2.858,-2.8837,-2.8837,-2.9705,-3.0249,-3.0039,-3.0267,-3.0502,-3.0621,-3.0654,-3.0975,-3.176,-3.189,-3.2243,-3.2943,-3.3129,0.0,0.0,0.0,-3.4659,-3.4702,-3.5532,-3.5931,-3.5931,-3.6021,-3.6435,-3.714,-3.714,-3.7471,-3.802,-3.7614,-3.7136,-3.6549,-3.5544,-3.5215,-3.5272,-3.4398,-3.3786,-3.3406,-3.3406,-3.3355,-3.3186,-0.7784,-0.7968,-0.8282,-0.869,-0.8668,-0.8885,-0.9746,-0.9772,-1.0648,-1.3305,-1.4467,-1.5434,-1.6494,-1.7887,-1.8486,-1.779,-1.8829,-2.0022,-2.1223,-2.0765,-2.058,-2.0819,-2.151,-2.202,-2.226,-2.2593,-2.3134,-2.3821,-2.3764,-2.3782,-2.3882,-2.3882,-2.3754,-2.3516,-2.3775,-2.3903,-2.3909,-2.4177,-2.4302,-2.4302,-2.4302,-2.4225,-2.4087,-2.383,-2.346,-2.3111,-2.3778,-2.3679,-2.3476,-2.5107,-2.4436,-2.2896,-2.3026,-2.207,0.0,0.0,0.0,0.0,0.0,0.0,0.0,0.0,0.0,0.0,0.0,0.0,0.0,0.0,0.0,0.0,0.0,0.0,0.0,-2.7437,-2.7997,-2.8491,-2.8491,-2.8912,-2.9418,-2.9937,-3.0048,-3.0455,-3.1388,-3.1474,-3.1796,-3.2614,-3.2684,-3.2755,-3.2916,-3.3588,-3.3994,-3.4028,-3.4909,-3.5403,-3.5403,-3.6313,-3.6777,-3.6777,0.0,0.0,-3.7973,-3.7973,-3.7684,-3.715,-3.7055,-3.6252,-3.4955,-3.4734,-3.4321,-3.3863,-3.4253,-3.3978,-3.3406,-3.3406,-3.3017,-3.2581,-0.8393,-0.8324,-0.8418,-0.8787,-0.8846,-0.8979,-0.9344,-0.9405,-1.0187,-1.2407,-1.3821,-1.4935,-1.5795,-1.7473,-1.8359,-1.798,-1.9456,-2.0642,-2.1155,-2.0489,-2.0348,-2.1072,-2.1131,-2.1518,-2.2286,-2.2558,-2.2979,-2.356,-2.348,-2.348,-2.356,-2.3717,-2.3711,-2.3545,-2.3903,-2.3967,-2.3824,-2.4156,-2.4114,-2.3839,-2.4156,-2.4198,-2.4073,-2.424,-2.4306,-2.4375,-2.4839,-2.4719,-2.4514,-2.574,-2.5179,-2.4063,-2.4434,-2.356,-2.2281,0.0,0.0,0.0,0.0,0.0,0.0,0.0,0.0,0.0,0.0,0.0,0.0,0.0,0.0,-2.6877,-2.7604,0.0,-2.805,-2.7307,-2.7893,-2.8276,-2.7895,-2.8596,-2.9447,-3.0213,-3.0448,-3.1009,-3.219,-3.2311,-3.2472,-3.2864,-3.3275,-3.3391,-3.3172,-3.3951,-3.441,-3.4462,-3.5296,-3.5879,-3.6151,-3.7011,-3.7442,-3.7442,-3.763,-3.7703,-3.7703,-3.7523,-3.7208,-3.6768,-3.6476,-3.5777,-3.4797,-3.4207,-3.3305,-3.2374,-3.3123,-3.3389,-3.3406,-3.3406,-3.3406,-3.3389,-0.9106,-0.875,-0.8589,-0.9025,-0.9106,-0.9106,-0.9106,-0.9106,-0.9741,-1.1515,-1.2832,-1.4009,-1.5064,-1.6686,-1.79,-1.846,-2.0006,-2.0919,-2.0837,-2.0232,-2.0311,-2.1266,-2.0605,-2.0815,-2.2092,-2.228,-2.2581,-2.3016,-2.3083,-2.3127,-2.3194,-2.3458,-2.3566,-2.3501,-2.3846,-2.3846,-2.361,-2.403,-2.3861,-2.3363,-2.403,-2.4051,-2.3754,-2.4073,-2.4508,-2.4926,-2.4886,-2.4722,-2.4609,-2.5258,-2.5064,-2.4699,-2.5384,-2.4822,-2.39,-2.3777,-2.3199,0.0,0.0,0.0,0.0,0.0,0.0,0.0,0.0,-2.5268,-2.5848,-2.7396,-2.7888,-2.8097,-2.834,-2.8202,-2.7899,-2.758,-2.7895,-2.8078,-2.7746,-2.8671,-2.9711,-3.0585,-3.0942,-3.1477,-3.2469,-3.2506,-3.244,-3.244,-3.3061,-3.3387,-3.3298,-3.391,-3.4366,-3.4563,-3.5372,-3.5983,-3.6416,-3.7238,-3.7631,-3.7613,-3.7105,-3.6848,-3.6848,-3.6459,-3.6212,-3.6135,-3.5405,-3.4936,-3.4544,-3.3437,-3.2273,-3.1258,-3.1853,-3.2462,-3.3,-3.3136,-3.3647,-3.4223,-0.9106,-0.9048,-0.9025,-0.9094,-0.9106,-0.9106,-0.9106,-0.9106,-0.9601,-1.1018,-1.179,-1.2795,-1.4264,-1.5518,-1.6946,-1.8698,-2.0016,-2.0575,-2.0205,-1.9964,-1.9737,-1.9583,-1.9757,-2.0137,-2.0698,-2.1042,-2.1708,-2.274,-2.2512,-2.2535,-2.2777,-2.2822,-2.2663,-2.2379,-2.2731,-2.2852,-2.2867,-2.3566,-2.3646,-2.3363,-2.403,-2.3909,-2.3385,-2.3732,-2.4183,-2.4609,-2.4446,-2.4466,-2.463,-2.4887,-2.4914,-2.4945,-2.5435,-2.5484,-2.5279,-2.4791,-2.4058,-2.3297,-2.2865,-2.3761,-2.5095,-2.6342,-2.7079,-2.7892,0.0,-2.824,-2.7297,-2.885,-2.8224,-2.7613,-2.8276,-2.7862,-2.7578,-2.8177,-2.7796,-2.7829,-2.9003,-2.9317,-2.9809,-3.092,-3.1085,-3.1186,-3.1368,-3.1062,-3.0855,-3.0855,-3.0942,-3.1547,-3.2786,-3.3014,-3.3396,-3.4068,-3.4931,-3.5392,-3.5451,-3.6245,-3.6651,-3.6651,-3.5952,-3.5601,-3.5566,-3.5014,-3.4563,-3.4154,-3.3137,-3.2669,-3.2561,-3.1772,-3.1343,-3.1207,-3.1275,-3.136,-3.1529,-3.2192,-3.2897,-3.3603,-0.9106,-0.9106,-0.9106,-0.9106,-0.9106,-0.9106,-0.9106,-0.9106,-0.9403,-1.0232,-1.1001,-1.1834,-1.2751,-1.4695,-1.6468,-1.7804,-1.929,-1.9965,-1.9433,-1.9651,-1.9743,-1.9588,-1.9389,-1.9621,-2.0305,-2.0465,-2.0999,-2.1945,-2.1827,-2.1827,-2.1945,-2.2305,-2.2397,-2.2273,-2.2799,-2.2912,-2.274,-2.3282,-2.3172,-2.2723,-2.3436,-2.3414,-2.2979,-2.337,-2.376,-2.4181,-2.445,-2.4499,0.0,-2.523,-2.521,-2.4977,-2.5451,-2.5413,-2.513,-2.4875,-2.4562,-2.4524,-2.5493,-2.5718,-2.5975,-2.7316,-2.7597,-2.7687,-2.8375,-2.7778,-2.7432,-2.8569,-2.8359,-2.7895,-2.7779,-2.7862,-2.7895,-2.7779,-2.8194,-2.8721,-2.9334,-2.9761,-3.0305,-3.103,-3.0885,-3.0965,-3.1427,-3.1338,-3.1248,-3.1248,-3.1663,-3.2085,-3.2429,-3.2929,-3.3342,-3.3629,-3.3997,-3.4332,-3.4612,-3.4946,-3.5104,-3.5084,-3.4516,-3.4257,-3.4219,-3.3768,-3.3305,-3.2771,-3.2323,-3.1911,-3.1513,-3.117,-3.1052,-3.1092,-3.1052,-3.1032,-3.1066,-3.1429,-3.2009,-3.2688,-0.9106,-0.9106,-0.9106,-0.9106,-0.9106,-0.9106,-0.9106,-0.9106,-0.9221,-0.9563,-1.0156,-1.0818,-1.1531,-1.3852,-1.5554,-1.612,-1.8039,-1.8998,-1.8479,-1.9133,-1.963,-1.9799,-1.9381,-1.937,-1.982,-2.0176,-2.0588,-2.1083,-2.1221,-2.1326,-2.1423,-2.1921,-2.2165,-2.2189,-2.2746,-2.2822,-2.2595,-2.2971,-2.2768,-2.2263,-2.2994,-2.2994,-2.2595,-2.2994,-2.326,-2.3473,-2.4,-2.4167,-2.4248,-2.5178,-2.5072,-2.4655,-2.529,-2.5258,-2.4945,-2.4777,-2.4734,-2.5091,-2.6877,-2.6929,-2.6762,-2.7803,-2.7898,-2.7682,-2.7503,-2.747,-2.7588,-2.8011,-2.8094,-2.7862,-2.7133,-2.7597,-2.7995,-2.7647,-2.8605,-2.9463,-2.9661,-3.0158,-3.0613,-3.0902,-3.0679,-3.072,-3.13,-3.1189,-3.1069,-3.1069,-3.1619,-3.1958,-3.2034,-3.2374,-3.2702,-3.2883,-3.29,-3.3072,-3.3419,-3.3607,-3.371,-3.371,-3.3173,-3.29,-3.29,-3.2703,-3.2472,-3.2278,-3.2278,-3.2001,-3.1539,-3.1515,-3.1498,-3.1539,-3.1515,-3.1482,-3.1472,-3.1513,-3.1756,-3.21,-0.9106,-0.9106,-0.9106,-0.9106,-0.9106,-0.9106,-0.9106,-0.9106,-0.9106,-0.9117,-0.9154,-0.9664,-1.0982,-1.2817,-1.386,-1.3634,-1.6158,-1.7617,-1.7269,-1.8296,-1.9198,-1.9773,-1.9786,-1.9512,-1.8937,-2.0096,-2.0533,-2.0241,-2.0766,-2.1155,-2.1423,-2.1674,-2.1817,-2.1817,-2.2114,-2.2231,-2.2254,-2.2572,-2.2526,-2.2263,-2.2994,-2.2859,-2.224,-2.2595,-2.2595,-2.2486,-2.2828,-2.3238,-2.3699,-2.4276,-2.4097,-2.3808,-2.4875,-2.5204,-2.5118,-2.4717,-2.4418,-2.4482,-2.5634,-2.6455,-2.7142,-2.783,-2.8679,-2.9168,-2.8525,-2.8359,-2.8177,-2.7464,-2.7315,-2.7116,-2.6369,-2.6851,-2.7564,-2.8243,-2.8953,-2.9645,-3.0357,-3.0489,-3.0489,-3.0526,-3.0506,-3.051,-3.0531,-2.9884,-2.9453,-2.9453,-2.9506,-3.0116,-3.1553,-3.0957,-3.0907,-3.1636,-3.1653,-3.1653,-3.1674,-3.2392,-3.2746,-3.273,-3.2006,-3.1653,-3.1653,-3.1777,-3.225,-3.2976,-3.2976,-3.2959,-3.2942,-3.2942,-3.2942,-3.2942,-3.2942,-3.2949,-3.2925,-3.287,-3.2479,-3.2107,-0.9106,-0.9106,-0.9106,-0.9106,-0.9106,-0.9106,-0.9106,-0.9106,-0.9106,-0.9106,-0.9368,0.0,0.0,0.0,0.0,0.0,-1.4388,-1.5575,-1.5847,-1.7063,-1.8205,-1.9159,-1.9211,-1.9303,-1.9499,-1.9891,-2.0227,-2.0533,-2.0706,-2.0848,-2.0947,-2.1155,-2.1277,-2.1302,-2.1722,-2.1926,-2.1959,-2.224,-2.2287,-2.2231,-2.2486,-2.2402,-2.2292,-2.3267,-2.3117,-2.2564,0.0,-2.377,-2.3207,-2.411,-2.4052,-2.3854,-2.5375,-2.5659,-2.5371,-2.5241,-2.486,-2.4702,-2.5691,-2.6246,-2.6766,-2.7754,-2.8366,-2.8558,-2.7829,-2.7663,-2.7464,-2.6717,-2.6967,-2.7216,-2.6984,-2.7893,-2.8771,-2.9019,-2.9645,-3.0208,-3.0472,-3.0506,-3.0506,-3.0506,-3.0506,-3.0506,-3.0506,-3.0274,-3.0125,-3.0125,-3.0125,-3.034,-3.0837,-3.0638,-3.0605,-3.0853,-3.087,-3.087,-3.087,-3.1101,-3.1255,-3.1255,-3.1482,-3.1846,-3.2332,-3.2376,-3.2552,-3.279,-3.279,-3.2851,-3.2928,-3.2829,-3.2851,-3.2934,-3.2856,-3.2794,-3.2813,-3.2774,-3.2639,-3.2591,-0.8916,-0.9012,-0.9106,-0.9106,-0.9106,0.0,0.0,0.0,0.0,0.0,0.0,0.0,0.0,0.0,0.0,0.0,0.0,-1.3644,-1.4136,-1.5627,-1.6983,-1.8146,-1.8461,-1.8725,-1.8973,-1.9193,-1.9605,-2.02,-2.02,-2.0458,-2.0988,-2.099,-2.0997,-2.1008,-2.1471,-2.1712,-2.1793,-2.1996,-2.2366,-2.2826,-2.2151,-2.2011,-2.2222,-2.2353,-2.2113,0.0,-2.2963,-2.3074,-2.2939,-2.4291,-2.4135,-2.3659,-2.5482,-2.5529,-2.5059,-2.5661,-2.5205,-2.4754,-2.5973,-2.6402,-2.6661,-2.7401,-2.7744,-2.7698,-2.6955,-2.679,-2.6658,-2.6195,-2.6495,-2.6846,-2.6846,-2.8039,-2.9118,-2.9347,-3.0241,-3.0886,-3.0886,-3.0886,-3.0803,-3.0522,-3.0506,-3.0506,-3.0506,-3.0506,-3.0506,-3.0506,-3.0506,-3.0506,-3.0506,-3.0506,-3.0506,-3.0506,-3.0506,-3.0506,-3.0506,-3.0506,-3.0621,-3.0903,-3.1631,-3.2381,-3.31,-3.31,-3.3249,-3.3497,-3.3497,-3.3537,-3.3599,-3.352,-3.3537,-3.3621,-3.3522,-3.3494,-3.3478,-3.3489,-3.331,-3.316,-0.8575,-0.885,-0.9079,0.0,0.0,0.0,0.0,0.0,0.0,0.0,0.0,0.0,0.0,0.0,0.0,0.0,0.0,0.0,-1.2216,-1.4004,-1.5562,-1.6696,-1.7506,-1.7747,-1.7378,-1.7923,-1.8516,-1.9112,-1.9074,-1.9795,-2.1185,-2.0848,-2.0733,-2.0786,-2.1038,-2.1315,-2.1584,-2.1604,-2.2436,-2.3592,-2.1833,-2.1482,-2.1861,-2.014,-1.9873,-2.0414,-2.0498,-2.1407,-2.2806,-2.4612,-2.423,-2.3331,-2.5168,-2.4936,-2.4305,-2.5927,-2.5402,-2.4642,-2.6302,-2.6734,-2.6724,-2.674,-2.6853,-2.6768,-2.6063,-2.5914,-2.5946,-2.5946,-2.6069,-2.6173,-2.6222,-2.7472,-2.874,-2.9397,-3.0654,-3.1548,-3.1548,-3.1548,-3.1283,-3.0572,-3.0472,-3.0456,-3.0506,-3.0472,-3.0456,-3.0506,-3.0506,-3.0506,-3.0506,-3.0506,-3.0506,-3.0506,-3.0506,-3.0506,-3.0506,-3.0539,-3.0952,-3.1714,-3.2415,-3.3149,-3.3856,-3.3856,-3.4237,-3.4899,-3.4899,-3.4899,-3.4899,-3.4899,-3.4899,-3.4899,-3.4899,-3.4899,-3.4899,-3.4899,-3.4466,-3.3851,0.0,0.0,0.0,0.0,0.0,0.0,0.0,0.0,0.0,0.0,0.0,0.0,0.0,0.0,0.0,0.0,0.0,0.0,-1.1363,-1.2378,-1.3504,-1.4695,-1.5327,-1.5618,-1.5552,-1.5704,-1.6044,-1.6547,-1.6195,-1.6389,-1.708,-1.6672,-1.685,-1.7597,-1.7808,-1.8206,-1.8756,-1.8919,-1.902,-1.9087,-1.8906,-1.9211,-1.9826,-2.0524,-2.0646,-2.0583,-2.1931,-2.2154,-2.1941,-2.2403,-2.3391,-2.4471,-2.4911,-2.5183,-2.5295,-2.5301,-2.4578,-2.3949,-2.4744,-2.5228,-2.5596,-2.5902,-2.6069,-2.6126,-2.593,-2.629,-2.6651,-2.6651,-2.7613,-2.8589,-2.9054,-2.9593,-3.017,-3.0792,-3.0823,-3.0787,-3.0787,-3.0787,-3.0704,-3.0522,-3.0009,-2.9893,-3.0456,-2.9992,-2.991,-3.0456,-3.0506,-3.0506,-3.0506,-3.0506,-3.0506,-3.0506,-3.0506,-3.0506,-3.0506,-3.1035,-3.1962,-3.3243,-3.3425,-3.3905,-3.4618,-3.4618,-3.4717,-3.4899,-3.4899,-3.4899,-3.4899,-3.4899,-3.4899,-3.4899,-3.4899,-3.4899,-3.4899,-3.4899,-3.4793,-3.462,0.0,0.0,0.0,0.0,0.0,0.0,0.0,0.0,0.0,0.0,0.0,0.0,0.0,0.0,0.0,0.0,0.0,0.0,0.0,-1.0916,-1.174,-1.2687,-1.3548,-1.4076,-1.4247,-1.445,-1.4823,-1.5377,-1.529,-1.5608,-1.6289,-1.6239,-1.6529,-1.7045,-1.6927,-1.7037,-1.7311,-1.7463,-1.7775,0.0,0.0,-1.7835,-1.8592,-1.8624,-1.8746,-1.9024,-1.9964,-2.0507,-2.0769,-2.0546,-2.2422,-2.4805,-2.4491,-2.4863,-2.5363,-2.5218,-2.443,-2.3745,-2.4395,-2.4779,-2.5194,-2.5937,-2.6203,-2.6241,-2.6241,-2.6779,-2.7248,-2.7248,-2.8032,-2.8993,-2.9945,-3.0049,-3.017,-3.0793,-3.095,-3.087,-3.0555,-3.0787,-3.0853,-3.0539,-2.9843,-2.9678,-3.0423,-2.9827,-2.9694,-3.0439,-3.0506,-3.0506,-3.0506,-3.0506,-3.0506,-3.0506,-3.0506,-3.0654,-3.0986,-3.1697,-3.2663,-3.3789,-3.4121,-3.4502,-3.4899,-3.4899,-3.4899,-3.4899,0.0,-3.4899,-3.4899,-3.4899,-3.4899,-3.4899,-3.4899,-3.4899,-3.4899,-3.4899,-3.4899,-3.4899,0.0,0.0,0.0,0.0,0.0,0.0,0.0,0.0,0.0,-0.9566,-0.9313,-0.9106,-0.9106,-0.9106,0.0,0.0,0.0,0.0,0.0,0.0,-1.035,-1.0807,-1.1944,-1.2657,-1.283,-1.3222,-1.3748,-1.4405,-1.4675,-1.5359,-1.643,-1.6712,-1.6964,-1.7209,-1.6683,-1.6386,-1.6296,-1.6352,-1.7083,-1.8065,-1.656,-1.6547,-1.7259,0.0,-1.5688,-1.6773,-1.684,-1.7955,-1.9366,-1.9099,-2.1534,-2.4578,-2.3963,-2.4341,-2.5063,-2.5236,-2.4514,-2.3786,-2.4517,-2.4764,-2.508,-2.6201,-2.6525,-2.6586,-2.6586,-2.7126,-2.7644,-2.7756,-2.795,-2.8508,-2.988,-2.9683,-2.9527,-3.0295,-3.0912,-3.1064,-3.0439,-3.0986,-3.1184,-3.0439,-2.9777,-2.9678,-3.0423,-2.9827,-2.9694,-3.0439,-3.0506,-3.0506,-3.0506,-3.0506,-3.0506,-3.0506,-3.0506,-3.0853,-3.1598,-3.2332,-3.3061,-3.3806,-3.4551,-3.4899,-3.4899,-3.4899,-3.4899,-3.4899,-3.4899,-3.4899,-3.4899,-3.4899,-3.4899,-3.4899,-3.4899,-3.4899,-3.4899,-3.4899,-3.4899,-3.4899,0.0,0.0,0.0,0.0,0.0,0.0,0.0,0.0,0.0,0.0,-1.0405,-0.9106,0.0,0.0,0.0,0.0,0.0,0.0,0.0,0.0,0.0,-0.9454,-1.0029,-1.0207,-0.9849,-0.993,-1.0208,-1.0723,-1.0398,-1.0964,-1.2312,-1.1563,-1.2124,-1.3739,-1.3162,-1.318,-1.3666,-1.3606,-1.3372,-1.2995,-1.3023,-1.3213,-1.3492,-1.3462,-1.4343,0.0,-1.7116,-1.749,-1.7502,-1.8633,-2.1244,-2.3949,-2.3287,-2.4268,-2.5454,-2.4475,-2.4031,-2.3839,-2.3831,-2.4105,-2.4523,-2.5076,-2.5631,-2.6034,-2.6034,-2.6682,-2.7442,-2.7999,-2.8628,-2.9437,-3.0688,-2.9932,-2.9571,-3.092,-3.0316,-2.9683,-2.9612,-3.0224,-3.0423,-2.9678,-2.9479,-2.9678,-3.0423,-2.9827,-2.9694,-3.0439,-3.0506,-3.0506,-3.0506,-3.0506,-3.0506,-3.0506,-3.0506,-3.0853,-3.1598,-3.2332,-3.3061,-3.3806,-3.4551,-3.4899,-3.4899,-3.4899,-3.4899,-3.4899,-3.4899,0.0,-3.4899,-3.4899,-3.4899,-3.4899,-3.4899,-3.4899,-3.4899,-3.4899,-3.4899,-3.4899,0.0,0.0,0.0,0.0,0.0,0.0,0.0,-1.113,-1.2153,-1.4188,-1.3153,-1.1928,-1.1152,-1.0103,-0.946,0.0,0.0,0.0,0.0,0.0,0.0,-0.9106,-0.9551,-0.9701,-0.9471,-0.9735,-0.985,-0.9804,0.0,-1.0493,-1.0936,-1.0975,-1.1532,-1.2459,-1.1896,-1.1685,-1.1751,-1.1751,-1.1569,-1.1294,-1.1523,-1.1841,-1.2208,-1.2301,-1.2968,0.0,-1.5086,-1.6249,-1.7338,-1.7373,-1.999,-2.3201,-2.2967,-2.4012,-2.5255,-2.4989,-2.4423,-2.4008,-2.4454,-2.4521,-2.4715,-2.583,-2.6547,-2.6849,-2.6236,-2.7197,-2.8116,-2.785,-2.8537,-2.9476,-3.0401,-3.0029,-2.9673,-3.0005,-2.9941,-2.9758,-2.9398,-3.0001,-3.0373,-3.0009,-2.9628,-2.9678,-3.0423,-2.9827,-2.9694,-3.0439,-3.0506,-3.0506,-3.0506,-3.0506,-3.0506,-3.0506,-3.0506,-3.0853,-3.1598,-3.2332,-3.3061,-3.3806,-3.4551,-3.4899,-3.4899,-3.4899,-3.4899,-3.4899,-3.4899,-3.4899,-3.4899,-3.4899,-3.4899,-3.4899,-3.4899,-3.4899,-3.4899,-3.4899,-3.4899,-3.4899,0.0,0.0,0.0,0.0,0.0,0.0,0.0,-1.2771,-1.3944,-1.6395,-1.6049,-1.5062,-1.3682,-1.1601,-1.0125,0.0,0.0,0.0,0.0,0.0,0.0,0.0,0.0,0.0,-0.9655,0.0,0.0,-0.9655,-1.0431,0.0,0.0,0.0,0.0,0.0,-1.1388,-1.0947,-1.0608,-1.066,-1.0681,0.0,0.0,-1.1017,-1.1371,0.0,0.0,0.0,0.0,-1.475,-1.6793,-1.6125,-1.8498,-2.1848,-2.2443,-2.3647,-2.4969,-2.5604,-2.5081,-2.4465,-2.5198,-2.5095,-2.513,-2.6496,-2.7149,-2.723,-2.6328,-2.7087,-2.7806,-2.7193,-2.7643,-2.8419,-2.9328,-2.9281,-2.9086,-2.8949,-2.9321,-2.9543,-2.9333,-2.9844,-3.0237,-3.0257,-2.9877,-2.986,-3.0439,-2.9976,-2.9877,-3.0456,-3.0506,-3.0506,-3.0506,-3.0506,-3.0506,-3.0506,-3.0506,-3.0787,-3.1366,-3.2249,-3.2978,-3.3574,-3.4468,-3.4899,-3.4899,-3.4899,-3.4899,-3.4899,-3.4899,-3.4899,-3.4899,-3.4899,-3.4899,-3.4899,-3.4899,-3.4899,-3.4899,-3.4899,-3.4899,-3.4899,0.0,0.0,0.0,0.0,0.0,0.0,0.0,-1.3204,-1.4928,-1.8828,-1.8097,-1.6786,-1.5752,-1.3383,-1.1152,0.0,0.0,0.0,0.0,0.0,0.0,0.0,0.0,0.0,0.0,0.0,0.0,-0.9163,-0.9255,0.0,0.0,0.0,0.0,0.0,0.0,-1.0642,-1.0608,-1.0608,0.0,0.0,0.0,0.0,0.0,0.0,0.0,0.0,0.0,-1.3196,-1.4097,-1.5449,-1.7306,-1.937,-2.1162,-2.3109,-2.4852,-2.5604,-2.573,-2.5527,-2.5082,-2.5177,-2.5448,-2.5615,-2.5676,-2.5685,-2.5593,-2.494,-2.4696,-2.5735,-2.5494,-2.5591,-2.718,-2.6854,-2.6949,-2.8695,-2.7936,-2.7643,-2.9099,-2.9358,-2.9431,-2.9496,-3.0026,-3.0423,-3.0489,-3.0439,-3.0423,-3.0489,-3.0506,-3.0506,-3.0506,-3.0506,-3.0506,-3.0506,-3.0506,-3.0522,-3.0605,-3.2,-3.2735,-3.2834,-3.422,-3.4899,-3.4899,-3.4899,-3.4899,-3.4899,-3.4899,-3.4899,0.0,-3.4899,-3.4899,-3.4899,-3.4899,-3.4899,-3.4899,-3.4899,-3.4899,-3.4899,0.0,0.0,0.0,0.0,0.0,0.0,-1.2359,-1.3528,-1.5488,-1.9354,-1.924,-1.838,-1.7347,-1.5533,-1.3061,-0.9804,0.0,0.0,0.0,0.0,0.0,0.0,0.0,0.0,0.0,0.0,-0.9106,-0.9106,-0.9106,0.0,0.0,0.0,0.0,0.0,0.0,-0.9689,-0.9689,-0.9689,0.0,0.0,0.0,0.0,0.0,0.0,0.0,0.0,0.0,0.0,-1.4431,-1.5443,-1.7043,-1.899,-2.1338,-2.2651,-2.3631,-2.5221,-2.5691,-2.5734,-2.597,-2.5593,-2.5228,-2.5595,-2.5616,-2.538,-2.4681,-2.4471,-2.4392,-2.4404,-2.4246,-2.4346,-2.5227,-2.5232,-2.5559,-2.697,-2.713,-2.7717,-2.9482,-3.0161,-3.0525,-3.0594,-3.0858,-3.0901,-3.0539,-3.0506,-3.0506,-3.0506,-3.0506,-3.0506,-3.0506,-3.0506,-3.0506,-3.0506,-3.0506,-3.0506,-3.0506,-3.1951,-3.2702,-3.2718,-3.4187,-3.4899,-3.4899,-3.4899,-3.4899,-3.4899,-3.4899,-3.4899,0.0,-3.4899,-3.4899,-3.4899,-3.4899,-3.4899,-3.4899,-3.4899,-3.4899,-3.4899,0.0,0.0,0.0,0.0,0.0,-0.9451,-1.2351,-1.3624,-1.5488,-1.8933,-1.9218,-1.8731,-1.7764,-1.6198,-1.3935,-1.0757,-0.9758,0.0,0.0,0.0,0.0,0.0,0.0,0.0,0.0,0.0,-0.9175,-0.9299,-0.9299,-0.9379,0.0,0.0,-0.9554,-0.9543,0.0,0.0,0.0,0.0,0.0,0.0,0.0,0.0,0.0,0.0,0.0,0.0,0.0,0.0,0.0,0.0,0.0,-1.8424,-2.0987,-2.1937,-2.2564,-2.5059,-2.5592,-2.5542,-2.6442,-2.5955,-2.5255,-2.5676,-2.558,-2.5124,-2.4116,-2.3746,-2.345,-2.2882,-2.2693,-2.2802,-2.335,-2.3718,-2.4297,-2.5351,-2.6297,-2.7523,-2.9265,-3.0147,-3.0811,-3.1309,-3.1178,-3.0958,-3.079,-3.06,-3.0671,-3.1101,-3.0737,-3.0605,-3.0803,-3.0837,-3.0721,-3.0506,-3.0704,-3.0837,-3.0837,-3.2282,-3.3033,-3.305,-3.4286,-3.4899,-3.4899,-3.4899,-3.4899,-3.4899,-3.4899,-3.4899,0.0,-3.4899,-3.4899,-3.4899,-3.4899,-3.4899,-3.4899,-3.4899,-3.4899,-3.4899,0.0,0.0,0.0,0.0,0.0,0.0,-1.2304,-1.3423,-1.4869,-1.7575,-1.7817,-1.7444,-1.6706,-1.4832,-1.321,-1.2182,-1.0681,0.0,0.0,0.0,0.0,0.0,0.0,0.0,0.0,0.0,-0.9322,-0.9793,-0.9793,-1.0068,-1.0569,-1.0569,-1.0569,-1.0562,0.0,0.0,0.0,0.0,0.0,0.0,0.0,0.0,0.0,0.0,0.0,0.0,0.0,0.0,0.0,0.0,0.0,0.0,0.0,-2.0829,-2.1967,-2.532,-2.5532,-2.4969,-2.617,-2.6156,-2.5803,-2.5803,-2.5299,-2.4636,-2.4036,-2.2432,-2.1052,-2.1038,-2.0538,-2.0465,-2.1525,-2.2234,-2.3009,-2.4225,-2.5299,-2.6555,-2.8098,-2.8721,-2.9587,-3.1122,-3.0647,-3.0527,-3.132,-3.0835,-3.1123,-3.2586,-3.1321,-3.082,-3.1548,-3.1598,-3.125,-3.0522,-3.1217,-3.1598,-3.1598,-3.3061,-3.3773,-3.3789,-3.4535,-3.4899,-3.4899,-3.4899,-3.4899,-3.4899,-3.4899,-3.4899,0.0,-3.4899,-3.4899,-3.4899,-3.4899,-3.4899,-3.4899,-3.4899,-3.4899,-3.4899,0.0,0.0,0.0,0.0,0.0,0.0,0.0,-1.0981,-1.24,-1.4721,-1.5286,-1.5832,-1.6839,-1.5268,-1.3857,-1.3168,-1.1078,0.0,0.0,0.0,0.0,0.0,0.0,0.0,0.0,-0.9574,-0.9999,-1.0832,-1.0832,-1.0913,-1.1073,-1.1073,-1.0901,-1.0596,-1.0408,-1.0148,0.0,0.0,0.0,0.0,0.0,0.0,-0.951,0.0,0.0,0.0,0.0,0.0,0.0,0.0,0.0,0.0,0.0,0.0,0.0,-2.4109,-2.4294,-2.3934,-2.4891,-2.4772,-2.4351,-2.4351,-2.3618,-2.2846,-2.2643,-2.1452,-2.0458,-2.0686,-2.003,-1.9743,-2.0746,-2.0922,-2.17,-2.4143,-2.5133,-2.6338,-2.8483,-2.9723,-3.0424,-3.0419,-3.0293,-3.0527,-3.1396,-3.0846,-3.1059,-3.258,-3.1338,-3.1035,-3.2282,-3.1863,-3.1499,-3.1267,-3.1984,-3.2348,-3.2348,-3.3309,-3.3789,-3.3806,-3.4551,-3.4899,-3.4899,-3.4899,-3.4899,-3.4899,-3.4899,-3.4899,-3.4899,-3.4899,-3.4899,-3.4899,-3.4899,-3.4899,-3.4899,-3.4899,-3.4899,-3.4899,0.0,0.0,0.0,0.0,0.0,0.0,0.0,-0.9718,-1.0829,-1.2612,-1.3013,-1.3854,-1.5689,-1.4149,-1.2988,-1.3074,-1.1075,0.0,0.0,0.0,0.0,0.0,0.0,0.0,-0.9778,-0.9804,-1.0688,-1.2479,-1.2479,-1.2747,-1.3297,-1.3125,-1.2582,-1.171,-1.1365,-1.0821,0.0,0.0,0.0,0.0,0.0,0.0,-0.951,0.0,0.0,0.0,0.0,0.0,0.0,0.0,0.0,0.0,0.0,0.0,0.0,0.0,-2.2635,-2.2489,-2.37,-2.3822,-2.3583,-2.34,-2.2834,-2.2265,-2.2048,-2.1017,-2.0094,-2.0047,-1.9547,-1.938,-2.0253,-2.0625,-2.1601,-2.3946,-2.5363,-2.6767,-2.8498,-2.9854,-3.0471,-3.0016,-3.0304,-3.0871,-3.1675,-3.0903,-3.1182,-3.3307,-3.1852,-3.1527,-3.3027,-3.268,-3.2426,-3.2426,-3.2878,-3.3133,-3.3133,-3.3839,-3.4203,-3.422,-3.4667,-3.4899,-3.4899,-3.4899,-3.4899,-3.4899,-3.4899,-3.4899,0.0,-3.4899,-3.4899,-3.4899,-3.4899,-3.4899,-3.4899,-3.4899,-3.4899,-3.4899,0.0,0.0,0.0,0.0,0.0,0.0,0.0,-0.9365,-0.9965,-1.1039,-1.1053,-1.1623,-1.343,-1.1795,-1.096,-1.1951,0.0,0.0,0.0,0.0,0.0,0.0,0.0,0.0,-0.9807,-0.9958,-1.1446,-1.4333,-1.4455,-1.52,-1.6537,-1.6174,-1.52,-1.3728,-1.2746,-1.1716,0.0,0.0,0.0,0.0,-0.951,-0.9497,0.0,0.0,0.0,0.0,0.0,0.0,0.0,0.0,0.0,0.0,0.0,0.0,0.0,0.0,0.0,0.0,0.0,-2.3231,-2.3307,-2.2838,-2.2703,-2.253,-2.204,-2.0973,0.0,-1.9348,-1.9232,-1.942,-2.0045,-2.1235,-2.2541,-2.3818,-2.5974,-2.7665,-2.8273,-2.9212,-2.9848,-2.9967,-3.0585,-3.1352,-3.2183,-3.0963,-3.1407,-3.4477,-3.2681,-3.2127,-3.372,-3.3783,-3.3783,-3.3786,-3.3832,-3.3872,-3.3872,-3.4551,-3.4899,-3.4899,-3.4899,-3.4899,-3.4899,-3.4899,-3.4899,0.0,-3.4899,-3.4899,0.0,-3.4899,-3.4899,-3.4899,-3.4899,-3.4899,-3.4899,-3.4899,-3.4899,-3.4899,0.0,0.0,0.0,0.0,0.0,0.0,0.0,0.0,0.0,0.0,-0.9326,-0.9822,-1.0883,-1.0527,-1.0321,0.0,0.0,0.0,0.0,0.0,0.0,0.0,0.0,0.0,-1.0029,-1.1442,-1.2658,-1.3642,-1.492,-1.5672,-1.5942,-1.6695,-1.6428,-1.5303,-1.3889,-1.2121,0.0,0.0,0.0,0.0,-0.951,-0.9472,0.0,0.0,0.0,0.0,-1.0291,-1.0807,0.0,0.0,0.0,0.0,0.0,0.0,0.0,0.0,-2.0512,-2.0386,-2.0337,0.0,-2.2534,-2.1998,-2.1571,-2.1261,0.0,-2.0654,-2.019,-2.0494,-2.0553,-2.0596,-2.0756,-2.2236,-2.3862,-2.5164,-2.6889,-2.8295,-2.8897,-2.9032,-2.9497,-3.0689,-3.0433,-3.0904,-3.2778,-3.0877,-3.0939,-3.4453,-3.2334,-3.1751,-3.3713,-3.3797,-3.3794,-3.3794,-3.4363,-3.4634,-3.4634,-3.48,-3.4899,-3.4899,-3.4899,-3.4899,-3.4899,-3.4899,-3.4899,-3.4899,-3.4899,-3.4899,-3.4899,-3.4899,-3.4899,-3.4899,-3.4899,-3.4899,-3.4899,-3.4899,-3.4899,-3.4899,0.0,0.0,0.0,0.0,0.0,0.0,0.0,0.0,0.0,0.0,0.0,-0.8779,-0.9316,-0.9258,0.0,0.0,0.0,0.0,0.0,0.0,0.0,0.0,0.0,-1.0899,-1.0931,-1.2097,-1.3515,-1.5141,-1.6306,-1.7207,-1.7885,-1.8276,-1.7656,-1.6141,-1.3923,-1.2,0.0,0.0,0.0,-0.9418,-0.9472,0.0,0.0,0.0,0.0,0.0,-0.9821,-1.0454,0.0,-1.2917,-1.4103,-1.5339,0.0,0.0,0.0,0.0,-1.9929,-1.9929,-1.9873,-2.0654,-2.1371,-2.0884,-2.0769,-2.0795,-2.0947,-2.0741,-2.0683,-2.1322,-2.1452,-2.1627,-2.2222,-2.3426,-2.4762,-2.6039,-2.6976,-2.7808,-2.8667,-2.9391,-3.0053,-3.0532,-3.0458,-3.095,-3.2512,-3.1064,-3.1155,-3.3907,-3.2466,-3.2127,-3.3629,-3.3787,-3.3941,-3.4194,-3.465,-3.4899,-3.4899,-3.4899,-3.4899,-3.4899,-3.4899,-3.4899,-3.4899,-3.4899,-3.4899,-3.4899,-3.4899,-3.4899,-3.4899,-3.4899,-3.4899,-3.4899,-3.4899,-3.4899,-3.4899,-3.4899,-3.4899,-3.4899,0.0,0.0,0.0,0.0,0.0,0.0,0.0,0.0,0.0,0.0,0.0,0.0,0.0,0.0,0.0,0.0,0.0,0.0,0.0,0.0,0.0,0.0,-1.0782,-1.1465,-1.1828,-1.2556,-1.4187,-1.6704,-1.7774,-1.898,-2.0237,-2.0171,-1.8931,-1.6587,-1.3873,-1.2059,-1.0989,-1.0495,-0.9942,-0.9405,-0.9442,0.0,0.0,0.0,0.0,0.0,0.0,0.0,0.0,-1.3132,-1.4136,-1.499,-1.7379,0.0,0.0,0.0,0.0,0.0,-2.0077,-2.0351,-2.0331,-1.9886,-2.0241,-2.0761,-2.0941,-2.1075,-2.1365,-2.212,-2.228,-2.2643,-2.3818,-2.466,-2.5531,-2.6631,-2.6845,-2.7227,-2.8154,-2.9748,-3.0565,-2.998,-3.0417,-3.1073,-3.1823,-3.1236,-3.1526,-3.3274,-3.2797,-3.2752,-3.3524,-3.3777,-3.4086,-3.4505,-3.4739,-3.4828,-3.4756,-3.4851,-3.4899,-3.4899,-3.4828,-3.4771,-3.4776,-3.4686,-3.4703,-3.4793,0.0,0.0,-3.4899,-3.4899,-3.4899,-3.4899,-3.4899,-3.4899,-3.4899,-3.4899,-3.4899,-3.4899,0.0,0.0,0.0,0.0,0.0,0.0,0.0,0.0,0.0,0.0,0.0,0.0,0.0,0.0,0.0,0.0,0.0,0.0,0.0,0.0,0.0,-1.0029,-1.1178,-1.1726,-1.1556,-1.3799,-1.4778,-1.4412,-1.8018,-1.9684,-1.951,-2.1374,-2.0446,-1.7212,-1.5556,-1.377,-1.1937,-1.1067,-1.0384,-0.9866,-0.9489,0.0,0.0,0.0,0.0,0.0,0.0,0.0,0.0,-1.2178,-1.3301,-1.4295,-1.5946,0.0,0.0,0.0,0.0,0.0,-1.9396,-2.0048,-2.0429,-1.9784,-2.0179,-2.074,-2.0886,-2.1389,-2.2178,-2.3354,-2.3601,-2.3818,-2.4534,-2.5676,-2.6562,-2.6777,-2.7602,-2.8232,-2.8293,-2.8944,-2.9438,-2.9481,-2.9861,-3.0485,-3.14,-3.0825,-3.1232,-3.3254,-3.2838,-3.2768,-3.3411,-3.4052,-3.4152,-3.3614,-3.4341,-3.4521,-3.405,-3.4635,-3.4899,-3.4899,-3.4448,-3.4235,-3.4213,-3.3709,-3.3742,-3.4213,0.0,-3.4483,-3.4899,-3.4899,-3.4899,-3.4899,-3.4899,-3.4899,-3.4899,-3.4899,-3.4899,-3.4899,0.0,0.0,0.0,0.0,0.0,0.0,0.0,0.0,0.0,0.0,0.0,0.0,0.0,0.0,0.0,0.0,0.0,0.0,0.0,0.0,0.0,-1.1006,-1.1926,-1.2406,-1.2468,-1.4516,-1.5596,-1.5671,-1.8532,-1.9867,-1.9758,-2.0151,-1.9104,-1.6766,-1.5666,-1.4219,-1.2512,-1.1531,-1.0653,-0.9857,0.0,0.0,0.0,0.0,0.0,0.0,0.0,0.0,0.0,0.0,-1.2909,-1.4113,-1.5294,0.0,0.0,0.0,0.0,0.0,-1.875,-1.9429,-1.9886,-1.9658,-2.0976,-2.2347,-2.2496,-2.3033,-2.3766,-2.4718,-2.4946,-2.511,-2.5763,-2.6373,-2.6689,-2.6326,-2.7281,-2.793,-2.7533,-2.8591,-2.9245,-2.8946,-2.9653,-3.0318,-3.0772,-3.0817,-3.1263,-3.2314,-3.2114,-3.2067,-3.2376,-3.2756,-3.2971,-3.2917,-3.3375,-3.3495,-3.3251,-3.3563,-3.3767,-3.386,-3.362,-3.3671,-3.3937,-3.3754,-3.4006,-3.4531,0.0,-3.4662,-3.4899,-3.4899,-3.4899,-3.4877,-3.4594,-3.4472,-3.4472,-3.4481,-3.4472,-3.4497,0.0,0.0,0.0,0.0,0.0,0.0,0.0,0.0,0.0,0.0,0.0,0.0,0.0,0.0,0.0,0.0,0.0,0.0,0.0,0.0,-0.9341,-1.1573,-1.2381,-1.3157,-1.3965,-1.5544,-1.6703,-1.7422,-1.9451,-2.042,-2.0334,-1.9424,-1.8178,-1.6667,-1.5873,-1.4786,-1.3509,-1.215,-1.1041,-1.0103,0.0,0.0,0.0,0.0,0.0,0.0,0.0,0.0,0.0,0.0,0.0,0.0,0.0,0.0,0.0,-1.7253,-1.7688,-1.8166,-1.8779,-1.9501,-2.0218,-2.0776,-2.2083,-2.3285,-2.3583,-2.4128,-2.481,-2.5618,-2.5803,-2.5963,-2.6486,-2.6573,-2.6457,-2.6094,-2.6852,-2.7345,-2.6852,-2.8127,-2.885,-2.8174,-2.9286,-3.006,-2.9928,-3.0784,-3.1374,-3.1507,-3.1623,-3.1709,-3.1709,-3.1807,-3.2046,-3.2473,-3.2579,-3.259,-3.247,-3.2466,-3.2609,-3.2914,-3.283,-3.3087,-3.3614,-3.3625,-3.403,-3.4703,-3.4676,-3.4686,-3.4719,-3.4719,-3.4635,-3.4468,-3.405,-3.3986,-3.4104,-3.4233,-3.43,-3.4349,0.0,0.0,0.0,0.0,0.0,0.0,0.0,0.0,0.0,0.0,0.0,0.0,0.0,0.0,0.0,0.0,0.0,0.0,0.0,0.0,-0.9234,-1.0906,-1.2086,-1.3765,-1.6013,-1.748,-1.8142,-1.8027,-2.0897,-2.1899,-2.1094,-2.0836,-1.9691,-1.7849,-1.7042,-1.6319,-1.5533,-1.3151,-1.1768,-1.1108,-1.0148,0.0,0.0,0.0,0.0,0.0,0.0,0.0,0.0,0.0,0.0,0.0,0.0,0.0,-1.6708,-1.6751,-1.7955,-1.9424,-2.0091,-2.1191,-2.2597,-2.4354,-2.3274,-2.1957,-2.2717,-2.3453,-2.4312,-2.5556,-2.5803,-2.5818,-2.585,-2.5876,-2.6065,-2.6646,-2.6794,-2.6837,-2.682,-2.7303,-2.7486,-2.6983,-2.8435,-2.93,-2.8862,-3.0417,-3.1492,-3.1508,-3.202,-3.2342,-3.2342,-3.2342,-3.2355,-3.241,-3.2473,-3.2266,-3.1792,-3.1782,-3.211,-3.2708,-3.2346,-3.2484,-3.3031,-3.2563,-3.2993,-3.4161,-3.4036,-3.405,-3.4157,-3.4157,-3.3835,-3.3321,-3.3266,-3.3607,-3.4167,-3.4659,-3.4851,-3.4851,0.0,0.0,0.0,0.0,0.0,0.0,0.0,0.0,0.0,0.0,0.0,0.0,0.0,0.0,0.0,0.0,0.0,0.0,0.0,-0.8217,-0.9449,-1.1551,-1.2435,-1.4071,-1.6624,-1.7933,-1.9047,-1.998,-2.0568,-2.0474,-1.961,-1.8672,-1.7895,-1.7275,-1.6464,-1.5847,-1.528,-1.3415,-1.1952,-1.0798,-1.0091,-0.9517,0.0,0.0,0.0,0.0,0.0,0.0,0.0,0.0,-1.1112,-1.1991,-1.291,-1.4127,-1.5316,-1.5907,-1.7389,-1.8975,-1.9607,-2.1332,-2.3145,-2.383,-2.3387,-2.3293,-2.5261,-2.5716,-2.5847,-2.6326,-2.6094,-2.5803,-2.5803,-2.6152,-2.6515,-2.6762,-2.6806,-2.6806,-2.6806,-2.6948,-2.7146,-2.7343,-2.8307,-2.9022,-2.9232,-3.028,-3.094,-3.094,-3.1146,-3.1292,-3.1292,-3.1292,-3.1292,-3.1292,-3.132,-3.1233,-3.1029,-3.1013,-3.1143,-3.1398,-3.1333,-3.1622,-3.2176,-3.2154,-3.2606,-3.3404,-3.3436,-3.349,-3.3541,-3.3534,-3.3641,-3.3751,-3.3776,-3.3672,-3.3553,-3.3783,-3.386,-3.386,0.0,0.0,0.0,0.0,0.0,0.0,0.0,0.0,0.0,0.0,0.0,0.0,0.0,0.0,0.0,0.0,0.0,0.0,-0.7857,-0.8239,-0.9465,-1.1756,-1.2397,-1.3933,-1.6533,-1.7843,-1.9311,-2.0924,-2.0118,-1.9182,-1.8109,-1.6987,-1.6592,-1.6769,-1.6073,-1.5568,-1.5172,-1.3728,-1.2226,-1.0791,-1.0248,-0.9666,0.0,0.0,0.0,0.0,0.0,0.0,0.0,0.0,-1.0849,-1.1728,-1.2494,-1.3589,-1.4754,-1.5599,-1.7432,-1.9296,-1.9914,-2.1805,-2.3727,-2.4134,-2.4166,-2.4705,-2.6987,-2.6792,-2.6274,-2.6707,-2.6442,-2.6123,-2.6123,-2.65,-2.6806,-2.6806,-2.6806,-2.6806,-2.6806,-2.6806,-2.7012,-2.7623,-2.8289,-2.8927,-2.9537,-3.0205,-3.0598,-3.0598,-3.0598,-3.0598,-3.0598,-3.0598,-3.0598,-3.0598,-3.0598,-3.0598,-3.0598,-3.0598,-3.0598,-3.0598,-3.0686,-3.1085,-3.1723,-3.194,-3.2374,-3.3003,-3.3109,-3.3151,-3.3192,-3.3198,-3.3352,-3.3583,-3.3742,-3.3465,-3.2975,-3.3145,-3.3182,-3.3182,0.0,0.0,0.0,0.0,0.0,0.0,0.0,0.0,0.0,0.0,0.0,0.0,0.0,0.0,0.0,0.0,0.0,0.0,-0.8053,-0.8228,-0.9179,-1.1207,-1.1808,-1.3268,-1.5805,-1.7344,-1.8859,-2.047,-1.9696,-1.8476,-1.6872,-1.6408,-1.6341,-1.6548,-1.6086,-1.5778,-1.5495,-1.4147,-1.2697,-1.1257,-1.0787,-0.9999,-0.9106,0.0,0.0,0.0,0.0,0.0,0.0,0.0,-1.0866,-1.1686,-1.2238,-1.3674,-1.5329,-1.5996,-1.8276,-2.0741,-2.1397,-2.2937,-2.4631,-2.5973,-2.5842,-2.5766,-2.7174,-2.6049,-2.5106,-2.6492,-2.6779,-2.6806,-2.6806,-2.6806,-2.6806,-2.6806,-2.6806,-2.6806,-2.6806,-2.6806,-2.7026,-2.7637,-2.8303,-2.8942,-2.9537,-3.0205,-3.0598,-3.0598,-3.0598,-3.0598,-3.0598,-3.0598,-3.0598,-3.0598,-3.0598,-3.0598,-3.0598,-3.0598,-3.0598,-3.0598,-3.0598,-3.0966,-3.1707,-3.1841,-3.2273,-3.2964,-3.3008,-3.3056,-3.3175,-3.3199,-3.2894,-3.2458,-3.2992,-3.2868,-3.2465,-3.2986,-3.3182,-3.3182,0.0,0.0,0.0,0.0,0.0,0.0,0.0,0.0,0.0,0.0,0.0,0.0,0.0,0.0,0.0,0.0,0.0,0.0,-0.7789,-0.8128,-0.8812,-0.998,-1.1081,-1.2304,-1.3624,-1.6034,-1.8164,-2.0067,-1.9567,-1.8339,-1.6468,-1.5746,-1.5381,-1.5302,-1.4787,-1.4422,-1.412,-1.3006,-1.1859,-1.0803,-1.0665,-0.9999,-0.914,0.0,0.0,0.0,0.0,0.0,0.0,0.0,0.0,0.0,-1.2033,-1.3269,-1.4379,-1.4867,-1.7882,-2.106,-2.0942,-2.3255,-2.579,-2.6079,-2.5854,-2.5664,-2.6067,-2.6517,-2.6814,-2.6794,-2.6428,-2.6108,-2.6108,-2.6486,-2.6806,-2.6806,-2.6806,-2.6806,-2.6806,-2.7171,-2.7679,-2.8332,-2.8956,-2.9595,-3.0234,-3.0496,-3.0598,-3.0598,-3.0598,-3.0598,-3.0598,-3.0598,-3.0598,-3.0598,-3.0598,-3.0598,-3.0598,-3.0598,-3.0598,-3.0598,-3.0598,-3.0759,-3.107,-3.1232,-3.1501,-3.1806,-3.1909,-3.1983,-3.2044,-3.2462,-3.2534,-3.2446,-3.2997,-3.3093,-3.2949,-3.2722,-3.2641,-3.2574,0.0,0.0,0.0,0.0,0.0,0.0,0.0,0.0,0.0,0.0,-0.6626,-0.6876,0.0,0.0,0.0,0.0,0.0,0.0,-0.7635,-0.8039,-0.8612,-0.9432,-1.0452,-1.1623,-1.2909,-1.5065,-1.6862,-1.8247,-1.8467,-1.7642,-1.5826,-1.5487,-1.531,-1.5253,-1.5006,-1.471,-1.4314,-1.3186,-1.2245,-1.1486,-1.1055,-1.05,-0.9988,0.0,0.0,0.0,0.0,0.0,0.0,0.0,0.0,0.0,-1.1545,-1.2529,-1.3622,-1.5241,-1.8179,-2.1055,-2.1877,-2.4198,-2.6353,-2.6218,-2.6067,-2.5975,-2.607,-2.6512,-2.6852,-2.6474,-2.6474,-2.6474,-2.6253,-2.6721,-2.7084,-2.6849,-2.6806,-2.6806,-2.6806,-2.7331,-2.7942,-2.8636,-2.9232,-2.9871,-3.0539,-3.0598,-3.0598,-3.0598,-3.0598,-3.0598,-3.0598,-3.0598,-3.0598,-3.0598,-3.0598,-3.0598,-3.0598,-3.0598,-3.0598,-3.0598,-3.0598,-3.0717,-3.0911,-3.1043,-3.1131,-3.1231,-3.1677,-3.1862,-3.1918,-3.2493,-3.2579,-3.2422,-3.2465,-3.234,-3.2099,-3.1748,-3.1652,-3.1642,0.0,0.0,0.0,0.0,0.0,0.0,0.0,0.0,0.0,-0.626,-0.639,-0.6612,0.0,0.0,0.0,-0.7181,-0.7077,-0.7153,-0.7519,-0.7917,-0.8469,-0.9209,-0.9912,-1.1173,-1.303,-1.4295,-1.5111,-1.5469,-1.6789,-1.6624,-1.5056,-1.5524,-1.5789,-1.585,-1.6022,-1.5859,-1.5322,-1.4012,-1.3165,-1.2613,-1.1687,-1.1222,-1.1062,-1.0734,0.0,0.0,0.0,0.0,0.0,0.0,0.0,0.0,-1.0858,-1.1668,-1.3036,-1.6295,-1.8657,-2.079,-2.3307,-2.5205,-2.6416,-2.6254,-2.6347,-2.6477,-2.6579,-2.6184,-2.5832,-2.589,-2.6765,-2.7376,-2.6881,-2.7258,-2.7434,-2.6881,-2.6806,-2.6835,-2.6852,-2.7418,-2.8057,-2.8695,-2.9319,-2.9929,-3.0539,-3.0598,-3.0598,-3.0598,-3.0598,-3.0598,-3.0598,-3.0598,-3.0598,-3.0598,-3.0598,-3.0598,-3.0598,-3.0598,-3.0598,-3.0598,-3.0598,-3.0793,-3.1084,-3.1099,-3.1099,-3.1171,-3.1964,-3.2338,-3.235,-3.277,-3.2698,-3.2253,-3.1589,-3.1007,-3.0597,-3.0597,-3.0597,-3.0687,0.0,0.0,0.0,0.0,0.0,0.0,0.0,0.0,-0.546,-0.5594,-0.5905,-0.6268,-0.6656,-0.6807,0.0,-0.7101,-0.7047,-0.7016,-0.7044,-0.7485,-0.7811,-0.798,-0.9467,-1.064,-1.1393,-1.2919,-1.3727,-1.3809,-1.5973,-1.6211,-1.4662,-1.5698,-1.561,-1.4623,-1.5222,-1.4946,-1.3968,-1.289,-1.1911,-1.1113,-1.1245,-1.0619,-0.9643,-1.0344,-1.0112,0.0,0.0,0.0,0.0,0.0,0.0,0.0,-1.0291,-1.1391,-1.2733,-1.4006,-1.7316,-2.0639,-2.0818,-2.3478,-2.6105,-2.57,-2.5764,-2.5825,-2.5346,-2.5531,-2.5963,-2.6486,-2.6373,-2.6315,-2.6747,-2.6895,-2.6939,-2.6835,-2.6806,-2.6968,-2.7434,-2.8071,-2.871,-2.932,-2.9987,-3.0452,-3.0598,-3.0598,-3.0598,-3.0598,-3.0598,-3.0598,-3.0598,-3.0598,-3.0598,-3.0598,-3.0598,-3.0598,-3.0598,-3.0598,-3.0598,0.0,-3.0703,-3.0793,-3.0878,-3.1025,-3.1216,-3.1422,-3.1623,-3.168,-3.1664,-3.1248,-3.1326,-3.1622,-3.0973,-3.0949,-3.1286,-3.1286,-3.1286,-3.1301,0.0,0.0,0.0,0.0,0.0,0.0,0.0,0.0,-0.5135,-0.5374,-0.5609,-0.5897,-0.6275,-0.6611,0.0,0.0,-0.6942,-0.6987,-0.6951,-0.7353,-0.7808,-0.8287,-0.9215,-0.9916,-1.033,-1.1724,-1.2434,-1.2434,-1.3882,-1.446,-1.4231,-1.5258,-1.5076,-1.3962,-1.5204,-1.5211,-1.4255,-1.3229,-1.2521,-1.1997,-1.1497,-1.0998,-1.0566,-1.0898,-1.0762,-1.0382,-1.0179,0.0,0.0,0.0,0.0,0.0,0.0,0.0,-1.2208,-1.4132,-1.6514,-1.8926,-2.0677,-2.2848,-2.4829,-2.5709,-2.6035,-2.5904,-2.4988,-2.5575,-2.6184,-2.5908,-2.6068,-2.6399,-2.6747,-2.6806,-2.6806,-2.6806,-2.6806,-2.7012,-2.7623,-2.8274,-2.8913,-2.9523,-3.019,-3.0598,-3.0598,-3.0598,-3.0598,-3.0598,-3.0598,-3.0598,-3.0598,-3.0598,-3.0598,-3.0598,-3.0598,-3.0598,-3.0598,-3.0598,-3.0643,-3.0689,-3.0688,-3.0778,-3.0939,-3.1128,-3.1126,-3.1017,-3.1017,-3.0866,-3.0567,-3.0208,-3.0447,-3.0943,-3.0313,-3.0462,-3.1017,-3.1017,-3.1017,-3.1062,0.0,0.0,0.0,0.0,0.0,0.0,0.0,0.0,0.0,-0.5248,-0.5365,-0.5538,-0.5882,-0.6306,-0.658,0.0,0.0,0.0,-0.6966,-0.7306,-0.7903,-0.883,-0.8949,-0.9152,-0.9482,-1.0686,-1.1301,-1.1301,-1.1632,-1.2441,-1.3718,-1.4359,-1.4223,-1.3471,-1.5103,-1.552,-1.4926,-1.4001,-1.3611,-1.3478,-1.2123,-1.1733,-1.1941,-1.1595,-1.1454,-1.1413,-1.1081,-1.0746,-1.0425,-1.0327,0.0,0.0,0.0,0.0,-1.1612,-1.4431,-1.5664,-1.6922,-2.06,-2.2402,-2.375,-2.5936,-2.657,-2.6378,-2.5235,-2.5836,-2.63,-2.5201,-2.5952,-2.6806,-2.6806,-2.6806,-2.6806,-2.6806,-2.6806,-2.7012,-2.7623,-2.8274,-2.8913,-2.9523,-3.019,-3.0598,-3.0598,-3.0598,-3.0598,-3.0598,-3.0598,-3.0598,-3.0598,-3.0598,-3.0598,-3.0598,-3.0598,-3.0598,-3.0598,-3.0481,-3.0484,-3.0573,-3.0513,-3.0705,-3.1087,-3.1218,-3.1051,-3.0687,-3.0687,-3.0387,-2.9909,-2.9789,-3.0118,-3.0612,-2.9956,-3.0105,-3.0658,-3.0602,-3.063,-3.0705,0.0,0.0,0.0,0.0,0.0,0.0,0.0,0.0,0.0,0.0,-0.4944,-0.5122,-0.5522,-0.5632,-0.5897,-0.646,-0.6497,-0.6573,-0.6811,0.0,0.0,-0.7946,-0.8353,-0.8608,-0.8655,-0.9831,-1.0456,-1.0456,-1.0511,-1.1329,-1.2854,-1.2964,-1.2855,-1.2609,-1.3789,-1.4389,-1.4533,-1.3872,-1.3591,-1.3535,-1.2935,-1.2169,-1.1394,-1.1354,-1.1155,-1.09,-1.0845,-1.0911,-1.0918,-1.0461,-1.0243,0.0,0.0,0.0,-1.1089,-1.1947,-1.3883,-1.6101,-1.759,-2.1035,-2.4551,-2.5966,-2.6849,-2.7056,-2.5926,-2.5792,-2.5865,-2.5691,-2.6257,-2.6806,-2.6806,-2.6806,-2.6806,-2.6806,-2.6806,-2.7012,-2.7623,-2.8274,-2.8913,-2.9523,-3.019,-3.0598,-3.0598,-3.0598,-3.0598,-3.0598,-3.0598,-3.0598,-3.0598,-3.0598,-3.0598,-3.0598,-3.0598,-3.0598,-3.0598,-3.0032,-2.9725,-2.9748,-2.9925,-3.0381,-3.1102,-3.1132,-3.1219,-3.1376,-3.1376,-3.1316,-3.1197,-3.0627,-3.0776,-3.1301,-3.0503,-3.0608,-3.1173,-3.1057,-3.1101,-3.1188,0.0,0.0,0.0,0.0,0.0,0.0,0.0,0.0,0.0,0.0,0.0,-0.4969,-0.5144,-0.5365,-0.5617,-0.5913,-0.6222,-0.6543,-0.69,-0.6957,-0.7241,-0.7775,-0.7787,-0.7876,-0.8098,-0.9105,-0.952,-0.929,-0.952,-1.0339,-1.1693,-1.1228,-1.1561,-1.2601,-1.3184,-1.3652,-1.4025,-1.4304,-1.428,-1.3994,-1.3509,-1.34,-1.3511,-1.2689,-1.2852,-1.3445,-1.2609,-1.2178,-1.1909,-1.1375,-1.0798,-1.0255,-0.9944,0.0,0.0,0.0,-1.2914,-1.4825,-1.7522,-2.0519,-2.3311,-2.513,-2.5994,-2.6283,-2.5703,-2.5988,-2.6141,-2.54,-2.6068,-2.6806,-2.6806,-2.6806,-2.6806,-2.6806,-2.6806,-2.7012,-2.7623,-2.7942,-2.839,-2.9015,-2.9377,-2.9552,-2.9552,-2.9552,-2.9552,-2.9552,-2.9537,-2.9534,-2.9541,-2.9541,-2.9547,-2.9523,-2.9552,-2.9537,-2.9536,-2.9579,-2.9783,-3.0163,-3.0073,-3.0337,-3.091,-3.0675,-3.06,-3.0715,-3.0715,-3.0493,-3.0136,-2.9839,-3.0121,-3.0671,-3.0332,-3.0584,-3.119,-3.1102,-3.1132,-3.119,0.0,0.0,0.0,0.0,0.0,0.0,0.0,0.0,0.0,0.0,0.0,-0.4874,-0.4899,0.0,0.0,0.0,-0.5952,-0.6443,-0.6942,-0.6987,-0.7181,-0.7605,-0.7345,-0.7327,-0.7614,-0.8364,-0.8583,-0.8273,-0.8666,-0.9599,-1.1017,-1.0185,-1.0957,-1.2991,-1.2966,-1.3099,-1.3405,-1.4593,-1.4971,-1.4752,-1.4542,-1.4895,-1.5472,-1.4537,-1.4986,-1.5942,-1.4701,-1.3821,-1.3161,-1.2488,-1.1531,-1.0588,-1.0395,-1.0645,0.0,0.0,0.0,-1.4006,-1.7395,-1.9758,-2.1734,-2.3822,-2.4833,-2.5273,-2.519,-2.5738,-2.6026,-2.5171,-2.5709,-2.6344,-2.6504,-2.6704,-2.6806,-2.6806,-2.6806,-2.6953,-2.7391,-2.7594,-2.7884,-2.839,-2.8607,-2.8709,-2.8709,-2.8709,-2.8709,-2.8709,-2.8712,-2.8713,-2.8693,-2.8711,-2.8699,-2.87,-2.869,-2.8707,-2.8709,-2.9146,-2.9693,-3.0321,-3.0104,-3.0236,-3.0747,-3.0397,-3.0235,-3.0235,-3.0336,-3.007,-2.9599,-2.9599,-2.9908,-3.0365,-3.0308,-3.0587,-3.1014,-3.0984,-3.0984,-3.1014,0.0,0.0,0.0,0.0,0.0,0.0,0.0,0.0,0.0,0.0,0.0,-0.4838,-0.489,-0.4864,-0.4992,-0.5374,-0.5663,-0.6137,-0.6855,-0.6966,-0.705,-0.7131,-0.7169,0.0,-0.7137,-0.7558,-0.7732,-0.7642,-0.8058,-0.9315,-1.1346,-1.0487,-1.1422,-1.382,-1.3132,-1.2715,-1.2669,-1.4368,-1.5378,-1.5889,-1.6473,-1.6464,-1.6126,-1.668,-1.7038,-1.7147,-1.6538,-1.568,-1.4633,-1.3574,-1.2473,-1.142,-1.086,-1.0997,-1.137,0.0,0.0,0.0,-1.5942,-1.8191,-2.0424,-2.2192,-2.3559,-2.4469,-2.4513,-2.4696,-2.4935,-2.5451,-2.5194,-2.51,-2.572,-2.6384,-2.6806,-2.6806,-2.6806,-2.682,-2.6849,-2.7345,-2.771,-2.7753,-2.8303,-2.8709,-2.8709,-2.8709,-2.8709,0.0,-2.8695,-2.871,-2.8696,-2.871,-2.8707,-2.8704,-2.8682,-2.8712,-2.8692,-2.8741,-2.9058,-2.9639,-2.9639,-2.9958,-3.0598,-3.0598,-3.0584,-3.0584,-3.0911,-3.1043,-3.1014,-3.1014,-3.1028,-3.1029,-3.0837,-3.0792,-3.0791,-3.0672,-3.0702,-3.0791,0.0,0.0,0.0,0.0,0.0,0.0,0.0,0.0,0.0,0.0,0.0,0.0,0.0,-0.4832,-0.487,-0.5058,-0.5522,-0.6122,-0.6855,-0.693,-0.6966,-0.7032,-0.7062,-0.7062,-0.7041,-0.7425,-0.7489,-0.7215,-0.7615,-0.863,-1.0191,-1.0131,-1.0776,-1.2012,-1.2561,-1.2894,-1.3167,-1.4523,-1.521,-1.5464,-1.6449,-1.7177,-1.7664,-1.7309,-1.7671,-1.8262,-1.7289,-1.6323,-1.5413,-1.4924,-1.3673,-1.2246,-1.1901,-1.1668,-1.1617,-1.2178,-1.2849,-1.3819,-1.5683,-1.7111,-1.8602,-2.0646,-2.2122,-2.3251,-2.406,-2.4403,-2.4638,-2.4855,-2.4806,-2.4707,-2.4661,-2.5462,-2.6166,-2.6166,-2.653,-2.6806,-2.6806,-2.6982,-2.7128,-2.7128,-2.7316,-2.7488,-2.7488,-2.7488,0.0,0.0,0.0,-2.7488,-2.7488,-2.7486,-2.7474,-2.7474,-2.7474,-2.7869,-2.868,-2.9099,-2.961,-3.0234,-3.0234,-3.038,-3.0598,-3.0598,-3.0598,-3.0598,-3.0732,-3.0791,-3.0791,-3.0791,-3.0791,-3.0762,-3.0702,-3.0672,-3.0672,-3.0612,-3.0642,-3.0672,0.0,0.0,0.0,0.0,0.0,0.0,0.0,0.0,-0.5089,-0.5299,0.0,0.0,0.0,0.0,-0.4902,-0.5176,-0.5577,-0.6122,-0.6855,-0.693,-0.6951,-0.7002,-0.7017,-0.7002,-0.6957,-0.699,-0.7037,-0.7105,-0.7114,-0.7927,-0.9477,-0.9747,-1.0318,-1.1135,-1.1847,-1.2396,-1.2872,-1.3939,-1.4584,-1.4982,-1.646,-1.7538,-1.8263,-1.846,-1.8899,-1.935,-1.8551,-1.7597,-1.6729,-1.6586,-1.5408,-1.3942,-1.3439,-1.2829,-1.2356,-1.2777,-1.2993,-1.338,-1.4673,-1.5741,-1.6926,-1.8762,-2.0411,-2.1856,-2.2878,-2.3731,-2.4272,-2.4134,-2.4355,-2.4438,-2.3917,-2.4486,-2.5133,-2.5457,-2.5856,-2.6222,-2.6445,-2.6445,-2.6559,-2.6765,-2.6806,-2.6806,0.0,0.0,0.0,0.0,0.0,0.0,-2.6806,-2.6806,-2.6898,-2.7095,-2.7091,-2.7695,-2.8985,-2.9421,-2.9943,-3.0598,-3.0598,-3.0598,-3.0598,-3.0598,-3.0598,-3.0598,-3.0598,-3.0598,-3.0598,-3.0598,-3.0598,-3.0598,-3.0598,-3.0598,-3.0598,-3.0598,-3.0598,-3.0598,0.0,0.0,0.0,0.0,0.0,0.0,0.0,0.0,-0.5428,-0.5577,0.0,0.0,0.0,0.0,0.0,-0.5748,-0.581,-0.6129,-0.6855,-0.6966,-0.6987,-0.6987,-0.7041,-0.702,-0.687,-0.6175,-0.6291,-0.7262,-0.6567,-0.7286,-0.9352,-0.9361,-1.0092,-1.1402,-1.1034,-1.1145,-1.1662,-1.261,-1.3545,-1.459,-1.6728,-1.7618,-1.7877,-2.0163,-2.0766,-2.0384,-2.0315,-1.9566,-1.861,-1.8472,-1.7604,-1.6428,-1.5383,-1.4396,-1.3544,-1.3038,-1.2889,-1.2889,0.0,0.0,0.0,-1.6592,-1.8467,-2.0235,-2.0986,-2.2512,-2.369,-2.3326,-2.3803,-2.4096,-2.357,-2.3505,-2.3781,-2.4686,-2.4859,-2.5083,-2.5705,-2.5767,-2.5999,-2.668,-2.6738,0.0,0.0,0.0,0.0,0.0,-2.6806,-2.6806,-2.6806,-2.6806,-2.7079,-2.7639,-2.7705,-2.8307,-2.9552,-2.9581,-2.9943,-3.0598,-3.0598,-3.0598,-3.0598,-3.0598,-3.0598,-3.0598,-3.0598,-3.0598,-3.0598,-3.0598,-3.0598,-3.0598,-3.0598,-3.0598,-3.0598,-3.0598,-3.0598,-3.0598,0.0,0.0,0.0,0.0,0.0,-0.4577,-0.4865,-0.4986,-0.5132,0.0,0.0,0.0,-0.5328,-0.5372,-0.558,-0.6039,-0.6091,-0.6304,-0.6798,-0.6848,-0.6757,-0.6506,-0.6506,-0.6399,-0.6106,-0.6145,-0.6298,-0.6576,-0.6607,-0.7139,-0.8095,-0.8397,-0.8964,-0.9769,-0.9943,-1.0625,-1.1683,-1.301,-1.3902,-1.459,-1.6751,-1.7836,-1.8305,-1.9378,-1.9952,-2.0217,-2.0434,-1.9907,-1.908,-1.8953,-1.7804,-1.6209,-1.4691,-1.4213,-1.4015,-1.3142,-1.2889,-1.2889,-1.2889,0.0,0.0,0.0,0.0,0.0,-2.0234,-2.0943,-2.1571,-2.2341,-2.275,-2.2925,-2.2924,-2.3226,-2.3424,-2.3261,-2.409,-2.4874,-2.5177,-2.4857,-2.4802,-2.5425,0.0,0.0,0.0,0.0,0.0,0.0,-2.6806,-2.6806,-2.6806,-2.6806,-2.6869,-2.7035,-2.7456,-2.8104,-2.8927,-2.9392,-2.9943,-3.0598,-3.0598,-3.0598,-3.0598,-3.0598,-3.0598,-3.0598,-3.0598,-3.0598,-3.0598,-3.0598,-3.0598,-3.0598,-3.0598,-3.0598,-3.0598,-3.0598,-3.0598,-3.0598,0.0,0.0,-0.3344,-0.3786,-0.4364,-0.4879,-0.5221,-0.537,-0.5534,0.0,0.0,0.0,-0.5383,-0.5748,-0.6018,-0.6152,-0.6268,-0.635,-0.6424,-0.6536,-0.645,-0.6153,-0.6129,-0.6021,-0.5811,-0.5798,-0.6024,-0.6506,-0.643,-0.6795,-0.759,-0.7701,-0.8134,-0.8857,-0.9096,-0.9992,-1.1409,-1.2852,-1.3947,-1.4832,-1.6305,-1.7455,-1.8402,-1.9674,-2.0222,-2.0374,-2.1016,-2.0822,-2.0258,-2.0282,-1.9025,-1.727,-1.6288,-1.5533,-1.4821,-1.3831,-1.3371,-1.305,-1.2417,-1.3122,-1.4186,-1.4643,0.0,0.0,-1.9524,-2.0251,-2.0914,-2.1993,-2.2266,-2.2267,-2.2183,-2.2604,-2.2935,-2.2845,-2.3734,-2.4389,-2.4399,-2.408,-2.4067,0.0,0.0,0.0,0.0,-2.57,-2.6088,-2.7027,-2.7093,-2.7231,-2.7567,-2.7341,-2.7422,-2.7948,-2.8307,-2.8813,-2.9493,-2.9842,-3.0205,-3.0598,-3.0598,-3.0598,-3.0598,-3.0598,-3.0598,-3.0598,-3.0598,-3.0598,-3.0598,-3.0598,-3.0598,-3.0598,-3.0598,-3.0598,-3.0598,-3.0672,-3.0672,-3.0702,0.0,0.0,-0.3319,-0.3965,-0.4725,-0.5374,-0.5793,-0.6046,-0.6257,0.0,-0.5847,-0.5469,-0.5533,-0.6143,-0.6445,-0.618,-0.6428,-0.6412,-0.6014,-0.6227,-0.6233,-0.5894,-0.5879,-0.5818,-0.5686,-0.5315,-0.5642,-0.6688,-0.6124,-0.6425,-0.7519,-0.7219,-0.7562,-0.8416,-0.8491,-0.9432,-1.1064,-1.2341,-1.3823,-1.5381,-1.5911,-1.7035,-1.857,-2.0592,-2.1105,-2.0862,-2.1777,-2.1841,-2.1576,-2.1726,-2.0561,-1.9023,-1.8821,-1.7602,-1.5992,-1.4774,-1.4107,-1.3432,-1.1887,-1.2479,-1.344,-1.3061,-1.4683,0.0,-1.86,-1.9712,-2.0624,-2.1499,-2.1806,-2.177,-2.1332,-2.168,-2.227,-2.2914,-2.3414,-2.364,-2.3522,-2.343,-2.3649,0.0,0.0,0.0,-2.5338,-2.5397,-2.5953,-2.7282,-2.7463,-2.78,-2.8537,-2.8095,-2.8323,-2.9473,-2.9493,-2.9827,-3.0496,-3.0496,-3.0539,-3.0598,-3.0598,-3.0598,-3.0598,-3.0598,-3.0598,-3.0598,-3.0598,-3.0598,-3.0598,-3.0598,-3.0598,-3.0598,-3.0612,-3.0612,-3.0642,-3.0791,-3.0821,-3.0851,-0.1961,-0.2344,-0.2914,-0.3789,-0.4474,-0.5173,-0.6007,-0.6263,-0.6392,-0.6477,-0.6403,-0.636,-0.636,-0.663,-0.6746,-0.6527,-0.6886,-0.6941,-0.6492,-0.6704,-0.6534,-0.5763,-0.5742,-0.5501,-0.5004,-0.517,-0.55,-0.5994,-0.6127,-0.6482,-0.7044,-0.6965,-0.7269,-0.7888,-0.8433,-0.9699,-1.1494,-1.1921,-1.3921,-1.6834,-1.7384,-1.8538,-2.0056,-2.0922,-2.1417,-2.1684,-2.188,-2.1659,-2.1239,-2.095,-2.0507,-1.9856,-1.8387,-1.8101,-1.7821,-1.5233,-1.4634,-1.4488,-1.2992,-1.2808,-1.3107,-1.3394,-1.4144,0.0,-1.6306,-1.6834,-1.7319,-1.8295,-1.9262,-2.0044,-2.0375,-2.0819,-2.1339,-2.1914,-2.1849,-2.2152,-2.335,-2.3087,0.0,0.0,0.0,0.0,-2.5246,-2.5398,-2.573,-2.6486,-2.7134,-2.756,-2.7729,-2.8232,-2.8637,-2.8871,-2.8898,-2.9174,-2.9798,-2.9813,-3.0074,-3.0598,-3.0598,-3.0598,-3.0598,-3.0598,-3.0598,-3.0598,-3.0598,-3.0598,-3.0598,-3.0598,-3.0598,-3.0598,-3.0732,-3.0762,-3.0791,-3.0984,-3.1043,-3.0984,-0.189,-0.2327,-0.3001,-0.3939,-0.4742,-0.551,-0.6326,-0.6609,-0.6804,-0.6923,-0.7225,-0.7334,-0.7177,-0.7501,-0.7579,-0.7188,-0.7437,-0.7336,-0.6743,-0.6705,-0.6454,-0.5869,-0.5589,-0.5311,-0.5013,-0.5197,-0.5372,-0.5545,-0.6083,-0.6452,-0.6658,-0.7099,-0.7829,-0.8817,-0.9079,-1.0239,-1.2018,-1.2424,-1.404,-1.6392,-1.7541,-1.8964,-2.0515,-2.1558,-2.1927,-2.1929,-2.2214,-2.1973,-2.15,-2.1108,-2.0804,-2.0349,-1.9362,-1.9038,-1.8548,-1.6238,-1.551,-1.5062,-1.305,-1.2712,-1.2831,-1.2536,-1.3053,0.0,0.0,-1.5695,-1.6068,-1.7123,-1.8045,-1.872,-1.8991,-1.9858,-2.0635,-2.0924,-2.1744,-2.2305,-2.2209,-2.2536,-2.293,0.0,0.0,0.0,-2.4547,-2.4424,-2.4689,-2.5685,-2.6187,-2.6649,-2.7013,-2.7421,-2.7934,-2.8683,-2.8998,-2.9461,-3.0089,-3.0103,-3.0263,-3.0598,-3.0598,-3.0598,-3.0598,-3.0598,-3.0598,-3.0598,-3.0598,-3.0598,-3.0598,-3.0598,-3.0447,-3.0221,-3.0282,-3.0357,-3.0447,-3.0251,-3.019,-3.016,-0.1868,-0.2297,-0.3007,-0.4049,-0.492,-0.574,-0.6634,-0.6988,-0.7239,-0.7437,-0.7887,-0.8091,-0.7826,-0.8295,-0.8391,-0.7867,-0.8018,-0.7845,-0.7074,-0.687,-0.6659,-0.6371,-0.5772,-0.5438,-0.5438,-0.5337,-0.5289,-0.5293,-0.5959,-0.6346,-0.6488,-0.7262,-0.8353,-0.97,-0.9825,-1.075,-1.225,-1.3168,-1.4335,-1.5703,-1.7389,-1.9167,-2.0878,-2.2036,-2.2343,-2.2204,-2.2206,-2.2091,-2.1848,-2.1537,-2.1132,-2.0718,-2.0615,-2.0044,-1.9063,-1.7197,-1.656,-1.5899,-1.3231,-1.2756,-1.281,-1.1907,-1.2275,-1.3248,0.0,0.0,0.0,-1.6244,-1.6844,-1.7255,-1.7324,-1.8533,0.0,0.0,0.0,0.0,0.0,-2.1476,0.0,-2.2727,0.0,0.0,0.0,-2.4048,-2.4387,-2.4939,-2.5691,-2.6223,-2.6371,-2.6523,-2.7226,-2.8663,-2.9186,-2.9818,-3.0598,-3.0598,-3.0598,-3.0598,-3.0598,-3.0598,-3.0598,-3.0598,-3.0538,-3.0417,-3.0417,-3.0312,-3.0206,-3.0251,-2.9993,-2.967,-2.9808,-2.9901,-2.9901,-2.9484,-2.9328,-2.9328,-0.1746,-0.1777,-0.2301,-0.3779,-0.4331,-0.5086,-0.6711,-0.7189,-0.746,-0.7728,-0.8014,-0.8191,-0.8137,-0.8465,-0.8572,-0.8274,-0.8803,-0.8777,-0.7934,-0.8044,-0.8023,-0.7697,-0.6766,-0.6256,-0.6256,-0.5578,-0.5238,-0.5293,-0.5686,-0.6174,-0.6762,-0.7156,-0.7913,-0.8984,-1.0091,-1.0912,-1.1571,-1.3602,-1.508,-1.6243,-1.776,-1.9801,-2.1958,-2.1728,-2.2291,-2.2994,-2.1086,-2.105,-2.1885,-2.163,-2.1261,-2.0908,-2.114,-2.0963,-2.0179,-1.7468,-1.7574,-1.7893,-1.4808,-1.3761,-1.3422,-1.307,-1.2901,-1.2918,-1.3357,0.0,-1.3841,-1.3977,0.0,-1.4922,-1.5337,0.0,0.0,0.0,0.0,0.0,-1.7517,-1.9195,-2.0872,-2.1816,0.0,0.0,0.0,0.0,-2.6827,-2.4328,-2.7009,-2.7831,-2.574,-2.641,-2.7434,-2.8649,-2.8778,-2.9377,-3.0598,-3.0598,-3.0598,-3.0598,-3.0598,-3.0598,-3.0598,-3.0598,-3.0282,-2.9716,-2.9716,-2.9345,-2.8748,-2.8935,-2.903,-2.9174,-2.9794,-2.9777,-2.939,-2.947,-2.9473,-2.938,-0.1875,-0.1942,-0.2344,-0.3457,-0.416,-0.4957,-0.6078,-0.7204,-0.8057,-0.8382,-0.8776,-0.9063,-0.9163,-0.9263,-0.9254,-0.902,-0.9304,-0.9257,-0.8797,-0.8467,-0.823,-0.8141,-0.7044,-0.6443,-0.6395,-0.5772,-0.5449,-0.5472,-0.5813,-0.6117,-0.642,-0.7293,-0.8129,-0.8927,-1.0524,-1.1659,-1.2502,-1.3962,-1.556,-1.7162,-1.7474,-1.9157,-2.1451,-2.0762,-2.0512,-2.0452,-1.9521,-1.958,-2.0092,-2.0016,-2.0448,-2.0908,-2.0183,-2.0919,-2.1407,-1.8147,-1.7926,-1.8218,-1.5705,-1.4421,-1.392,-1.4216,-1.385,-1.3463,-1.3822,-1.3561,-1.315,-1.2809,0.0,0.0,0.0,0.0,0.0,0.0,-1.6364,0.0,-1.6436,0.0,-1.9604,0.0,0.0,0.0,0.0,0.0,0.0,0.0,0.0,-2.5793,-2.442,-2.479,-2.5686,-2.7039,-2.7759,-2.8745,-3.0016,-3.0423,-3.0598,-3.0598,-3.0221,-3.0038,-3.0007,-2.9563,-2.9237,-2.8967,-2.9075,-2.8949,-2.868,-2.8881,-2.8771,-2.8454,-2.8757,-2.8853,-2.8803,-2.8468,-2.8554,-2.8818,-0.2033,-0.2093,-0.2359,-0.316,-0.3818,-0.4603,-0.5699,-0.7209,-0.8379,-0.8856,-0.9317,-0.9669,-0.9895,-0.9821,-0.9757,-0.9792,-0.9796,-0.971,-0.9558,-0.9097,-0.8843,-0.8899,-0.7644,-0.6954,-0.6954,-0.6157,-0.5684,-0.5596,-0.5924,-0.6109,-0.6152,-0.7376,-0.8214,-0.877,-1.0683,-1.2018,-1.2968,-1.4263,-1.5829,-1.7363,-1.7158,-1.8143,-1.9771,-1.9816,-1.9339,-1.8606,-1.8446,-1.8558,-1.886,-1.8777,-1.9356,0.0,-1.9282,-2.0245,-2.1081,-1.8303,-1.8154,-1.8442,-1.6308,-1.5154,-1.4643,-1.5084,-1.4479,-1.3876,-1.4179,-1.3579,-1.2822,-1.2131,-1.2097,0.0,0.0,0.0,-1.3628,-1.3217,0.0,-1.5562,-1.4801,-1.6117,-1.7595,0.0,0.0,0.0,0.0,0.0,0.0,0.0,0.0,0.0,-2.3626,-2.3548,-2.4269,-2.5833,-2.6583,-2.7713,-2.9317,-2.9628,-2.9883,-3.0023,-2.9546,-2.9282,-2.9282,-2.873,-2.8395,-2.8247,-2.839,-2.8338,-2.8176,-2.8365,-2.8137,-2.7656,-2.7881,-2.81,-2.8266,-2.7745,-2.7884,-2.833,-0.2174,-0.2046,-0.2152,-0.2876,-0.3039,-0.3792,-0.5948,-0.7281,-0.8237,-0.8834,-0.9317,-0.9669,-0.9895,-0.9725,-0.9859,-1.0528,-1.0378,-1.0258,-1.018,-1.028,-1.0344,-1.0433,-0.8902,-0.813,-0.834,-0.6858,-0.5929,-0.5596,-0.5924,-0.6127,-0.6221,-0.7308,-0.7926,-0.8224,-1.0367,-1.1576,-1.2182,-1.4501,-1.5817,-1.6379,-1.6963,-1.6919,-1.6814,0.0,-1.9566,-1.8894,-1.8267,0.0,0.0,-1.8791,-1.8183,0.0,0.0,0.0,-1.8229,-1.7611,-1.8331,-1.8893,-1.6677,-1.6002,-1.585,-1.5488,-1.4576,-1.3796,-1.3803,-1.3389,-1.2772,-1.1898,-1.1412,-1.1055,-1.0712,-1.1491,-1.1861,-1.0862,-1.2066,0.0,0.0,-1.2593,-1.4311,-1.7134,0.0,0.0,0.0,0.0,0.0,0.0,0.0,0.0,-2.384,-2.3329,-2.3978,-2.5848,-2.5356,-2.623,-2.8603,-2.8071,-2.8048,-2.8556,-2.8556,-2.8524,-2.8524,-2.8524,-2.8149,-2.755,-2.7537,-2.7162,-2.6589,-2.6714,-2.6748,-2.6798,-2.754,-2.7815,-2.7815,-2.778,-2.791,-2.8165,-0.2205,-0.2172,-0.2242,-0.2499,-0.3232,-0.4494,-0.6593,-0.778,-0.8582,-0.8847,-0.9299,-0.9642,-0.9695,-0.962,-0.9565,-0.9679,-0.9753,-0.9721,-0.9554,-0.9703,-0.9728,-0.9528,-0.8821,-0.8235,-0.7801,-0.6951,-0.6384,-0.6136,-0.6071,-0.6049,-0.609,-0.6766,-0.7297,-0.7771,-0.9427,-1.108,-1.2651,-1.3591,-1.5238,-1.7184,-1.6907,-1.6711,-1.6675,0.0,-1.7397,-1.7207,-1.7239,-1.7512,0.0,-1.773,-1.7954,-1.8199,-1.7782,-1.8459,-1.9045,-1.7378,-1.7577,0.0,0.0,0.0,-1.6362,-1.7024,-1.7078,-1.6724,-1.5811,-1.5213,-1.443,-1.2877,-1.1435,-1.0364,-1.0134,-1.0173,-1.0242,-1.0198,-1.077,-1.1304,0.0,-1.2183,-1.2998,0.0,0.0,0.0,0.0,0.0,0.0,0.0,0.0,0.0,0.0,-2.3879,-2.3999,-2.4699,-2.4892,-2.5575,-2.6799,-2.74,-2.7799,-2.7971,-2.7864,-2.7835,-2.7835,-2.7384,-2.704,-2.685,-2.6939,-2.685,-2.6658,-2.6829,-2.6829,-2.6777,-2.7544,-2.7879,-2.7917,-2.8193,-2.872,-2.929,-0.226,-0.2343,-0.2393,-0.2336,-0.3457,-0.4924,-0.6615,-0.7728,-0.8491,-0.8741,-0.9174,-0.9499,-0.9606,-0.9428,-0.9335,-0.9493,-0.9456,-0.9496,-0.957,-0.9627,-0.9587,-0.9463,-0.8964,-0.844,-0.7934,-0.7252,-0.679,-0.6498,-0.6271,-0.6037,-0.5872,-0.6434,-0.6835,-0.7141,-0.8676,-1.0551,-1.2622,-1.3129,-1.4898,-1.7283,-1.6572,-1.6234,0.0,0.0,-1.6395,-1.6848,0.0,-1.7192,-1.7289,-1.7289,-1.7639,-1.7916,-1.7165,-1.7725,-1.844,-1.7198,-1.7131,-1.7546,-1.7581,-1.7058,0.0,-1.7576,-1.7653,0.0,-1.6779,-1.625,-1.5439,-1.3976,-1.2532,-1.1348,-1.0829,-1.0183,-0.9848,-1.0264,-1.0106,-1.0172,0.0,-1.1226,0.0,0.0,0.0,0.0,0.0,0.0,0.0,0.0,0.0,0.0,0.0,0.0,-2.4124,-2.4387,-2.4352,-2.473,-2.5553,-2.6303,-2.6749,-2.6948,-2.7077,-2.7129,-2.7129,-2.6679,-2.6499,-2.6499,-2.6589,-2.6624,-2.6658,-2.6807,-2.6829,-2.679,-2.7809,-2.8187,-2.8251,-2.873,-2.9391,-3.0093,-0.2319,-0.2469,-0.2564,-0.2488,-0.3671,-0.503,-0.6142,-0.7165,-0.7998,-0.8533,-0.8913,-0.9252,-0.9512,-0.9137,-0.9161,-0.9874,-0.9506,-0.9511,-1.0159,-0.9976,-0.9981,-1.0206,-0.9335,-0.8756,-0.868,-0.7789,-0.7118,-0.671,-0.6517,-0.614,-0.5632,-0.6349,-0.6567,-0.6418,-0.8084,-1.0006,-1.2063,-1.31,-1.4694,-1.6545,-1.5928,-1.5423,-1.5154,-1.5532,-1.655,-1.7744,-1.7579,-1.7492,-1.7492,-1.7531,-1.7252,-1.6944,-1.6944,-1.6641,-1.643,-1.6998,-1.7072,-1.7008,-1.7153,-1.7052,-1.6958,-1.7126,0.0,0.0,0.0,0.0,-1.5862,-1.5082,-1.4475,-1.3765,-1.2661,-1.1429,-1.0655,-1.0925,-1.0059,-0.9433,-0.9663,-0.9683,-0.9832,0.0,0.0,0.0,0.0,0.0,0.0,0.0,0.0,0.0,0.0,0.0,-2.4309,-2.4832,-2.3742,-2.3674,-2.481,-2.4766,-2.5046,-2.5561,-2.6172,-2.6461,-2.6499,-2.6499,-2.6499,-2.6499,-2.6499,-2.6499,-2.6521,-2.6658,-2.6726,-2.69,-2.8183,-2.8764,-2.888,-2.9382,-2.9907,-3.0444,-0.1749,-0.2042,-0.2567,-0.3363,-0.4496,-0.5527,-0.6263,-0.7387,-0.8203,-0.8369,-0.8565,-0.8709,-0.8866,-0.8627,-0.8517,-0.8738,-0.8614,-0.864,-0.8802,-0.9179,-0.9289,-0.9052,-0.9068,-0.8857,-0.8356,-0.7745,-0.731,-0.7007,-0.6601,-0.6236,-0.5913,-0.6297,-0.6701,-0.7144,-0.7544,-0.9382,-1.2211,-1.2256,-1.3357,-1.507,-1.5098,-1.5201,-1.5349,0.0,-1.6285,-1.7235,-1.7372,-1.7413,-1.7453,-1.7774,-1.7638,-1.7368,-1.7368,-1.7072,-1.673,-1.6763,-1.6715,-1.6746,-1.6927,-1.6955,-1.6902,-1.6964,-1.7688,-1.8091,0.0,0.0,0.0,0.0,-1.4639,-1.3905,-1.3215,-1.2277,-1.1654,-1.1759,-1.0901,-1.0014,-0.9477,0.0,0.0,-0.9693,0.0,0.0,0.0,0.0,0.0,0.0,0.0,0.0,0.0,0.0,0.0,-2.4253,-2.3934,-2.3701,-2.355,-2.3978,-2.4481,-2.4988,-2.5561,-2.6084,-2.6499,-2.6499,-2.6499,-2.6499,-2.6499,-2.6555,-2.6658,-2.6679,-2.7036,-2.7668,-2.8586,-2.9518,-3.042,-3.0376,-3.0493,-3.066,-0.1671,-0.207,-0.2731,-0.3727,-0.4763,-0.5642,-0.6193,-0.7366,-0.8139,-0.8135,-0.8362,-0.8562,-0.8658,-0.8584,-0.8556,-0.8637,-0.8568,-0.8607,-0.8825,-0.8884,-0.8931,-0.8911,-0.8945,-0.877,-0.84,-0.7989,-0.768,-0.7422,-0.6931,-0.6571,-0.6312,-0.6374,-0.672,-0.7281,-0.7402,-0.8939,-1.1429,-1.2057,-1.2925,-1.3903,-1.3983,-1.425,0.0,-1.4801,-1.5449,-1.6353,-1.6697,-1.7066,-1.7432,-1.7676,-1.7734,-1.7715,-1.7715,-1.7458,-1.7154,-1.7136,-1.6991,-1.6883,-1.689,-1.6909,-1.6918,-1.6954,-1.7532,-1.7916,-1.717,-1.7542,-1.7756,0.0,-1.5978,-1.5403,0.0,0.0,-1.295,-1.2487,-1.1441,-1.052,-1.0071,0.0,0.0,0.0,-1.1149,0.0,0.0,0.0,0.0,0.0,0.0,0.0,0.0,0.0,0.0,-2.4349,-2.4356,-2.3966,-2.3108,-2.3923,-2.4519,-2.48,-2.5347,-2.5933,-2.6499,-2.6499,-2.6499,-2.6499,-2.6555,-2.6624,-2.6714,-2.6897,-2.7225,-2.7735,-2.8724,-2.9894,-3.0986,-3.0874,-3.0849,-3.0849,-0.1805,-0.2233,-0.2843,-0.3738,-0.456,-0.5332,-0.5949,-0.7099,-0.7909,-0.7878,-0.8225,-0.8577,-0.8746,-0.8746,-0.8831,-0.9015,-0.8901,-0.8943,-0.9364,-0.8888,-0.8821,-0.9209,-0.884,-0.8612,-0.8612,-0.8325,-0.8107,-0.7956,-0.7473,-0.7143,-0.694,-0.6767,-0.6869,-0.7263,-0.7714,-0.8791,-1.0426,-1.2266,-1.3033,-1.2983,-1.2975,-1.3189,-1.3558,-1.3845,-1.4503,-1.5298,-1.5714,-1.6451,-1.7229,-1.727,-1.7595,-1.7919,-1.7919,-1.7769,-1.7574,-1.7726,-1.7513,-1.7194,-1.6949,-1.6881,-1.6846,-1.6891,-1.6709,-1.6709,-1.7243,-1.777,-1.8008,-1.7673,-1.7539,-1.7281,0.0,0.0,0.0,-1.3445,-1.2139,-1.1239,-1.1236,0.0,0.0,0.0,0.0,0.0,0.0,0.0,0.0,0.0,0.0,0.0,0.0,0.0,-2.4645,-2.4901,-2.4825,0.0,-2.3333,0.0,-2.465,-2.48,-2.5272,-2.5799,-2.6386,-2.6496,-2.6521,-2.6521,-2.6692,-2.6798,-2.6896,-2.7159,-2.7393,-2.7673,-2.8926,-3.0045,-3.0986,-3.0986,-3.0986,-3.0986,-0.1655,-0.1822,-0.2299,-0.3587,-0.3727,-0.4173,-0.5639,-0.6707,-0.745,-0.7785,-0.786,-0.8068,-0.8644,-0.8589,-0.8509,-0.867,-0.8759,-0.8804,-0.8754,-0.8759,-0.882,-0.8865,-0.8686,-0.8612,-0.8612,-0.8325,-0.8378,-0.87,-0.8234,-0.8062,-0.8173,-0.8161,-0.8081,-0.802,-0.8652,-0.9658,-1.0959,-1.2638,0.0,-1.2412,-1.305,-1.3192,-1.3132,-1.3992,-1.4434,-1.4608,-1.465,-1.5409,-1.6376,-1.6697,-1.7147,-1.7514,-1.7514,-1.7674,-1.7877,-1.76,-1.7501,-1.7364,-1.6994,-1.6696,-1.6491,-1.6446,-1.6373,-1.6373,-1.6564,-1.6867,-1.7136,-1.7061,-1.7299,-1.7503,-1.7542,0.0,0.0,0.0,0.0,0.0,0.0,0.0,0.0,0.0,0.0,0.0,0.0,0.0,0.0,0.0,0.0,0.0,0.0,0.0,-2.5577,0.0,-2.5046,0.0,0.0,0.0,-2.3873,-2.4788,-2.4888,-2.5234,-2.5762,-2.6409,-2.6658,-2.6692,-2.6875,-2.7302,-2.7825,-2.7462,-2.7928,-2.9004,-2.9683,-3.0398,-3.0986,-3.0986,-3.0986,-3.0986,-0.1407,-0.1632,-0.21,-0.3061,-0.3218,-0.374,-0.5403,-0.5948,-0.6503,-0.7475,-0.7843,-0.8188,-0.8591,-0.8541,-0.8593,-0.8886,-0.8921,-0.8888,-0.8852,-0.8917,-0.8881,-0.8698,-0.8694,-0.8658,-0.8612,-0.8483,-0.8546,-0.8855,-0.8754,-0.8805,-0.9021,-0.9039,-0.9136,-0.9281,-0.9484,-1.0041,-1.0915,0.0,0.0,-1.1157,-1.1634,-1.192,-1.2159,-1.3018,-1.3597,-1.3899,-1.3899,-1.423,-1.4741,-1.5144,-1.5842,-1.6501,-1.6501,-1.7049,-1.7642,-1.7498,-1.7607,-1.768,-1.7304,-1.7111,-1.6922,-1.6687,-1.649,-1.6345,-1.6345,-1.649,-1.6627,-1.6627,-1.6802,-1.7021,-1.7283,-1.7931,0.0,0.0,0.0,0.0,0.0,0.0,-1.353,0.0,0.0,0.0,0.0,0.0,0.0,0.0,0.0,0.0,0.0,0.0,-2.5459,0.0,0.0,0.0,0.0,0.0,0.0,-2.4406,-2.4682,-2.5129,-2.5769,-2.6426,-2.676,-2.6888,-2.7353,-2.7593,-2.7682,-2.7832,-2.8604,-2.9745,-2.9983,-3.049,-3.0986,-3.0986,-3.0986,-3.0986,-0.1171,-0.1448,-0.1901,-0.2458,-0.2527,-0.308,-0.4754,-0.4741,-0.5222,-0.7138,-0.7801,-0.8219,-0.8527,-0.8545,-0.8683,-0.9026,-0.8987,-0.8956,-0.8977,-0.9059,-0.8981,-0.8702,-0.8783,-0.8796,-0.8625,-0.8621,-0.8707,-0.8905,-0.9122,-0.9209,-0.9204,-0.9499,-0.9844,-1.0199,-1.0009,0.0,0.0,0.0,-0.9615,-0.995,-1.0228,-1.0589,-1.1094,-1.1813,-1.2448,-1.2881,-1.3009,-1.296,-1.2918,-1.3197,-1.4196,-1.533,-1.533,-1.6124,-1.7057,-1.7057,-1.7343,-1.769,-1.7386,-1.7291,-1.7164,-1.6954,-1.6635,-1.6374,-1.6317,-1.6345,-1.639,-1.6381,-1.6487,-1.6724,-1.7255,-1.8422,0.0,0.0,0.0,0.0,0.0,0.0,0.0,0.0,0.0,0.0,0.0,0.0,0.0,0.0,0.0,0.0,-2.4538,0.0,0.0,0.0,0.0,-2.5306,-2.4455,0.0,-2.4004,0.0,-2.4588,-2.5196,-2.5803,-2.651,-2.6897,-2.7105,-2.7842,-2.801,-2.7785,-2.8482,-2.9301,-3.01,-3.01,-3.049,-3.0986,-3.0986,-3.0908,-3.0803,-0.1071,-0.1035,-0.1313,-0.2041,-0.1331,-0.1298,-0.3119,-0.279,-0.3547,-0.6949,-0.745,-0.7706,-0.8343,-0.8411,-0.8459,-0.8624,-0.8777,-0.8784,-0.8675,-0.8856,-0.8984,-0.8953,-0.9055,-0.8986,-0.88,-0.8796,-0.8934,0.0,0.0,-0.8841,-0.8157,-0.9249,-0.9833,-0.9947,0.0,0.0,0.0,-0.9808,-0.9721,-0.9422,-0.987,-1.0048,-1.0183,-1.089,-1.1154,-1.1284,-1.1714,-1.1585,-1.1198,-1.0977,-1.2382,-1.4168,-1.4168,-1.4956,-1.5869,-1.5869,-1.6337,-1.6804,-1.6772,-1.6573,-1.6396,-1.675,-1.6555,-1.633,-1.6394,-1.639,-1.6381,-1.6336,-1.675,-1.7481,-1.8607,-1.8357,-1.8523,0.0,0.0,0.0,0.0,0.0,-1.6526,-1.6248,0.0,0.0,0.0,0.0,0.0,0.0,0.0,0.0,0.0,0.0,0.0,-2.6859,-2.6328,-2.6005,-2.5906,-2.4648,-2.4054,-2.4178,-2.4798,-2.5173,-2.5409,-2.6677,-2.7235,-2.7307,-2.8069,-2.866,-2.9157,-2.9696,-2.9996,-3.01,-3.01,-3.049,-3.0986,-3.0986,-3.066,-3.0179,-0.0857,-0.0821,-0.0875,-0.1016,-0.0661,0.0,0.0,-0.1949,-0.2554,-0.4812,-0.5414,-0.6028,-0.7077,-0.7185,-0.7561,-0.8396,-0.8545,-0.8561,-0.8601,-0.8777,-0.8788,-0.8587,-0.8712,-0.8698,-0.8521,-0.8425,-0.8477,0.0,0.0,-0.9287,-0.9094,-0.989,-1.0213,0.0,0.0,-0.9539,-0.9455,-0.9139,-0.8935,-0.8903,-0.9255,-0.942,-0.9476,-1.0159,-1.0302,-1.0256,-1.0552,-1.0554,-1.0381,-1.0294,-1.1278,-1.2687,-1.3105,-1.4203,-1.5428,-1.5816,-1.6319,-1.6689,-1.6689,-1.6594,-1.6605,-1.7048,-1.6896,-1.666,-1.6979,-1.6888,-1.6627,-1.6396,-1.6657,-1.7026,-1.7381,-1.8459,-1.9153,0.0,0.0,0.0,0.0,0.0,0.0,-1.81,0.0,-1.8027,0.0,0.0,0.0,0.0,0.0,0.0,0.0,0.0,0.0,-2.7903,0.0,-2.4788,-2.5629,-2.4153,-2.344,-2.3547,-2.4678,-2.5307,-2.5517,-2.6751,-2.7746,-2.8512,-2.8438,-2.914,-3.0294,-3.014,-3.0296,-3.0647,-3.0647,-3.079,-3.0947,-3.0594,-3.0296,-2.9996,-0.0607,0.0,-0.0523,0.0,-0.0241,-0.0492,-0.1037,-0.1137,-0.149,-0.2513,-0.2968,-0.387,-0.5629,-0.5882,-0.6431,-0.7683,-0.7832,-0.7991,-0.8376,-0.8568,-0.8574,-0.835,-0.8549,0.0,-0.8368,-0.8307,-0.8277,-0.829,-0.8847,0.0,-0.8942,-0.9389,-0.973,0.0,-0.9445,-0.9293,-0.9341,-0.8727,-0.8491,-0.86,-0.8811,-0.891,-0.9009,-0.9444,-0.9513,-0.9454,-0.9705,-0.9731,-0.9689,-0.9821,-1.0426,-1.1291,-1.2135,-1.3311,-1.4545,-1.5367,-1.5955,-1.6327,-1.6327,-1.6327,-1.6451,-1.7066,-1.6992,-1.6883,-1.7375,-1.7269,-1.6944,-1.6484,-1.6499,-1.6581,-1.6426,-1.7968,-1.8841,-1.7649,0.0,0.0,0.0,-1.8599,0.0,-1.9256,-1.9412,-1.9399,-1.9265,0.0,0.0,0.0,0.0,0.0,0.0,0.0,0.0,0.0,0.0,0.0,0.0,-2.4221,-2.3638,-2.3597,-2.4804,-2.5465,-2.5706,-2.6849,-2.8074,-2.9297,-2.8865,-2.9536,-3.096,-3.0555,-3.062,-3.0986,-3.0986,-3.0986,-3.0921,-3.0309,-2.9996,-2.9732,-0.0429,-0.0381,-0.0336,-0.0049,0.0,0.0,0.0,0.0,-0.0101,-0.0404,-0.0455,-0.1462,-0.4119,-0.4672,-0.5277,-0.6334,-0.6437,-0.6886,-0.7935,-0.8233,-0.8379,0.0,0.0,-0.8747,-0.859,-0.8586,-0.8504,-0.829,0.0,0.0,-0.6827,-0.7096,-0.791,-0.9092,-0.9092,-0.8991,-0.882,-0.8816,-0.8718,-0.8612,-0.8608,-0.8666,-0.8796,-0.8673,-0.8714,-0.8837,-0.9195,-0.9114,-0.8906,-0.9354,-0.9661,-1.003,-1.1298,-1.2174,-1.293,-1.409,-1.4908,-1.5431,-1.5431,-1.5431,-1.5631,-1.6492,-1.6689,-1.6838,-1.7395,-1.7505,-1.7291,-1.6544,-1.639,-1.639,-1.639,-1.659,-1.7035,-1.7926,0.0,0.0,0.0,-1.8715,0.0,-1.9256,-1.9668,-1.9881,-1.9901,0.0,0.0,0.0,0.0,0.0,0.0,0.0,0.0,-2.4657,-2.5569,0.0,-2.5205,-2.5244,-2.5062,-2.4693,-2.5301,-2.5667,-2.5832,-2.6981,-2.8177,-2.931,-2.931,-2.9928,-3.0986,-3.0973,-3.0973,-3.0986,-3.0986,-3.0986,-3.0921,-3.0309,-2.9771,-2.9209,-0.0149,-0.0149,-0.0099,0.0,0.0,0.0,0.0,0.0,-0.0051,-0.0101,-0.0303,-0.0707,-0.1562,-0.2566,-0.367,0.0,-0.5024,-0.5275,0.0,-0.5874,-0.6276,-0.6986,-0.7132,-0.7462,-0.8167,-0.8108,-0.8028,-0.7979,0.0,0.0,0.0,-0.8321,-0.8552,-0.8847,-0.887,-0.8877,-0.8812,-0.8694,-0.8661,-0.8612,-0.8612,-0.8645,-0.8653,-0.8718,-0.8775,-0.8828,-0.9084,-0.91,-0.9011,-0.9192,-0.9279,-0.9511,-1.0548,-1.1245,-1.1816,-1.2552,-1.3148,-1.3662,-1.4132,-1.4475,-1.5033,-1.636,-1.6689,-1.6911,-1.7686,-1.7655,-1.7437,-1.7205,-1.691,-1.6653,-1.6388,-1.6499,-1.6577,-1.6363,-1.7031,0.0,-1.7747,-1.8282,-1.8861,-1.9256,-1.9421,-1.9608,0.0,-2.0192,0.0,0.0,0.0,0.0,0.0,0.0,0.0,0.0,-2.4066,0.0,-2.5053,-2.4193,-2.392,-2.429,-2.5268,-2.6179,-2.6968,-2.7333,-2.8177,-2.931,-2.931,-2.9964,-3.0986,-3.0986,-3.0823,-3.0634,-3.1185,-3.1086,-3.0518,-3.0079,-2.9654,-2.9144,0.0,0.0,0.0,0.0,0.0,0.0,0.0,0.0,0.0,0.0,-0.0154,-0.0258,-0.0258,-0.0978,0.0,-0.3522,-0.367,-0.3869,-0.447,-0.452,-0.4822,-0.5477,-0.5979,-0.6584,-0.7235,-0.7648,0.0,-0.7896,-0.8091,-0.8227,-0.8354,-0.8589,-0.8674,-0.8563,-0.8602,-0.8566,-0.8544,-0.8576,-0.8537,-0.848,-0.8633,-0.8706,-0.8775,-0.8885,-0.8966,-0.9027,-0.908,-0.9137,-0.9194,-0.9194,-0.9194,-0.9302,-0.9797,-1.0129,-1.0553,-1.1888,-1.2462,-1.2851,-1.3415,-1.3802,-1.4314,-1.5394,-1.5767,-1.6147,-1.7245,-1.7354,-1.7154,-1.7013,-1.6774,-1.65,-1.6126,-1.609,-1.6071,-1.6043,-1.6446,-1.6912,-1.731,-1.7902,-1.8596,-1.9427,0.0,0.0,0.0,-2.0448,0.0,0.0,0.0,0.0,0.0,0.0,0.0,-2.4452,-2.3373,0.0,-2.4472,-2.4074,-2.4116,-2.4661,-2.5672,-2.6634,-2.749,-2.749,-2.8177,-2.931,-2.931,-2.9964,-3.0986,-3.0986,-3.0936,-3.0848,-3.0947,-3.0797,-3.0353,-2.9532,-2.92,-2.895,0.0051,0.0,0.0,0.0,0.0,0.0,0.0,0.0,0.0,0.0,0.0,0.0,0.0,0.0,-0.0578,-0.2079,0.0,0.0,0.0,-0.3768,-0.3815,-0.3865,-0.5072,-0.5827,-0.5979,-0.7235,-0.7889,-0.7988,-0.815,-0.8103,-0.7907,-0.8175,-0.8308,-0.8308,-0.8286,-0.8194,-0.8106,-0.8375,-0.8368,-0.8232,-0.8632,-0.8904,-0.9116,-0.9116,-0.9222,-0.9352,-0.919,-0.9238,-0.9372,-0.9372,-0.9412,-0.9371,-0.9149,-0.897,-0.927,-1.1716,-1.2462,-1.2595,-1.3088,-1.3264,-1.3434,-1.388,-1.4216,-1.4803,-1.6239,-1.6576,-1.6481,-1.6126,-1.6063,-1.596,-1.5606,-1.5427,-1.5597,-1.651,-1.6291,-1.6328,-1.7162,-1.7444,-1.8083,0.0,0.0,0.0,0.0,-2.0949,-2.0954,0.0,0.0,0.0,0.0,0.0,-2.406,-2.1602,-2.322,-2.401,-2.3677,-2.4604,-2.5268,-2.5617,-2.6335,-2.6974,-2.749,-2.749,-2.8177,-2.931,-2.931,-2.9964,-3.0986,-3.0949,-3.1123,-3.1371,-3.0381,-3.0177,-3.029,-2.8818,-2.8471,-2.8579,0.0,0.0,0.0,0.0,0.0,0.0,0.0,0.0,0.0,0.0,0.0,0.0,0.0,0.0,-0.0159,-0.0527,-0.0779,-0.1082,-0.1545,-0.1576,-0.1914,-0.2766,-0.3069,-0.4021,-0.5675,-0.6229,-0.6983,-0.7988,-0.8054,-0.8019,-0.7979,-0.8159,-0.8247,-0.8236,-0.818,-0.8139,-0.8106,-0.8151,-0.8174,-0.8148,-0.8352,-0.8663,-0.9009,-0.9009,-0.9119,-0.9265,-0.9417,-0.9384,-0.9272,-0.9272,-0.9324,-0.9324,-0.8906,-0.8778,-0.8919,-0.9437,-1.0028,-1.0717,-1.137,-1.21,-1.2875,-1.3753,-1.4336,-1.4747,-1.5289,-1.5413,-1.5433,-1.5539,-1.5565,-1.5461,-1.5045,-1.5204,-1.5102,-1.429,-1.4836,-1.5253,-1.4956,-1.6204,-1.7393,0.0,-1.898,-1.9675,-1.9845,-2.0085,-2.0806,0.0,0.0,0.0,-2.2802,-2.3761,-2.3435,-2.1543,-2.1595,-2.2495,-2.4187,-2.3404,-2.3936,-2.5762,-2.6399,-2.6974,-2.749,-2.749,-2.8177,-2.931,-2.931,-2.9964,-3.0949,-3.0432,-3.0114,-2.9909,-2.9832,-2.9445,-2.8944,-2.8461,-2.8083,-2.7751,0.0415,0.0259,0.0156,0.0,0.0,0.0,0.0,0.0,0.0,0.0,0.0,0.0,0.0,0.0,0.0,0.0,-0.0107,-0.0262,-0.0416,-0.0412,-0.0713,-0.1261,-0.1913,-0.3017,-0.4672,-0.5425,-0.6481,-0.7793,-0.7942,-0.7988,-0.7988,-0.8058,-0.808,-0.8004,-0.7979,-0.7912,-0.7894,-0.7983,-0.8029,-0.804,-0.8342,-0.8604,-0.8839,-0.8863,-0.8951,-0.9031,-0.9179,-0.913,-0.9019,-0.8947,-0.8902,-0.8867,-0.8648,-0.8568,-0.8548,-0.8593,-0.9087,-0.9777,-1.0381,-1.0895,-1.1499,-1.2388,-1.2808,-1.3226,-1.4077,-1.4287,-1.4329,-1.4461,-1.4503,-1.4413,-1.42,-1.4423,-1.4547,-1.4169,-1.4483,-1.4729,-1.4737,-1.5489,-1.6241,-1.6828,-1.7973,-1.8767,-1.8975,-1.9539,-2.0437,-2.167,0.0,0.0,-2.2137,-2.2414,-2.2198,-2.1369,-2.1426,-2.2306,-2.4025,-2.4126,-2.4808,-2.6076,-2.6485,-2.6991,-2.749,-2.7255,-2.7752,-2.8833,-2.8833,-2.9318,-3.0114,-2.9755,-2.9561,-2.9523,-2.925,-2.8988,-2.867,-2.7927,-2.7558,-2.7348,0.0587,0.048,0.0374,0.0107,0.0054,0.0054,0.0,0.0,0.0,0.0,0.0,0.0,0.0,0.0,0.0,0.0,0.0,0.0,0.0,0.0,0.0,0.0,-0.1109,-0.2214,-0.327,-0.4622,-0.5877,-0.7141,-0.7335,-0.7484,-0.7534,-0.7664,-0.7687,-0.7566,-0.7691,-0.7712,-0.76,-0.7806,-0.7907,-0.7921,-0.832,-0.8531,-0.8594,-0.8678,-0.8726,-0.8726,-0.8775,-0.8775,-0.87,-0.8597,-0.8431,-0.8311,-0.8379,-0.83,-0.8204,-0.8432,-0.878,-0.9257,-0.9738,-0.9907,-1.0077,-1.0684,-1.0857,-1.1241,-1.2681,-1.3027,-1.3069,-1.3154,-1.3203,-1.3197,-1.3239,-1.3461,-1.3995,-1.5167,-1.471,-1.455,-1.5552,0.0,-1.5204,-1.5832,-1.7047,-1.7868,-1.806,-1.9045,-1.9814,-2.002,-2.0411,-2.0605,-2.0605,-2.078,-2.0984,-2.1205,-2.176,-2.2537,-2.3537,-2.5398,-2.6401,-2.6453,-2.6716,-2.7053,-2.7503,-2.6952,-2.7288,-2.8303,-2.8194,-2.8512,-2.9081,-2.9003,-2.916,-2.9406,-2.8605,-2.8478,-2.8536,-2.7234,-2.6863,-2.6919,0.1172,0.0959,0.0697,0.0381,0.0327,0.0274,0.0056,0.0,0.0,0.0,0.0,0.0,0.0,0.0,0.0,0.0,0.0,0.0,0.0,0.0,0.0,0.0,-0.0202,-0.0807,-0.1865,-0.3219,-0.4221,-0.4872,-0.4922,-0.5072,-0.5325,-0.6129,-0.6466,-0.6492,-0.7254,-0.7621,-0.7607,-0.7774,-0.7825,-0.7839,-0.8041,-0.8252,-0.8449,-0.8471,-0.8482,-0.8482,-0.8726,-0.8676,-0.8456,-0.831,-0.8292,-0.8264,-0.7914,-0.7893,-0.794,-0.7988,-0.816,-0.8508,-0.9213,-0.9694,-0.9994,-1.0125,-1.0168,-1.0381,-1.1192,-1.137,-1.1542,-1.2118,-1.2209,-1.2289,-1.2491,-1.2753,-1.3673,-1.6042,-1.4954,-1.4474,-1.6387,0.0,-1.5259,-1.5102,-1.616,-1.6903,-1.6935,-1.8069,-1.8807,-1.8847,-1.9923,-2.0605,-2.0605,-2.078,-2.0984,-2.1205,-2.1101,-2.1718,-2.3149,-2.5132,-2.632,-2.6674,-2.715,-2.7423,-2.7503,-2.6952,-2.7288,-2.8266,-2.7815,-2.8199,-2.9042,-2.8554,-2.8367,-2.8367,-2.7655,-2.7198,-2.6853,-2.6321,-2.5771,-2.5319,0.1314,0.1206,0.1044,0.072,0.0499,0.0334,0.0224,0.0112,0.0,0.0,0.0,0.0,0.0,0.0,0.0,0.0,0.0,0.0,0.0,0.0,0.0,0.0,0.0,-0.0505,-0.1563,-0.2918,-0.372,-0.3969,-0.4119,-0.4268,-0.4368,-0.4829,-0.5403,-0.6098,-0.654,-0.7149,-0.7841,-0.7857,-0.7884,-0.7891,-0.7961,-0.8088,-0.8187,-0.8187,-0.8187,-0.8187,-0.8333,-0.8231,-0.8039,-0.7941,-0.7832,-0.7767,-0.7656,-0.7649,-0.7724,-0.7856,-0.8028,-0.8288,-0.878,-0.9087,-0.9305,-0.9563,-0.9607,-0.982,-1.0593,-1.0766,-1.0944,-1.1521,-1.1742,-1.1866,-1.1989,-1.2412,-1.3127,-1.4543,-1.4089,-1.3959,-1.5198,-1.4886,-1.4476,-1.4462,-1.5381,-1.6041,-1.6157,-1.7626,-1.8678,-1.8798,-1.9923,-2.0605,-2.0605,-2.078,-2.0984,-2.1205,-2.1795,-2.2342,-2.2833,-2.4728,-2.577,-2.5945,-2.6071,-2.6333,-2.6633,-2.6035,-2.6344,-2.7335,-2.7062,-2.7373,-2.8047,-2.7777,-2.7736,-2.7782,-2.7203,-2.6908,-2.6713,-2.5934,-2.5417,-2.5089,0.1458,0.1402,0.1346,0.1065,0.0785,0.0561,0.0505,0.028,0.0112,0.0112,0.0056,0.0,0.0,0.0,0.0,0.0,0.0,0.0,0.0,0.0,0.0,0.0,0.0,-0.0404,-0.121,-0.2215,-0.2818,-0.2868,-0.3066,-0.3215,-0.3267,-0.3516,-0.4169,-0.5175,-0.5425,-0.6126,-0.708,-0.7385,-0.7385,-0.7232,-0.7786,-0.7839,-0.7637,-0.7889,-0.7988,-0.7988,-0.7988,-0.7914,-0.7841,-0.7699,-0.757,-0.7494,-0.7528,-0.7524,-0.7568,-0.7792,-0.7968,-0.818,-0.846,-0.8553,-0.8608,-0.9043,-0.913,-0.9345,-1.012,-1.0376,-1.0598,-1.1041,-1.1435,-1.1722,-1.1753,-1.225,-1.2928,-1.3811,0.0,-1.3763,-1.4736,-1.4262,-1.39,-1.4095,-1.4699,-1.5144,-1.5296,-1.7131,-1.8399,-1.859,-1.9835,-2.0605,-2.0605,-2.0741,-2.0935,-2.1205,-2.2295,-2.2834,-2.275,-2.4199,-2.5075,-2.5299,-2.524,-2.5429,-2.5896,-2.53,-2.5551,-2.651,-2.6358,-2.6659,-2.719,-2.719,-2.7301,-2.7406,-2.7035,-2.6853,-2.6644,-2.571,-2.5254,-2.495,0.1795,0.1739,0.1683,0.1346,0.1234,0.1177,0.0897,0.0561,0.0393,0.0393,0.0168,0.0,0.0,0.0,0.0,0.0,0.0,0.0,0.0,0.0,0.0,0.0,0.0,-0.0051,-0.0101,-0.0202,-0.0404,-0.0656,-0.0656,-0.0808,-0.106,-0.2065,-0.2566,-0.2717,-0.3717,-0.4216,-0.4366,-0.5625,-0.5575,-0.487,-0.7083,-0.7388,-0.6637,-0.764,-0.7988,-0.7988,-0.7988,-0.7982,-0.7948,-0.7845,-0.7787,-0.7753,-0.7611,-0.7613,-0.7613,-0.7613,-0.775,-0.7995,-0.8303,-0.8325,-0.8292,-0.8564,-0.8656,-0.8784,-0.9301,-0.9733,-1.0168,-1.0549,-1.1203,-1.1739,-1.1954,-1.2226,-1.332,-1.607,0.0,0.0,-1.6917,-1.5483,-1.4173,-1.4122,-1.4166,-1.4208,-1.4208,-1.6165,-1.7415,-1.7415,-1.9392,-2.0605,-2.0605,-2.0605,-2.0809,-2.1167,-2.1655,-2.2322,-2.3139,-2.3649,-2.4397,-2.5299,-2.5662,-2.5861,-2.5896,-2.53,-2.5551,-2.646,-2.5962,-2.6329,-2.719,-2.719,-2.7231,-2.7219,-2.7185,-2.66,-2.58,-2.5681,-2.5099,-2.4282,0.1795,0.1795,0.1739,0.1627,0.1458,0.129,0.1177,0.0897,0.0729,0.0729,0.0617,0.0505,0.028,0.0224,0.0168,0.0,0.0,0.0,0.0,0.0,0.0,0.0,0.0,0.0,0.0,0.0,-0.0051,-0.0152,-0.0152,-0.0202,-0.0303,-0.0706,-0.136,-0.2164,-0.2564,-0.3215,-0.4016,-0.4568,-0.4518,-0.4218,-0.517,-0.527,-0.4972,-0.5575,-0.6176,-0.6781,-0.6936,-0.7381,-0.7889,-0.7831,-0.7753,-0.7672,-0.7617,-0.76,-0.7617,-0.7706,-0.7712,-0.7839,-0.8396,-0.8513,-0.8562,-0.8847,-0.8897,-0.9092,-0.9692,-1.0114,-1.0571,-1.1144,-1.1881,-1.2338,-1.2249,-1.2715,-1.3408,-1.4341,0.0,-1.3913,-1.5026,-1.4469,-1.3946,-1.4095,-1.4088,-1.4088,-1.4088,-1.5421,-1.6314,-1.6314,-1.8341,-1.9599,-1.9599,-2.0479,-2.1051,-2.1205,-2.1578,-2.1987,-2.2333,-2.2968,-2.3375,-2.3511,-2.4143,-2.4479,-2.4479,-2.4238,-2.4655,-2.5512,-2.5631,-2.6106,-2.6783,-2.7093,-2.726,-2.7336,-2.6915,-2.6599,-2.6301,-2.5501,-2.4969,-2.4602,0.1795,0.1795,0.1795,0.1795,0.1627,0.1458,0.1458,0.1234,0.1009,0.1009,0.0953,0.0785,0.0561,0.0561,0.0505,0.028,0.0168,0.0111,0.011,0.0054,0.0,0.0,0.0,0.0,0.0,0.0,0.0,0.0,0.0101,0.0101,0.0152,0.0202,-0.0252,-0.1108,-0.1209,-0.1762,-0.2663,-0.3165,-0.3165,-0.2916,-0.3715,-0.3817,-0.3566,-0.4067,-0.472,-0.5425,-0.5677,-0.6176,-0.6746,-0.6844,-0.6791,-0.672,-0.672,-0.6963,-0.7225,-0.7317,-0.7521,-0.7856,-0.8489,-0.8675,-0.8796,-0.9031,-0.9096,-0.925,-0.9762,-1.0241,-1.0762,-1.1252,-1.204,-1.2601,-1.2426,-1.2894,-1.325,-1.3253,-1.3329,-1.3505,-1.3855,-1.3791,-1.3786,-1.4088,-1.4088,-1.4088,-1.4088,-1.5054,-1.5696,-1.5696,-1.7407,-1.8638,-1.8997,-2.004,-2.0799,-2.1167,-2.154,-2.1731,-2.1807,-2.2478,-2.2665,-2.2402,-2.3075,-2.3482,-2.3593,-2.3482,-2.3973,-2.4909,-2.5321,-2.5885,-2.6547,-2.7024,-2.726,-2.7377,-2.6921,-2.6731,-2.6567,-2.5524,-2.5061,-2.4843,0.1795,0.1795,0.1795,0.1795,0.1795,0.1795,0.1795,0.1514,0.129,0.129,0.1065,0.0897,0.0897,0.0897,0.0897,0.0897,0.0617,0.039,0.0384,0.0159,0.0,0.0,0.0,0.0,0.0,0.0,0.0,0.0,0.0253,0.0404,0.0404,0.0657,0.0808,0.0808,0.0505,0.0404,0.0303,-0.1309,-0.136,-0.0606,-0.3016,-0.3316,-0.2516,-0.3566,-0.3966,-0.4016,-0.4268,-0.437,-0.442,-0.4722,-0.4774,-0.4774,-0.4824,-0.5529,-0.6387,-0.6387,-0.7138,-0.8088,-0.8627,-0.8775,-0.8845,-0.9044,-0.91,-0.91,-0.91,-0.9888,-1.0626,-1.0621,-1.1589,-1.2386,-1.2419,-1.2625,-1.2954,-1.3425,-1.3302,-1.3347,-1.4086,-1.3919,-1.3786,-1.4053,-1.4088,-1.4088,-1.4088,-1.5054,-1.5703,-1.5703,-1.6683,-1.7779,-1.8917,-1.9186,-1.9864,-2.1128,-2.1397,-2.1578,-2.1807,-2.2187,-2.2402,-2.2402,-2.2815,-2.3187,-2.3567,-2.3187,-2.3702,-2.4897,-2.5052,-2.5639,-2.6496,-2.6972,-2.719,-2.719,-2.719,-2.6921,-2.6444,-2.5899,-2.5371,-2.4855,0.1963,0.1795,0.1795,0.1795,0.1795,0.1795,0.1795,0.1739,0.1627,0.1627,0.157,0.1458,0.1234,0.1177,0.1121,0.0897,0.0832,0.0708,0.0687,0.0619,0.0559,0.0556,0.0202,0.0,0.0,0.0,0.0101,0.0303,0.0354,0.0505,0.0707,0.0758,0.0808,0.0808,0.0707,0.0657,0.0657,0.0151,0.0151,0.0404,-0.0353,-0.0554,-0.0504,-0.1008,-0.1762,-0.2614,-0.2917,-0.3468,-0.4117,-0.4218,-0.437,-0.4572,-0.4724,-0.5027,-0.5277,-0.5277,-0.6032,-0.6786,-0.6379,-0.6828,-0.7707,-0.91,-0.947,-0.9534,-0.9741,-1.0432,-1.1067,-1.1251,-1.2157,-1.2827,-1.2708,-1.3039,-1.3298,-1.3217,-1.3488,-1.3747,-1.3969,-1.3868,-1.3935,-1.4405,-1.4071,-1.3992,-1.4326,-1.4493,-1.4573,-1.4573,-1.5587,-1.6642,-1.7747,-1.8012,-1.8572,-1.955,-1.9972,-2.0489,-2.1175,-2.1987,-2.2252,-2.1997,-2.2402,-2.2628,-2.274,-2.2628,-2.2928,-2.3627,-2.4305,-2.4785,-2.5103,-2.5957,-2.6271,-2.6271,-2.6271,-2.6378,-2.6418,-2.5532,-2.532,-2.5348,0.3358,0.2856,0.2521,0.2521,0.213,0.1795,0.1795,0.1795,0.1795,0.1795,0.1795,0.1739,0.1514,0.1514,0.1454,0.1278,0.1141,0.1009,0.0832,0.0816,0.0808,0.0808,0.0505,0.0303,0.0303,0.0303,0.0404,0.0556,0.0657,0.0808,0.096,0.1061,0.1111,0.1111,0.101,0.096,0.096,0.0859,0.0808,0.0808,0.0808,0.0707,0.0505,0.0253,-0.0353,-0.1108,-0.1462,-0.2014,-0.2615,-0.2716,-0.2818,-0.3019,-0.3271,-0.3673,-0.4022,-0.4124,-0.4926,-0.5679,-0.5279,-0.5679,-0.6478,-0.7723,-0.8421,-0.8996,-0.9733,-1.0427,-1.0916,-1.1086,-1.1788,-1.2316,-1.2175,-1.2565,-1.2952,-1.3079,-1.3444,-1.3851,-1.416,-1.4026,-1.4091,-1.4398,-1.4115,-1.4017,-1.4374,-1.4318,-1.4296,-1.4269,-1.4873,-1.5637,-1.6609,-1.6797,-1.7317,-1.8372,-1.8643,-1.9119,-1.9728,-2.0333,-2.0981,-2.1693,-2.1987,-2.2252,-2.2402,-2.2252,-2.2478,-2.3045,-2.3801,-2.4252,-2.4486,-2.5491,-2.5895,-2.5895,-2.5895,-2.6063,-2.6149,-2.5351,-2.511,-2.5076,0.5417,0.4528,0.3748,0.3636,0.2688,0.1907,0.1795,0.1795,0.1795,0.1795,0.1795,0.1795,0.1795,0.1795,0.1782,0.1807,0.1537,0.1194,0.0881,0.0867,0.0859,0.0859,0.096,0.101,0.101,0.0858,0.0808,0.0859,0.1061,0.1212,0.1263,0.1465,0.1617,0.1566,0.1364,0.1212,0.1212,0.096,0.0859,0.0859,0.0859,0.0859,0.0808,0.0556,0.0455,0.0354,-0.0101,-0.0303,-0.0354,-0.0606,-0.0758,-0.0808,-0.1061,-0.1816,-0.2669,-0.2922,-0.3773,-0.4674,-0.4776,-0.4929,-0.5077,-0.5372,-0.6318,-0.7614,-0.8973,-0.9867,-1.0359,-1.0314,-1.0801,-1.1194,-1.1194,-1.1585,-1.217,-1.2834,-1.3233,-1.3655,-1.4322,-1.4276,-1.4159,-1.4184,-1.4191,-1.4211,-1.4236,-1.443,-1.4576,-1.4539,-1.4512,-1.4847,-1.5555,-1.5582,-1.6139,-1.7358,-1.7439,-1.7552,-1.7825,-1.7865,-1.9031,-2.131,-2.1492,-2.1835,-2.2214,-2.1873,-2.2101,-2.2821,-2.342,-2.3905,-2.4328,-2.5326,-2.577,-2.577,-2.577,-2.5812,-2.5757,-2.5245,-2.4756,-2.4334,0.5584,0.5194,0.4693,0.3747,0.3357,0.2912,0.1963,0.1795,0.1795,0.1795,0.1795,0.1795,0.1795,0.1795,0.1782,0.1807,0.1696,0.1549,0.1425,0.1418,0.1415,0.1415,0.2219,0.267,0.267,0.1463,0.0909,0.1111,0.1162,0.1314,0.1516,0.1566,0.1617,0.1617,0.1516,0.1516,0.1516,0.1465,0.1415,0.1415,0.1415,0.1313,0.1111,0.1061,0.0909,0.0707,0.0606,0.0556,0.0455,0.0,-0.0303,-0.0556,-0.0808,-0.106,-0.1262,-0.1312,-0.2217,-0.3071,-0.2268,-0.2822,-0.3674,-0.3971,-0.427,-0.492,-0.6672,-0.8814,-1.0212,-0.9612,-1.0404,-1.1194,-1.1194,-1.1296,-1.1487,-1.1873,-1.2323,-1.278,-1.3117,-1.3467,-1.38,-1.4247,-1.4096,-1.4105,-1.4457,-1.4371,-1.4443,-1.4877,-1.4685,-1.4635,-1.4731,-1.4761,-1.5106,-1.5842,-1.6026,-1.647,-1.7196,-1.752,-1.8364,-1.9777,-1.9963,-2.0411,-2.0982,-2.1059,-2.1175,-2.1418,-2.2211,-2.2808,-2.3297,-2.4209,-2.4668,-2.4796,-2.4796,-2.5041,-2.5274,-2.4751,-2.4473,-2.429,0.7639,0.6919,0.6253,0.5641,0.4916,0.4026,0.2856,0.2632,0.2521,0.2075,0.1964,0.1964,0.1964,0.2005,0.192,0.1765,0.1667,0.1634,0.1618,0.1617,0.1818,0.2321,0.2923,0.3423,0.3974,0.312,0.277,0.2922,0.2922,0.272,0.2371,0.2371,0.207,0.1617,0.1617,0.1617,0.1617,0.1617,0.1617,0.1617,0.1617,0.1516,0.1364,0.1263,0.1111,0.096,0.0859,0.0808,0.0758,0.0455,0.0202,-0.0051,-0.0354,-0.0505,-0.0657,-0.0758,-0.1312,-0.1765,-0.1313,-0.1716,-0.232,-0.2571,-0.312,-0.4021,-0.5672,-0.7117,-0.8064,-0.7915,-0.8711,-0.9554,-0.9813,-1.0408,-1.09,-1.1145,-1.1883,-1.2467,-1.2764,-1.3324,-1.3767,-1.41,-1.411,-1.4229,-1.4606,-1.454,-1.4541,-1.4774,-1.4669,-1.4585,-1.4566,-1.4546,-1.467,-1.4965,-1.5071,-1.5288,-1.5628,-1.5936,-1.6552,-1.7447,-1.8355,-1.8951,-1.9335,-1.9404,-1.9483,-1.952,-2.0365,-2.1102,-2.1843,-2.2744,-2.3507,-2.4024,-2.4153,-2.4315,-2.4457,-2.4012,-2.3616,-2.3242,0.9816,0.8813,0.7925,0.7703,0.6642,0.5417,0.4193,0.3971,0.3694,0.2914,0.2635,0.2523,0.2578,0.2369,0.2097,0.1771,0.1686,0.1617,0.1617,0.1617,0.207,0.3173,0.3374,0.3974,0.5027,0.5275,0.5175,0.4824,0.4824,0.4325,0.3473,0.3274,0.2723,0.1869,0.1667,0.162,0.1624,0.1624,0.1624,0.1624,0.1624,0.1622,0.1566,0.1364,0.1263,0.1263,0.101,0.0909,0.0859,0.0859,0.0707,0.0455,0.0202,-0.0051,-0.0303,-0.0505,-0.0657,-0.0758,-0.101,-0.1111,-0.1212,-0.1465,-0.2369,-0.347,-0.4674,-0.5272,-0.5672,-0.5974,-0.6769,-0.7518,-0.7978,-0.9023,-0.9912,-1.0158,-1.1037,-1.1775,-1.2019,-1.2754,-1.3244,-1.3244,-1.3667,-1.4148,-1.4592,-1.464,-1.4642,-1.4706,-1.464,-1.4606,-1.4592,-1.4618,-1.4622,-1.4515,-1.4552,-1.4476,-1.4242,-1.4476,-1.4852,-1.5352,-1.6704,-1.744,-1.7705,-1.7745,-1.7745,-1.7787,-1.8583,-1.9425,-2.0292,-2.1441,-2.2419,-2.3266,-2.3624,-2.3657,-2.3424,-2.286,-2.2241,-2.169,0.9816,0.9647,0.9147,0.814,0.7808,0.7141,0.5699,0.5477,0.5477,0.531,0.4419,0.3861,0.4139,0.2994,0.2174,0.2078,0.1786,0.1617,0.1617,0.1617,0.207,0.3173,0.4074,0.5077,0.6184,0.7086,0.6681,0.4824,0.4824,0.4724,0.4574,0.3624,0.3123,0.2923,0.2019,0.1632,0.1707,0.1707,0.1707,0.1707,0.1707,0.164,0.1617,0.1566,0.1566,0.1566,0.1516,0.1364,0.1162,0.1162,0.096,0.0758,0.0707,0.0505,0.0303,0.0253,-0.0101,-0.0455,-0.0505,-0.0657,-0.0909,-0.1162,-0.1414,-0.1615,-0.207,-0.3924,-0.5425,-0.4778,-0.5675,-0.657,-0.6672,-0.7179,-0.7633,-0.7683,-0.8368,-0.8958,-0.9008,-0.9895,-1.0538,-1.0538,-1.1755,-1.3022,-1.425,-1.4346,-1.4526,-1.4984,-1.4829,-1.4662,-1.4619,-1.4824,-1.4826,-1.459,-1.4814,-1.4928,-1.4894,-1.4928,-1.4972,-1.5059,-1.5005,-1.5608,-1.6854,-1.7041,-1.7115,-1.7155,-1.7898,-1.8553,-1.9144,-2.0739,-2.1693,-2.2277,-2.3169,-2.3028,-2.2089,-2.0807,-2.0127,-1.9808,1.0308,1.0202,0.9923,0.9364,0.9144,0.8533,0.7254,0.6922,0.67,0.6362,0.5695,0.5417,0.5691,0.4336,0.3311,0.3169,0.2483,0.207,0.207,0.192,0.2574,0.4227,0.4626,0.5577,0.7238,0.7739,0.7587,0.6828,0.6828,0.6575,0.6121,0.5672,0.5151,0.4692,0.4236,0.4077,0.4196,0.41,0.3621,0.2899,0.2818,0.2287,0.1617,0.1617,0.1617,0.1617,0.1617,0.1516,0.1415,0.1415,0.1263,0.101,0.101,0.0859,0.0606,0.0455,0.0253,0.0,-0.0303,-0.0505,-0.0657,-0.0909,-0.096,-0.101,-0.1111,-0.2169,-0.3172,-0.3275,-0.4124,-0.5022,-0.5627,-0.6027,-0.6429,-0.6678,-0.7419,-0.7965,-0.7965,-0.9156,-1.0043,-1.0235,-1.0814,-1.1448,-1.2086,-1.2129,-1.2231,-1.2474,-1.2377,-1.2582,-1.3303,-1.3435,-1.3743,-1.4381,-1.4643,-1.4799,-1.4777,-1.5072,-1.5169,-1.5008,-1.4997,-1.5154,-1.5488,-1.5425,-1.5387,-1.5423,-1.6074,-1.6785,-1.7553,-1.8786,-1.9716,-2.0432,-2.1033,-2.0846,-2.0148,-1.947,-1.9059,-1.8859]}]]